Date StartTime U_cm/s V_cm/s W_cm/s Ustd_cm/s Vstd_cm/s Wstd_cm/s Uvar_(cm/s)^2 Vvar_(cm/s)^2 Wvar_(cm/s)^2 KE_(m/s)^2 TurbulentKE_(m/s)^2 HorizWindSpeed_cm/s FrictionSpeec_cm/s DragCoef SpeedOfSound_m/s SonicTemperature_C Pressure_mb 
11/29/2013  00:00:00      -70.420      -46.990        5.061       29.223       18.900       15.018      853.975      357.192      225.530        0.431        0.072       84.658       12.774        0.023      332.800        1.698      864.797
11/29/2013  00:01:00      -47.205      -28.478        2.113       22.170       18.514       11.831      491.523      342.757      139.973        0.201        0.049       55.130       12.101        0.048      332.710        1.551      864.797
11/29/2013  00:02:00      -51.689      -29.498       -3.800       20.701       10.387       13.896      428.550      107.896      193.096        0.214        0.036       59.514       11.125        0.035      332.658        1.463      864.796
11/29/2013  00:03:00      -86.077      -34.163      -11.197        7.604       12.464        8.974       57.817      155.358       80.529        0.450        0.015       92.609        3.557        0.001      332.686        1.510      864.802
11/29/2013  00:04:00      -96.309      -42.870       -9.493       14.752       11.476        9.610      217.620      131.698       92.357        0.582        0.022      105.419        7.021        0.004      332.714        1.557      864.817
11/29/2013  00:05:00     -101.497      -39.549       -3.032       18.186       14.943       10.463      330.721      223.281      109.483        0.627        0.033      108.931       10.266        0.009      332.681        1.502      864.816
11/29/2013  00:06:00     -100.066      -40.392       -5.122       15.611       14.009        9.235      243.712      196.258       85.285        0.610        0.026      107.911        4.641        0.002      332.690        1.517      864.804
11/29/2013  00:07:00     -104.421      -40.637       -4.244       10.758       13.245        9.110      115.734      175.440       82.990        0.647        0.019      112.049        5.828        0.003      332.665        1.475      864.803
11/29/2013  00:08:00     -104.321      -39.829       -9.484       16.145       15.391        9.605      260.665      236.897       92.261        0.657        0.029      111.666        3.853        0.001      332.692        1.520      864.802
11/29/2013  00:09:00     -113.095      -21.387      -12.135       11.209       10.563        9.700      125.642      111.574       94.098        0.686        0.017      115.099        4.427        0.001      332.618        1.397      864.806
11/29/2013  00:10:00     -126.458      -20.435      -13.897       22.135       18.670       14.308      489.964      348.551      204.716        0.882        0.052      128.098       11.821        0.009      332.546        1.278      864.801
11/29/2013  00:11:00     -131.263       -3.948      -18.180       20.837       14.730       13.160      434.176      216.969      173.189        0.920        0.041      131.322       11.644        0.008      332.444        1.112      864.802
11/29/2013  00:12:00     -129.198      -16.256      -11.767       30.674       19.280       17.192      940.925      371.725      295.562        0.935        0.080      130.216       17.500        0.018      332.450        1.119      864.807
11/29/2013  00:13:00     -112.428      -40.602       -4.462       33.721       22.981       19.245     1137.137      528.120      370.381        0.817        0.102      119.535       21.701        0.033      332.373        0.994      864.817
11/29/2013  00:14:00      -51.099       -2.353       -1.836       34.746       29.420       18.718     1207.313      865.521      350.371        0.252        0.121       51.153       17.071        0.111      332.389        1.018      864.827
11/29/2013  00:15:00      -78.116       -6.985       -4.514       39.968       39.883       24.259     1597.481     1590.684      588.492        0.497        0.189       78.427       21.865        0.078      332.429        1.085      864.845
11/29/2013  00:16:00     -131.879       -5.295       -6.829       54.505       31.363       20.750     2970.746      983.631      430.551        1.092        0.219      131.985       21.900        0.028      332.414        1.062      864.847
11/29/2013  00:17:00     -103.220      -37.355        0.813       28.698       38.286       18.693      823.602     1465.835      349.423        0.734        0.132      109.771       14.320        0.017      332.313        0.895      864.839
11/29/2013  00:18:00     -117.932      -30.286       -9.235       32.551       30.445       19.713     1059.567      926.907      388.609        0.864        0.119      121.759       13.193        0.012      332.286        0.849      864.831
11/29/2013  00:19:00     -101.725      -38.362      -10.522       28.031       26.214       16.735      785.762      687.174      280.075        0.684        0.088      108.718        8.585        0.006      332.303        0.878      864.818
11/29/2013  00:20:00     -117.323      -37.473       -5.699       47.984       29.072       22.609     2302.511      845.157      511.157        0.943        0.183      123.163       25.404        0.043      332.282        0.844      864.815
11/29/2013  00:21:00     -122.487      -36.371       -6.360       36.721       30.928       22.076     1348.416      956.567      487.328        0.958        0.140      127.773       21.446        0.028      332.308        0.885      864.815
11/29/2013  00:22:00     -122.464      -28.615       -3.632       25.785       26.531       18.301      664.883      703.888      334.934        0.877        0.085      125.763       10.710        0.007      332.293        0.863      864.818
11/29/2013  00:23:00      -23.296      -22.473       11.277       37.301       28.935       19.147     1391.384      837.238      366.596        0.188        0.130       32.369       20.125        0.387      332.324        0.913      864.822
11/29/2013  00:24:00       -8.375        0.898       -0.268       22.524       16.611       15.142      507.310      275.929      229.275        0.054        0.051        8.423        9.273        1.212      332.333        0.926      864.828
11/29/2013  00:25:00       -4.651      -18.035        1.092       22.913       22.744       15.364      525.023      517.269      236.055        0.081        0.064       18.625       11.854        0.405      332.295        0.863      864.832
11/29/2013  00:26:00      -55.620      -38.326       -2.241       34.068       18.328       15.857     1160.661      335.915      251.442        0.316        0.087       67.546       16.525        0.060      332.317        0.900      864.844
11/29/2013  00:27:00      -80.457      -40.780      -20.511       17.408       22.957        9.776      303.021      527.026       95.580        0.474        0.046       90.201        5.554        0.004      332.415        1.062      864.838
11/29/2013  00:28:00      -68.879      -28.293      -12.489       21.909       17.408       14.785      480.016      303.055      218.585        0.335        0.050       74.464       14.058        0.036      332.464        1.142      864.824
11/29/2013  00:29:00      -87.117      -25.601      -12.628       17.992       19.363       14.857      323.707      374.917      220.730        0.466        0.046       90.801        8.568        0.009      332.522        1.239      864.807
11/29/2013  00:30:00      -94.759      -30.638       -5.792       20.078       22.015       15.349      403.119      484.643      235.585        0.554        0.056       99.588       10.642        0.011      332.472        1.156      864.802
11/29/2013  00:31:00      -99.263      -32.902       -8.551       20.944       16.427       13.060      438.651      269.858      170.556        0.594        0.044      104.574       10.038        0.009      332.478        1.166      864.787
11/29/2013  00:32:00      -94.873      -43.331       -7.814       17.864       17.146       13.235      319.119      293.974      175.158        0.586        0.039      104.300        8.732        0.007      332.494        1.192      864.777
11/29/2013  00:33:00      -99.199      -36.232      -10.389       13.435       12.078        9.629      180.487      145.889       92.717        0.584        0.021      105.608        6.640        0.004      332.513        1.223      864.765
11/29/2013  00:34:00     -104.620      -21.986      -13.840        9.988       10.942        8.236       99.754      119.737       67.833        0.595        0.014      106.906        4.656        0.002      332.537        1.263      864.768
11/29/2013  00:35:00      -90.568      -15.515      -14.846        8.843        8.167        7.903       78.201       66.701       62.453        0.444        0.010       91.887        5.540        0.004      332.608        1.381      864.759
11/29/2013  00:36:00      -87.920      -19.565      -15.207        7.183        8.197        7.729       51.593       67.191       59.742        0.426        0.009       90.070        3.165        0.001      332.656        1.460      864.749
11/29/2013  00:37:00      -91.910      -29.288      -15.982        9.869       11.505        8.438       97.389      132.366       71.193        0.493        0.015       96.464        4.171        0.002      332.655        1.458      864.737
11/29/2013  00:38:00      -93.472      -27.525      -10.686       18.721       13.252       11.289      350.478      175.627      127.432        0.513        0.033       97.440        7.205        0.005      332.605        1.375      864.727
11/29/2013  00:39:00     -110.754      -33.847      -12.465        9.715       10.681        8.042       94.389      114.094       64.678        0.692        0.014      115.811        6.350        0.003      332.630        1.417      864.735
11/29/2013  00:40:00     -100.697      -34.743       -7.572       14.111       13.085       11.265      199.129      171.209      126.908        0.595        0.025      106.522        8.452        0.006      332.615        1.393      864.731
11/29/2013  00:41:00     -105.983      -41.643      -11.765       14.849       12.539        8.356      220.481      157.220       69.816        0.678        0.022      113.870        6.694        0.003      332.544        1.275      864.722
11/29/2013  00:42:00     -107.954      -36.900       -9.324       11.467       12.386        9.568      131.501      153.409       91.544        0.674        0.019      114.086        3.616        0.001      332.536        1.262      864.714
11/29/2013  00:43:00     -102.199      -32.298       -6.468       23.425       16.096       13.692      548.719      259.093      187.472        0.626        0.050      107.181       12.547        0.014      332.540        1.269      864.704
11/29/2013  00:44:00     -114.431      -39.636       -8.975       10.813       13.396        9.355      116.912      179.450       87.515        0.756        0.019      121.101        5.654        0.002      332.507        1.214      864.698
11/29/2013  00:45:00     -119.097      -26.991      -14.946       10.640       12.242       10.028      113.204      149.868      100.567        0.775        0.018      122.117        4.688        0.001      332.358        0.968      864.700
11/29/2013  00:46:00     -115.964      -38.231       -9.254       15.715       17.749       13.234      246.950      315.027      175.141        0.787        0.037      122.103        7.820        0.004      332.357        0.968      864.707
11/29/2013  00:47:00     -103.862      -38.488       -3.332       21.276       18.205       16.503      452.670      331.408      272.357        0.667        0.053      110.764       10.402        0.009      332.315        0.896      864.713
11/29/2013  00:48:00     -120.750      -36.763       -4.229       24.038       18.735       15.744      577.840      351.015      247.868        0.856        0.059      126.223       13.877        0.012      332.293        0.862      864.722
11/29/2013  00:49:00     -121.748      -45.932       -6.940       24.517       21.684       15.117      601.070      470.200      228.537        0.914        0.065      130.124       12.312        0.009      332.264        0.813      864.745
11/29/2013  00:50:00     -119.669      -36.264       -1.702       30.238       24.361       16.261      914.352      593.464      264.418        0.871        0.089      125.043       15.239        0.015      332.207        0.721      864.753
11/29/2013  00:51:00     -107.972      -52.008        0.154       31.460       26.285       15.752      989.760      690.921      248.115        0.815        0.096      119.845       14.784        0.015      332.162        0.647      864.758
11/29/2013  00:52:00     -105.379      -40.052        0.109       30.791       25.449       14.761      948.101      647.649      217.877        0.726        0.091      112.733       14.543        0.017      332.182        0.678      864.759
11/29/2013  00:53:00      -93.872      -42.511       -0.335       29.063       30.899       16.627      844.687      954.772      276.452        0.635        0.104      103.050       17.339        0.028      332.237        0.769      864.764
11/29/2013  00:54:00      -75.395      -49.091       -1.003       30.824       24.165       17.323      950.147      583.931      300.094        0.496        0.092       89.968       15.889        0.031      332.332        0.926      864.777
11/29/2013  00:55:00      -84.957      -47.872        3.457       27.902       24.015       15.065      778.494      576.722      226.944        0.555        0.079       97.516       10.711        0.012      332.373        0.993      864.791
11/29/2013  00:56:00      -81.522      -54.650       -7.489       27.800       16.471       15.435      772.827      271.306      238.239        0.549        0.064       98.145       14.531        0.022      332.371        0.990      864.805
11/29/2013  00:57:00      -91.184      -46.615       -8.770       16.796       13.611       10.487      282.091      185.267      109.978        0.557        0.029      102.408        7.729        0.006      332.409        1.054      864.816
11/29/2013  00:58:00      -66.861      -15.674       -0.846       20.681       21.314       14.908      427.685      454.305      222.244        0.291        0.055       68.673       11.152        0.026      332.338        0.935      864.819
11/29/2013  00:59:00      -83.952      -42.135       -6.978       18.579       19.245       13.645      345.166      370.383      186.187        0.489        0.045       93.932        9.293        0.010      332.341        0.940      864.822
11/29/2013  01:00:00      -88.751      -39.746       -7.692       13.147       16.067       10.086      172.832      258.143      101.723        0.502        0.027       97.244        3.078        0.001      332.375        0.997      864.827
11/29/2013  01:01:00      -68.316      -51.493       -3.664       19.106       15.447       10.487      365.040      238.602      109.972        0.402        0.036       85.549        6.730        0.006      332.424        1.077      864.837
11/29/2013  01:02:00      -66.498      -44.866       -0.268       28.936       16.290       15.245      837.274      265.365      232.425        0.388        0.067       80.218       10.202        0.016      332.399        1.036      864.848
11/29/2013  01:03:00      -77.103      -57.370       -4.532       29.885       19.894       14.604      893.137      395.779      213.267        0.538        0.075       96.105        8.402        0.008      332.384        1.012      864.849
11/29/2013  01:04:00      -73.719      -40.464        0.417       28.231       22.542       16.765      796.998      508.125      281.057        0.433        0.079       84.095       17.511        0.043      332.337        0.932      864.861
11/29/2013  01:05:00      -78.388      -42.170        0.043       16.225       14.587       11.664      263.267      212.784      136.049        0.427        0.031       89.011        8.804        0.010      332.285        0.848      864.873
11/29/2013  01:06:00      -66.800      -47.989       -1.865       22.382       18.382       13.086      500.949      337.905      171.255        0.389        0.051       82.251       12.004        0.021      332.341        0.940      864.883
11/29/2013  01:07:00      -89.834      -35.918        0.932       26.607       18.236       12.639      707.909      332.536      159.747        0.528        0.060       96.748       13.043        0.018      332.352        0.958      864.905
11/29/2013  01:08:00     -105.538      -54.116        2.002       24.156       21.225       15.387      583.496      450.508      236.746        0.767        0.064      118.604       13.380        0.013      332.345        0.948      864.922
11/29/2013  01:09:00     -123.115      -46.173       -6.784       15.440       18.487       13.488      238.398      341.758      181.927        0.905        0.038      131.489        9.066        0.005      332.399        1.035      864.938
11/29/2013  01:10:00     -100.970      -46.256       -2.230       30.673       17.506       17.137      940.860      306.469      293.667        0.694        0.077      111.061       18.143        0.027      332.383        1.010      864.948
11/29/2013  01:11:00      -81.690      -48.393        5.733       32.328       27.513       21.506     1045.119      756.987      462.493        0.566        0.113       94.948       19.039        0.040      332.416        1.065      864.967
11/29/2013  01:12:00      -80.329      -39.833        1.925       36.276       26.445       16.549     1315.959      699.315      273.867        0.517        0.114       89.663       16.020        0.032      332.383        1.010      864.980
11/29/2013  01:13:00      -78.133      -40.023        5.624       35.962       21.157       17.401     1293.253      447.638      302.807        0.489        0.102       87.787       20.048        0.052      332.357        0.968      864.994
11/29/2013  01:14:00      -88.611      -38.907       -0.593       38.601       22.824       16.238     1490.015      520.947      263.663        0.582        0.114       96.776       16.144        0.028      332.450        1.120      865.009
11/29/2013  01:15:00      -78.512      -32.868       10.248       40.656       23.773       15.839     1652.926      565.146      250.880        0.491        0.123       85.114       17.053        0.040      332.444        1.110      865.032
11/29/2013  01:16:00      -55.255      -29.611       12.215       43.206       23.904       21.087     1866.749      571.384      444.650        0.348        0.144       62.689       21.218        0.115      332.409        1.054      865.044
11/29/2013  01:17:00      -39.468      -39.662        8.575       33.530       35.139       19.508     1124.291     1234.774      380.581        0.297        0.137       55.954       17.567        0.099      332.407        1.050      865.053
11/29/2013  01:18:00      -68.034      -50.023        3.754       46.464       26.475       24.944     2158.906      700.930      622.191        0.531        0.174       84.445       24.162        0.082      332.395        1.030      865.067
11/29/2013  01:19:00     -112.291      -78.487       -1.197       46.432       38.056       26.499     2155.887     1448.247      702.220        1.154        0.215      137.002       18.180        0.018      332.402        1.041      865.087
11/29/2013  01:20:00      -98.618      -56.311        5.021       72.884       50.629       29.757     5312.033     2563.272      885.490        1.084        0.438      113.563       35.408        0.097      332.363        0.977      865.116
11/29/2013  01:21:00      -32.812      -21.660       14.372       56.143       39.509       22.188     3152.009     1560.976      492.322        0.348        0.260       39.317       19.386        0.243      332.311        0.890      865.153
11/29/2013  01:22:00     -113.491      -96.421        0.080       52.547       49.121       33.534     2761.140     2412.894     1124.523        1.424        0.315      148.920       31.655        0.045      332.283        0.846      865.180
11/29/2013  01:23:00     -105.352      -83.175       -7.311       35.883       31.539       17.229     1287.618      994.693      296.830        1.032        0.129      134.228       10.430        0.006      332.339        0.937      865.205
11/29/2013  01:24:00     -116.302      -36.302      -11.861       30.820       21.464       14.848      949.885      460.717      220.471        0.831        0.082      121.836       12.938        0.011      332.330        0.923      865.220
11/29/2013  01:25:00      -94.197      -26.601       -0.640       40.351       27.884       14.414     1628.236      777.511      207.756        0.610        0.131       97.881       13.699        0.020      332.294        0.862      865.225
11/29/2013  01:26:00     -111.495      -43.612        1.810       33.784       31.394       19.981     1141.380      985.557      399.250        0.843        0.126      119.721       19.376        0.026      332.320        0.907      865.231
11/29/2013  01:27:00     -119.537      -44.152        2.924       34.293       23.983       17.889     1175.994      575.166      320.005        0.916        0.104      127.430       18.112        0.020      332.245        0.783      865.232
11/29/2013  01:28:00      -99.528      -20.073        3.526       32.738       22.900       22.130     1071.766      524.417      489.726        0.620        0.104      101.532       19.548        0.037      332.241        0.777      865.237
11/29/2013  01:29:00      -80.842      -43.255        5.064       39.143       26.228       17.570     1532.154      687.891      308.701        0.548        0.126       91.686       20.120        0.048      332.251        0.793      865.234
11/29/2013  01:30:00      -89.511      -45.634        7.561       42.262       28.527       22.984     1786.102      813.775      528.246        0.664        0.156      100.472       21.742        0.047      332.178        0.673      865.239
11/29/2013  01:31:00      -83.659      -31.934       -0.142       28.841       25.175       17.035      831.802      633.804      290.198        0.489        0.088       89.546       13.990        0.024      332.193        0.696      865.252
11/29/2013  01:32:00     -111.944      -43.299        0.356       28.181       26.174       17.398      794.145      685.063      302.699        0.809        0.089      120.026       12.473        0.011      332.150        0.626      865.271
11/29/2013  01:33:00     -120.506      -37.056       -3.747       40.231       40.961       24.803     1618.571     1677.781      615.191        0.991        0.196      126.075       26.142        0.043      332.113        0.564      865.287
11/29/2013  01:34:00     -131.946      -46.738        0.389       42.166       24.413       19.918     1777.950      595.979      396.708        1.118        0.139      139.979       23.062        0.027      332.093        0.533      865.296
11/29/2013  01:35:00     -108.567      -32.877       -3.005       34.775       28.138       16.444     1209.283      791.721      270.389        0.757        0.114      113.436       16.923        0.022      332.039        0.443      865.328
11/29/2013  01:36:00      -93.949      -30.386       -0.163       29.746       36.268       20.776      884.850     1315.347      431.639        0.619        0.132       98.740       19.845        0.040      331.971        0.331      865.366
11/29/2013  01:37:00      -84.689      -33.048       -7.085       33.065       25.536       14.921     1093.295      652.063      222.634        0.514        0.098       90.908       11.126        0.015      331.960        0.312      865.401
11/29/2013  01:38:00     -121.335      -25.642       -9.547       19.450       18.247       13.564      378.314      332.949      183.970        0.818        0.045      124.015       10.654        0.007      331.910        0.231      865.432
11/29/2013  01:39:00     -120.574      -28.677       -7.176       23.011       14.127       11.178      529.487      199.568      124.946        0.813        0.043      123.938       11.206        0.008      331.904        0.220      865.441
11/29/2013  01:40:00     -107.845      -24.577       -4.819       29.610       29.786       16.580      876.724      887.217      274.901        0.715        0.102      110.610       14.454        0.017      331.870        0.163      865.442
11/29/2013  01:41:00     -104.989      -23.124       -8.338       23.687       24.163       15.729      561.075      583.873      247.411        0.651        0.070      107.506       11.170        0.011      331.858        0.144      865.440
11/29/2013  01:42:00      -52.459      -34.246        2.940       28.231       31.398       13.754      796.974      985.844      189.166        0.295        0.099       62.648       15.294        0.060      331.907        0.224      865.431
11/29/2013  01:43:00      -56.320      -44.953       -3.192       27.368       19.657       16.702      749.028      386.412      278.946        0.331        0.071       72.061       14.585        0.041      331.969        0.327      865.434
11/29/2013  01:44:00      -50.352      -23.166       -4.572       21.569       20.053       15.331      465.209      402.112      235.046        0.210        0.055       55.426       14.055        0.064      331.969        0.326      865.429
11/29/2013  01:45:00      -60.075      -13.831       -8.861       18.504       22.010       18.397      342.409      484.427      338.434        0.252        0.058       61.646       13.489        0.048      332.008        0.393      865.419
11/29/2013  01:46:00      -76.409       -9.423       -9.520       31.043       20.241       13.487      963.672      409.710      181.909        0.379        0.078       76.988       16.365        0.045      332.030        0.428      865.417
11/29/2013  01:47:00      -75.571      -24.866       -3.810       16.679       22.196       16.911      278.185      492.645      285.993        0.370        0.053       79.557        9.229        0.013      332.029        0.426      865.427
11/29/2013  01:48:00      -88.044      -15.542      -16.822       20.505       21.826       14.967      420.461      476.388      224.007        0.470        0.056       89.406       10.827        0.015      332.013        0.401      865.441
11/29/2013  01:49:00      -96.037      -29.732       -4.646       29.699       25.006       16.572      882.016      625.287      274.629        0.595        0.089      100.534       14.539        0.021      331.988        0.359      865.457
11/29/2013  01:50:00      -86.806       -6.631      -13.797       47.775       31.880       18.575     2282.406     1016.303      345.014        0.571        0.182       87.059       20.048        0.053      331.936        0.272      865.467
11/29/2013  01:51:00     -102.151      -26.459      -11.892       34.303       28.571       18.902     1176.678      816.295      357.281        0.681        0.118      105.522       19.896        0.036      331.986        0.356      865.469
11/29/2013  01:52:00      -99.112      -38.529       -7.696       24.207       26.709       15.643      585.993      713.384      244.703        0.646        0.077      106.337       13.537        0.016      331.996        0.371      865.473
11/29/2013  01:53:00      -80.755      -13.063       -8.086       33.151       30.200       19.171     1099.014      912.058      367.519        0.457        0.119       81.805       14.804        0.033      331.954        0.302      865.480
11/29/2013  01:54:00      -28.494        0.359       -2.062       26.747       21.000       15.404      715.416      440.988      237.282        0.110        0.070       28.497       16.134        0.321      331.889        0.194      865.489
11/29/2013  01:55:00      -59.183       -4.645       -8.566       33.092       30.521       18.180     1095.100      931.537      330.503        0.298        0.118       59.365       14.677        0.061      331.904        0.219      865.489
11/29/2013  01:56:00      -69.080       -0.144      -12.611       35.508       30.866       18.307     1260.816      952.703      335.129        0.374        0.127       69.080       14.734        0.045      331.890        0.196      865.490
11/29/2013  01:57:00      -83.456       -9.944       -5.557       37.422       25.698       19.153     1400.388      660.411      366.842        0.476        0.121       84.046       16.089        0.037      331.870        0.165      865.481
11/29/2013  01:58:00     -101.406        2.372      -11.130       27.255       25.141       15.919      742.811      632.091      253.422        0.602        0.081      101.434       14.792        0.021      331.905        0.222      865.476
11/29/2013  01:59:00      -95.995      -12.575       -8.925       15.726       22.753       14.652      247.318      517.680      214.696        0.522        0.049       96.815       12.374        0.016      331.907        0.223      865.487
11/29/2013  02:00:00      -64.814       -5.419      -11.544       21.438       18.576       14.279      459.602      345.086      203.880        0.269        0.050       65.040        6.317        0.009      331.897        0.210      865.498
11/29/2013  02:01:00      -53.426      -18.429       -7.476       17.803       15.185       12.813      316.961      230.585      164.174        0.198        0.036       56.515       12.885        0.052      331.890        0.197      865.495
11/29/2013  02:02:00      -54.126      -13.094       -6.970       26.799       16.116       14.568      718.184      259.735      212.213        0.217        0.060       55.687        9.395        0.028      331.917        0.241      865.501
11/29/2013  02:03:00       -9.532      -31.094       -9.278       27.326       15.041       16.674      746.714      226.218      278.017        0.120        0.063       32.522        9.446        0.084      331.937        0.275      865.514
11/29/2013  02:04:00      -46.268      -34.713        0.562       47.055       23.873       17.630     2214.140      569.936      310.827        0.322        0.155       57.842       24.963        0.186      331.913        0.235      865.525
11/29/2013  02:05:00      -85.690      -32.674       -1.907       30.298       20.273       18.507      917.975      411.005      342.501        0.504        0.084       91.708       15.142        0.027      331.817        0.078      865.528
11/29/2013  02:06:00      -97.444       -3.795      -12.958       16.116       10.873       12.243      259.713      118.233      149.891        0.510        0.026       97.518        7.533        0.006      331.865        0.155      865.528
11/29/2013  02:07:00      -93.459       -1.183      -14.808        7.564        8.944        8.541       57.211       79.996       72.953        0.458        0.011       93.466        3.127        0.001      331.977        0.339      865.524
11/29/2013  02:08:00      -66.734      -16.676       -5.880       13.320       15.047        7.196      177.435      226.417       51.776        0.261        0.023       68.785        3.654        0.003      331.985        0.355      865.525
11/29/2013  02:09:00      -74.878      -13.830      -10.065       10.243       12.848        7.772      104.923      165.074       60.399        0.311        0.017       76.144        5.938        0.006      332.013        0.401      865.525
11/29/2013  02:10:00      -83.336       -4.628      -12.144       10.041        8.603        8.982      100.820       74.008       80.676        0.368        0.013       83.465        3.563        0.002      331.986        0.356      865.528
11/29/2013  02:11:00      -90.886       -7.747      -12.277       11.457       12.702       10.385      131.259      161.338      107.842        0.444        0.020       91.216        5.728        0.004      331.949        0.293      865.538
11/29/2013  02:12:00      -95.289      -11.350      -11.919       12.528       12.065        9.336      156.949      145.560       87.164        0.487        0.019       95.962        4.947        0.003      331.914        0.237      865.556
11/29/2013  02:13:00     -110.893      -18.269      -14.994       10.664       10.829        9.312      113.714      117.267       86.712        0.659        0.016      112.387        5.627        0.003      331.858        0.145      865.562
11/29/2013  02:14:00      -94.044      -22.311       -9.969       22.607       14.323       15.840      511.080      205.144      250.905        0.520        0.048       96.654       15.304        0.025      331.806        0.059      865.578
11/29/2013  02:15:00     -120.069      -18.279      -14.553       12.417       12.941        8.483      154.189      167.472       71.966        0.768        0.020      121.452        3.732        0.001      331.867        0.160      865.587
11/29/2013  02:16:00     -118.326      -20.010      -12.614       18.022       15.493       12.393      324.810      240.021      153.576        0.764        0.036      120.006        9.654        0.006      331.863        0.153      865.593
11/29/2013  02:17:00     -114.947      -28.778       -9.931       14.497       19.017       11.364      210.162      361.663      129.135        0.742        0.035      118.495        9.087        0.006      331.802        0.052      865.603
11/29/2013  02:18:00     -106.288      -30.839       -8.388       14.599       12.880       10.949      213.145      165.898      119.885        0.641        0.025      110.672        8.145        0.005      331.795        0.042      865.599
11/29/2013  02:19:00     -127.982      -27.229      -13.099       13.336       13.079       10.553      177.842      171.069      111.367        0.888        0.023      130.846        5.152        0.002      331.860        0.147      865.605
11/29/2013  02:20:00     -119.241      -24.940      -10.140       25.356       15.426       10.922      642.904      237.946      119.296        0.797        0.050      121.821        6.803        0.003      331.837        0.110      865.614
11/29/2013  02:21:00     -134.329      -15.995      -13.245       18.462       18.518       11.599      340.840      342.903      134.533        0.965        0.041      135.278        7.275        0.003      331.843        0.120      865.622
11/29/2013  02:22:00     -114.888      -19.099       -8.263       25.125       17.868       17.160      631.278      319.267      294.449        0.744        0.062      116.464       12.629        0.012      331.840        0.114      865.639
11/29/2013  02:23:00     -112.148      -29.900       -8.249       15.207       20.026       11.403      231.257      401.046      130.032        0.715        0.038      116.066        7.503        0.004      331.816        0.076      865.652
11/29/2013  02:24:00     -106.087      -14.801      -10.151       21.694       19.014       11.931      470.611      361.551      142.351        0.628        0.049      107.115        8.686        0.007      331.782        0.019      865.663
11/29/2013  02:25:00      -92.223      -22.635       -6.245       34.087       21.576       17.301     1161.924      465.506      299.333        0.549        0.096       94.960       14.526        0.023      331.853        0.135      865.669
11/29/2013  02:26:00     -106.243       -8.706       -7.274       24.100       16.516       16.947      580.804      272.774      287.184        0.628        0.057      106.599       15.445        0.021      331.753       -0.029      865.678
11/29/2013  02:27:00     -101.969      -20.302       -8.245       30.566       18.500       12.528      934.301      342.258      156.946        0.616        0.072      103.971       12.668        0.015      331.771        0.003      865.683
11/29/2013  02:28:00     -108.781      -15.108       -8.964       27.628       16.589       13.806      763.330      275.179      190.607        0.669        0.061      109.825       13.845        0.016      331.777        0.013      865.680
11/29/2013  02:29:00     -127.971      -29.263      -14.591       17.087       12.528       10.469      291.980      156.951      109.596        0.900        0.028      131.274        7.905        0.004      331.731       -0.066      865.679
11/29/2013  02:30:00     -107.363      -40.688      -11.855       26.970       14.933       11.586      727.388      223.002      134.229        0.720        0.054      114.814       11.609        0.010      331.665       -0.172      865.672
11/29/2013  02:31:00      -47.768      -51.959        2.275       41.858       26.547       18.297     1752.133      704.759      334.792        0.389        0.140       70.580       19.839        0.079      331.668       -0.167      865.670
11/29/2013  02:32:00      -83.929      -31.331       -6.202       27.381       23.678       17.367      749.741      560.655      301.620        0.484        0.081       89.587       14.543        0.026      331.584       -0.308      865.669
11/29/2013  02:33:00      -86.143      -33.974       -9.075       24.575       21.954       14.878      603.916      481.971      221.363        0.498        0.065       92.600        2.938        0.001      331.585       -0.305      865.676
11/29/2013  02:34:00      -95.680      -40.582       -6.067       24.722       22.405       13.633      611.157      502.001      185.847        0.607        0.065      103.930        9.921        0.009      331.596       -0.287      865.680
11/29/2013  02:35:00     -102.016      -34.282       -9.801       20.663       17.228       10.505      426.960      296.803      110.355        0.626        0.042      107.622        9.923        0.009      331.525       -0.404      865.680
11/29/2013  02:36:00      -99.560      -32.067       -9.077       14.866       14.432        9.836      220.993      208.270       96.756        0.577        0.026      104.597        6.560        0.004      331.500       -0.446      865.679
11/29/2013  02:37:00      -80.987      -31.995       -4.694       20.381       20.128       14.030      415.372      405.146      196.842        0.431        0.051       87.078       10.474        0.014      331.577       -0.318      865.678
11/29/2013  02:38:00      -96.413      -43.721       -7.738       19.321       19.824       13.779      373.298      392.982      189.853        0.611        0.048      105.863       11.312        0.011      331.638       -0.216      865.686
11/29/2013  02:39:00      -73.056      -45.508       -1.438       19.454       14.901       12.160      378.474      222.035      147.857        0.408        0.037       86.070        9.773        0.013      331.646       -0.204      865.696
11/29/2013  02:40:00      -67.479      -35.812       -4.181       21.315       16.417       14.438      454.336      269.504      208.456        0.339        0.047       76.393       13.206        0.030      331.703       -0.110      865.702
11/29/2013  02:41:00      -71.395      -29.372       -3.679       17.220       14.235       11.905      296.545      202.636      141.730        0.331        0.032       77.201       11.548        0.022      331.778        0.012      865.711
11/29/2013  02:42:00      -75.131      -36.520      -10.517        8.441        8.264        7.745       71.250       68.292       59.988        0.364        0.010       83.537        5.471        0.004      331.748       -0.038      865.729
11/29/2013  02:43:00      -84.721      -37.961       -9.996       12.070        8.141        8.516      145.695       66.268       72.519        0.450        0.014       92.837        6.189        0.004      331.846        0.126      865.748
11/29/2013  02:44:00      -71.538      -36.776       -7.702       14.047       11.519        8.291      197.329      132.690       68.741        0.346        0.020       80.437        8.214        0.010      331.945        0.289      865.750
11/29/2013  02:45:00      -73.617      -35.490      -13.970        8.609        7.671        9.080       74.123       58.849       82.451        0.354        0.011       81.725        3.004        0.001      332.093        0.532      865.752
11/29/2013  02:46:00      -82.654      -34.769       -9.687       10.777       14.327        8.764      116.134      205.271       76.809        0.427        0.020       89.669        5.339        0.004      332.059        0.474      865.747
11/29/2013  02:47:00      -82.567      -31.442       -5.039       18.161       15.228       12.003      329.836      231.880      144.064        0.427        0.035       88.351        9.631        0.012      331.933        0.267      865.748
11/29/2013  02:48:00      -87.491      -34.271       -8.206       12.540       11.281        7.873      157.255      127.272       61.985        0.462        0.017       93.964        4.598        0.002      331.943        0.283      865.754
11/29/2013  02:49:00      -95.806      -42.817       -4.781        9.695        9.543        7.454       93.995       91.072       55.562        0.564        0.012      104.939        1.036        0.000      332.025        0.420      865.753
11/29/2013  02:50:00     -103.462      -35.071       -6.622       15.669       14.197       10.711      245.515      201.553      114.730        0.627        0.028      109.245        9.356        0.007      331.981        0.346      865.750
11/29/2013  02:51:00     -110.755      -29.430       -9.844       16.815       18.652       11.193      282.750      347.902      125.287        0.699        0.038      114.598        8.118        0.005      331.951        0.296      865.750
11/29/2013  02:52:00     -102.979      -36.634       -2.521       21.186       16.108       13.531      448.830      259.460      183.094        0.642        0.045      109.301       12.142        0.012      331.881        0.181      865.754
11/29/2013  02:53:00     -111.974      -36.799       -7.386       21.510       21.307       13.138      462.695      453.985      172.600        0.752        0.054      117.866        8.719        0.005      331.871        0.165      865.766
11/29/2013  02:54:00      -97.790      -41.018       -3.574       13.384       19.912       12.224      179.132      396.503      149.432        0.599        0.036      106.044        7.372        0.005      331.839        0.115      865.772
11/29/2013  02:55:00      -88.229      -45.119       -5.406       21.609       21.685       16.331      466.960      470.218      266.698        0.553        0.060       99.096       14.404        0.021      331.828        0.096      865.761
11/29/2013  02:56:00      -95.919      -52.319       -5.545       20.897       18.911       15.120      436.674      357.637      228.618        0.650        0.051      109.260       12.204        0.012      331.839        0.112      865.762
11/29/2013  02:57:00     -109.066      -41.108       -8.317       29.525       21.524       14.049      871.699      463.274      197.373        0.759        0.077      116.556       15.590        0.018      331.840        0.115      865.762
11/29/2013  02:58:00      -98.303      -54.658       -7.611       16.122       18.205       12.458      259.925      331.434      155.193        0.673        0.037      112.477        4.387        0.002      331.785        0.024      865.771
11/29/2013  02:59:00     -124.469      -56.035       -5.264       18.994       16.204        8.926      360.769      262.569       79.682        0.968        0.035      136.501        7.701        0.003      331.814        0.072      865.776
11/29/2013  03:00:00     -113.480      -54.195       -1.791       25.265       18.392       15.169      638.339      338.264      230.095        0.851        0.060      125.757       13.011        0.011      331.852        0.133      865.785
11/29/2013  03:01:00      -97.208      -24.287       -2.671       41.620       21.075       17.505     1732.223      444.176      306.432        0.626        0.124      100.196       20.001        0.040      331.839        0.112      865.798
11/29/2013  03:02:00      -81.097      -29.828        2.909       28.073       24.348       14.587      788.099      592.840      212.779        0.453        0.080       86.408       13.089        0.023      331.786        0.026      865.808
11/29/2013  03:03:00      -87.263      -44.826       -4.306       20.136       20.311       12.070      405.473      412.542      145.678        0.530        0.048       98.103       11.432        0.014      331.789        0.031      865.813
11/29/2013  03:04:00      -80.078      -37.382       -1.055       27.236       20.535       10.578      741.825      421.673      111.887        0.454        0.064       88.374       11.290        0.016      331.821        0.084      865.815
11/29/2013  03:05:00      -77.641      -26.061       -2.079       14.942       16.623       11.990      223.253      276.327      143.755        0.368        0.032       81.898        6.909        0.007      331.816        0.075      865.812
11/29/2013  03:06:00      -82.830      -48.015       -2.846       17.848       18.332       10.999      318.548      336.067      120.967        0.497        0.039       95.741        9.440        0.010      331.812        0.070      865.804
11/29/2013  03:07:00      -91.634      -54.342       -5.534       22.390       21.905       16.705      501.315      479.851      279.048        0.632        0.063      106.536       11.339        0.011      331.825        0.090      865.799
11/29/2013  03:08:00      -80.796      -55.509        0.824       26.375       21.910       19.480      695.666      480.044      379.482        0.558        0.078       98.027        8.410        0.007      331.895        0.204      865.794
11/29/2013  03:09:00      -48.166      -47.092        6.467       38.035       27.472       21.539     1446.698      754.698      463.912        0.362        0.133       67.362       19.667        0.085      331.920        0.245      865.787
11/29/2013  03:10:00      -87.746      -55.130       -1.284       38.847       25.487       18.919     1509.083      649.583      357.921        0.663        0.126      103.628       11.659        0.013      331.991        0.362      865.771
11/29/2013  03:11:00      -70.910      -47.073       -3.754       31.913       26.476       18.644     1018.413      700.971      347.590        0.466        0.103       85.112       11.324        0.018      331.946        0.288      865.768
11/29/2013  03:12:00      -81.271      -54.082        3.848       39.424       27.194       21.330     1554.290      739.499      454.952        0.615        0.137       97.621       21.230        0.047      331.937        0.272      865.761
11/29/2013  03:13:00      -92.124      -49.304        2.734       38.061       27.285       20.942     1448.640      744.478      438.557        0.678        0.132      104.488       21.973        0.044      331.852        0.135      865.765
11/29/2013  03:14:00      -80.921      -47.687        1.066       35.772       27.860       21.174     1279.627      776.175      448.320        0.566        0.125       93.926       17.023        0.033      331.842        0.118      865.782
11/29/2013  03:15:00     -123.723      -54.969      -13.090       26.601       18.201       15.103      707.632      331.259      228.107        0.988        0.063      135.385       14.550        0.012      331.905        0.221      865.789
11/29/2013  03:16:00     -108.694      -63.847       -9.771       14.146       19.831       14.402      200.095      393.274      207.416        0.839        0.040      126.059       10.229        0.007      331.910        0.228      865.797
11/29/2013  03:17:00     -117.161      -49.011      -13.792        9.786       14.175        8.936       95.761      200.944       79.848        0.835        0.019      126.999        4.447        0.001      331.871        0.165      865.798
11/29/2013  03:18:00     -113.483      -48.528      -15.683       13.107       12.156        8.806      171.799      147.770       77.553        0.794        0.020      123.424        2.028        0.000      331.855        0.140      865.801
11/29/2013  03:19:00     -110.922      -46.906       -3.562       17.469       22.225       13.825      305.182      493.963      191.141        0.775        0.050      120.432        5.944        0.002      331.859        0.145      865.786
11/29/2013  03:20:00      -74.183      -48.917        3.097       49.374       24.322       19.317     2437.816      591.544      373.162        0.565        0.170       88.860       19.604        0.049      331.889        0.196      865.774
11/29/2013  03:21:00      -67.805      -41.031        1.804       44.913       30.362       17.525     2017.153      921.864      307.143        0.476        0.162       79.253       17.019        0.046      331.925        0.256      865.765
11/29/2013  03:22:00      -77.101      -59.298        0.781       35.228       27.492       17.436     1240.997      755.793      303.998        0.588        0.115       97.267       12.704        0.017      331.963        0.317      865.758
11/29/2013  03:23:00      -60.038      -38.890        2.829       31.753       25.600       18.338     1008.272      655.346      336.285        0.356        0.100       71.534       17.356        0.059      331.912        0.234      865.753
11/29/2013  03:24:00      -81.984      -62.716       -2.419       36.139       32.223       20.617     1306.057     1038.317      425.057        0.671        0.138      103.222       21.801        0.045      331.934        0.268      865.744
11/29/2013  03:25:00      -77.895      -43.142       -1.029       27.677       22.822       15.355      766.021      520.839      235.773        0.473        0.076       89.044       12.752        0.021      331.954        0.301      865.745
11/29/2013  03:26:00      -68.551      -25.712        0.110       28.097       17.197       14.688      789.414      295.735      215.734        0.333        0.065       73.214       13.930        0.036      331.878        0.177      865.739
11/29/2013  03:27:00      -66.031      -18.971        1.749       24.455       18.416       13.567      598.057      339.142      184.052        0.292        0.056       68.702       11.484        0.028      331.888        0.193      865.733
11/29/2013  03:28:00      -78.471      -19.243       -1.260       24.807       18.138       10.876      615.406      328.992      118.297        0.380        0.053       80.796        7.126        0.008      331.922        0.248      865.723
11/29/2013  03:29:00      -68.061       -7.186        0.421       26.420       13.738       11.317      698.004      188.724      128.084        0.285        0.051       68.439       14.374        0.044      331.841        0.116      865.713
11/29/2013  03:30:00      -76.416      -11.905       -5.571       14.283       16.273       10.930      203.990      264.800      119.467        0.330        0.029       77.337        7.548        0.010      331.842        0.118      865.699
11/29/2013  03:31:00      -50.121      -24.619       -6.086       12.330       13.354        8.091      152.041      178.329       65.460        0.178        0.020       55.841        4.352        0.006      331.834        0.105      865.685
11/29/2013  03:32:00      -44.312      -20.484       -2.792       20.310        9.634        6.699      412.505       92.821       44.880        0.147        0.028       48.818        8.673        0.032      331.818        0.079      865.677
11/29/2013  03:33:00       -3.180      -14.438        1.775       14.079       10.819        7.157      198.209      117.057       51.224        0.029        0.018       14.784        7.543        0.260      331.861        0.150      865.677
11/29/2013  03:34:00      -22.643       -7.227       -3.404       13.742        5.283        3.487      188.848       27.910       12.156        0.040        0.011       23.769        2.514        0.011      331.817        0.075      865.684
11/29/2013  03:35:00      -47.098      -20.563       -2.978       12.297       12.848       12.826      151.216      165.062      164.515        0.157        0.024       51.391        9.379        0.033      331.776        0.009      865.695
11/29/2013  03:36:00      -50.791      -29.812       -6.085       10.398       13.774       10.874      108.116      189.710      118.247        0.196        0.021       58.894        4.106        0.005      331.828        0.095      865.697
11/29/2013  03:37:00      -43.465      -19.019       -7.964       10.188        8.877       10.907      103.800       78.805      118.953        0.131        0.015       47.444        8.627        0.033      331.920        0.247      865.693
11/29/2013  03:38:00      -48.051      -16.129       -7.755       11.816        9.708        8.160      139.613       94.237       66.588        0.146        0.015       50.686        5.565        0.012      331.831        0.100      865.693
11/29/2013  03:39:00      -59.665       -3.547       -1.151       12.930       12.660        7.259      167.179      160.286       52.695        0.198        0.019       59.770        4.911        0.007      331.859        0.147      865.683
11/29/2013  03:40:00      -57.663       -7.190       -6.614       18.908       12.265        9.991      357.510      150.430       99.821        0.201        0.030       58.110       11.150        0.037      331.785        0.024      865.671
11/29/2013  03:41:00      -66.984      -12.516       -8.512       12.651        8.554        8.656      160.051       73.169       74.918        0.251        0.015       68.143        5.607        0.007      331.812        0.069      865.670
11/29/2013  03:42:00      -76.595      -28.691       -5.120       11.685       14.967        9.149      136.534      224.023       83.708        0.358        0.022       81.792        5.633        0.005      331.789        0.031      865.666
11/29/2013  03:43:00      -76.837      -21.755       -7.074       10.481       13.900        7.641      109.859      193.198       58.380        0.339        0.018       79.857        4.645        0.003      331.772        0.002      865.674
11/29/2013  03:44:00      -60.349      -12.798       -7.741       15.965       13.129       10.553      254.888      172.381      111.356        0.220        0.027       61.691        9.521        0.024      331.768       -0.003      865.686
11/29/2013  03:45:00      -67.017       -6.699      -11.622       17.491       17.817        8.075      305.932      317.445       65.199        0.268        0.034       67.351        5.610        0.007      331.758       -0.021      865.706
11/29/2013  03:46:00      -74.382      -24.460       -9.693       17.767       11.278        7.952      315.656      127.186       63.229        0.337        0.025       78.300        4.983        0.004      331.750       -0.035      865.719
11/29/2013  03:47:00      -82.602      -16.269      -12.990       10.966       10.759        9.143      120.251      115.761       83.594        0.379        0.016       84.188        5.083        0.004      331.723       -0.078      865.725
11/29/2013  03:48:00     -100.191      -14.873      -15.263        7.805        7.605        6.673       60.918       57.832       44.524        0.533        0.008      101.288        3.000        0.001      331.662       -0.177      865.733
11/29/2013  03:49:00      -93.120      -24.374      -11.266       14.213       12.071        9.807      202.001      145.700       96.175        0.492        0.022       96.257        8.044        0.007      331.603       -0.276      865.736
11/29/2013  03:50:00      -78.444      -12.399       -6.296       20.102       14.897       14.123      404.085      221.932      199.470        0.359        0.041       79.418       12.061        0.023      331.494       -0.456      865.741
11/29/2013  03:51:00      -52.375      -10.102        2.949       27.356       14.764       14.240      748.361      217.966      202.768        0.201        0.058       53.340       14.972        0.079      331.389       -0.628      865.731
11/29/2013  03:52:00      -77.718      -24.798       -6.337        9.696       12.225        9.660       94.016      149.441       93.319        0.352        0.017       81.578        7.636        0.009      331.492       -0.459      865.731
11/29/2013  03:53:00      -80.558      -18.529       -5.161       12.657       12.820        9.509      160.187      164.355       90.426        0.364        0.021       82.662        7.660        0.009      331.466       -0.501      865.717
11/29/2013  03:54:00      -59.023        3.720       -1.616       16.719       11.807       10.803      279.537      139.411      116.694        0.202        0.027       59.141        9.226        0.024      331.451       -0.527      865.714
11/29/2013  03:55:00      -59.214        4.170       -6.855        9.862       10.542        6.938       97.252      111.139       48.131        0.191        0.013       59.361        4.903        0.007      331.460       -0.513      865.712
11/29/2013  03:56:00      -49.613        0.505      -12.190       10.614        7.670        7.826      112.659       58.822       61.253        0.142        0.012       49.616        5.782        0.014      331.511       -0.428      865.709
11/29/2013  03:57:00      -59.956       13.246       -9.232       10.092        7.825        6.413      101.847       61.235       41.121        0.203        0.010       61.402        4.683        0.006      331.584       -0.308      865.712
11/29/2013  03:58:00      -47.658       34.792      -13.830       12.434       17.357        9.853      154.606      301.257       97.088        0.211        0.028       59.006        5.181        0.008      331.792        0.036      865.716
11/29/2013  03:59:00      -35.076       37.340       -9.578       11.915       18.216       10.585      141.978      331.824      112.050        0.165        0.029       51.231        7.469        0.021      331.912        0.234      865.733
11/29/2013  04:00:00      -30.428       15.619       -3.348       14.624       13.555        9.632      213.855      183.742       92.775        0.084        0.025       34.203        7.815        0.052      331.725       -0.074      865.747
11/29/2013  04:01:00      -30.141      -18.248       -5.432       20.479       17.050        8.006      419.378      290.702       64.095        0.102        0.039       35.234       11.013        0.098      331.568       -0.336      865.758
11/29/2013  04:02:00       -8.056      -24.378        2.540       10.643       14.902       11.981      113.268      222.055      143.539        0.057        0.024       25.675        9.353        0.133      331.476       -0.486      865.772
11/29/2013  04:03:00      -22.469      -18.991        8.396       20.270       11.254       13.967      410.858      126.658      195.088        0.083        0.037       29.420        9.379        0.102      331.417       -0.581      865.777
11/29/2013  04:04:00      -35.269       -5.395       -3.047       15.482       10.628       11.493      239.701      112.952      132.091        0.088        0.024       35.680       12.684        0.126      331.428       -0.564      865.774
11/29/2013  04:05:00      -40.693       -4.523       -6.578        7.716        7.165        7.240       59.538       51.344       52.421        0.094        0.008       40.944        3.648        0.008      331.461       -0.510      865.765
11/29/2013  04:06:00      -47.600      -17.065       -7.511        8.432        7.641        6.991       71.094       58.385       48.871        0.140        0.009       50.566        1.837        0.001      331.485       -0.471      865.750
11/29/2013  04:07:00      -68.131      -22.556       -8.507       11.441        6.749        5.240      130.900       45.542       27.462        0.271        0.010       71.767        2.242        0.001      331.412       -0.591      865.747
11/29/2013  04:08:00      -74.135      -22.543       -6.839       11.474       13.805        7.302      131.651      190.579       53.320        0.321        0.019       77.487        5.631        0.005      331.434       -0.553      865.742
11/29/2013  04:09:00      -74.391       -5.833       -3.887       15.956       14.157       11.324      254.602      200.432      128.233        0.308        0.029       74.619        8.633        0.013      331.404       -0.603      865.749
11/29/2013  04:10:00      -87.191      -24.070       -7.233       19.046       16.005       10.692      362.740      256.155      114.326        0.448        0.037       90.452        9.353        0.011      331.372       -0.656      865.754
11/29/2013  04:11:00      -63.370      -11.657       -5.064       35.114       12.414       11.570     1232.998      154.107      133.864        0.285        0.076       64.434       14.551        0.051      331.328       -0.727      865.753
11/29/2013  04:12:00      -99.551       -1.364       -6.332       25.990       16.712       13.628      675.504      279.301      185.713        0.555        0.057       99.560       11.825        0.014      331.297       -0.778      865.755
11/29/2013  04:13:00      -77.110      -10.093       -3.170       28.666       22.397       17.123      821.712      501.643      293.202        0.384        0.081       77.767       17.358        0.050      331.260       -0.839      865.760
11/29/2013  04:14:00     -105.232      -39.041       -8.565       18.999       20.240       13.185      360.949      409.677      173.837        0.681        0.047      112.241        8.582        0.006      331.209       -0.925      865.765
11/29/2013  04:15:00     -105.536      -19.887       -5.702       19.638       19.138       11.327      385.668      366.258      128.290        0.622        0.044      107.394        8.163        0.006      331.204       -0.932      865.780
11/29/2013  04:16:00      -92.953      -24.383       -1.337       27.038       18.214       13.135      731.075      331.759      172.537        0.524        0.062       96.098       13.502        0.020      331.249       -0.856      865.789
11/29/2013  04:17:00      -88.955      -39.084       -5.685       26.371       22.898       13.485      695.422      524.310      181.855        0.544        0.070       97.163        9.259        0.009      331.382       -0.638      865.794
11/29/2013  04:18:00      -93.503      -46.266       -5.672       19.732       16.625       13.398      389.334      276.387      179.502        0.588        0.042      104.324        8.650        0.007      331.366       -0.666      865.797
11/29/2013  04:19:00      -72.808      -34.239        1.685       29.781       17.743       12.421      886.908      314.831      154.289        0.392        0.068       80.456       12.951        0.026      331.408       -0.597      865.795
11/29/2013  04:20:00      -91.082      -27.879        0.075       24.013       19.927       12.508      576.605      397.067      156.451        0.510        0.057       95.253       11.459        0.014      331.412       -0.590      865.797
11/29/2013  04:21:00      -77.312      -16.350        1.112       24.724       22.482       13.720      611.291      505.420      188.230        0.378        0.065       79.022       12.541        0.025      331.424       -0.571      865.805
11/29/2013  04:22:00     -105.567      -29.089       -3.475       19.330       19.943       14.412      373.643      397.726      207.702        0.649        0.049      109.501        9.192        0.007      331.444       -0.537      865.816
11/29/2013  04:23:00      -90.741      -37.750       -5.258       17.113       23.876       10.924      292.845      570.079      119.324        0.533        0.049       98.280        5.313        0.003      331.481       -0.477      865.836
11/29/2013  04:24:00      -74.973      -36.716       -0.081       25.446       18.251       11.497      647.491      333.088      132.181        0.404        0.056       83.481        9.322        0.012      331.457       -0.517      865.864
11/29/2013  04:25:00      -31.773      -16.940        2.856       22.573       17.385       14.183      509.529      302.223      201.171        0.116        0.051       36.006       13.916        0.149      331.473       -0.489      865.886
11/29/2013  04:26:00      -29.061       -7.296       -5.760       18.011       14.282       11.145      324.404      203.976      124.214        0.079        0.033       29.962        6.103        0.041      331.406       -0.599      865.897
11/29/2013  04:27:00      -33.475      -16.011       -2.542       15.021       10.061        9.393      225.636      101.233       88.236        0.090        0.021       37.107        8.597        0.054      331.452       -0.525      865.902
11/29/2013  04:28:00      -54.811      -11.222       -7.099       10.686        7.784        6.241      114.198       60.587       38.950        0.170        0.011       55.948        1.433        0.001      331.485       -0.469      865.902
11/29/2013  04:29:00      -68.284       -8.886       -9.969        7.349        7.895        6.853       54.011       62.336       46.970        0.250        0.008       68.859        3.982        0.003      331.534       -0.390      865.910
11/29/2013  04:30:00      -61.039      -11.026      -11.098        7.638        6.367        7.841       58.338       40.543       61.476        0.207        0.008       62.027        3.035        0.002      331.538       -0.381      865.914
11/29/2013  04:31:00      -52.723      -10.005       -6.678        7.998        6.924        8.660       63.969       47.942       74.995        0.156        0.009       53.664        3.674        0.005      331.608       -0.267      865.926
11/29/2013  04:32:00      -44.205      -21.690       -3.591        8.492        6.932        5.442       72.121       48.052       29.611        0.129        0.007       49.240        2.718        0.003      331.626       -0.237      865.943
11/29/2013  04:33:00      -42.172      -15.316       -9.413        8.675        8.829        5.596       75.254       77.947       31.314        0.114        0.009       44.867        2.889        0.004      331.646       -0.203      865.955
11/29/2013  04:34:00      -29.428      -10.413       -1.047       12.043        9.073        7.459      145.026       82.319       55.634        0.063        0.014       31.216        6.347        0.041      331.640       -0.212      865.967
11/29/2013  04:35:00      -35.061      -12.069       -6.539       16.913        6.437        9.261      286.050       41.433       85.770        0.092        0.021       37.080        7.775        0.044      331.657       -0.185      865.982
11/29/2013  04:36:00      -39.853      -16.939      -12.297        9.103        8.719       11.156       82.868       76.018      124.460        0.115        0.014       43.303        7.987        0.034      331.666       -0.172      865.988
11/29/2013  04:37:00      -54.185      -18.426       -5.012        7.427        7.894        4.451       55.162       62.316       19.814        0.172        0.007       57.233        1.161        0.000      331.561       -0.346      865.998
11/29/2013  04:38:00      -42.060      -18.200       -0.468       17.416       12.341        6.820      303.327      152.296       46.519        0.130        0.025       45.829        5.386        0.014      331.506       -0.436      866.013
11/29/2013  04:39:00      -61.385      -23.914        1.086       17.787       19.564       11.986      316.363      382.734      143.652        0.259        0.042       65.879        7.377        0.013      331.414       -0.588      866.022
11/29/2013  04:40:00      -51.485      -31.831        2.497       23.656       12.161       10.284      559.602      147.889      105.759        0.224        0.041       60.531        6.979        0.013      331.328       -0.728      866.037
11/29/2013  04:41:00      -61.145      -16.627       -5.689       23.392       11.689       11.630      547.192      136.639      135.251        0.243        0.041       63.366        7.835        0.015      331.346       -0.697      866.046
11/29/2013  04:42:00      -41.590       -3.282       -7.664       18.715       12.939       10.919      350.255      167.428      119.228        0.122        0.032       41.719        6.573        0.025      331.347       -0.696      866.053
11/29/2013  04:43:00      -37.899      -21.230        0.838       13.548       17.995        9.875      183.545      323.815       97.525        0.125        0.030       43.440        7.096        0.027      331.316       -0.748      866.056
11/29/2013  04:44:00      -43.326      -20.038        1.034       21.570       14.840        9.369      465.275      220.239       87.773        0.153        0.039       47.735       10.057        0.044      331.288       -0.794      866.059
11/29/2013  04:45:00      -42.970      -12.701        0.611       21.838       12.577        9.525      476.884      158.188       90.717        0.137        0.036       44.808        9.636        0.046      331.245       -0.864      866.064
11/29/2013  04:46:00      -70.561        9.018       -5.790       20.301        8.726        8.673      412.131       76.151       75.227        0.283        0.028       71.135        6.690        0.009      331.172       -0.985      866.074
11/29/2013  04:47:00      -70.629       19.760       -6.136       14.758       11.259        9.444      217.800      126.754       89.192        0.293        0.022       73.341        7.015        0.009      331.099       -1.105      866.099
11/29/2013  04:48:00      -62.401       14.291       -2.087       18.831       14.190        7.654      354.601      201.360       58.591        0.236        0.031       64.017        5.722        0.008      331.106       -1.091      866.126
11/29/2013  04:49:00      -47.730        9.206       -5.661       17.333       15.600       13.588      300.443      243.352      184.624        0.156        0.036       48.610        9.295        0.037      331.109       -1.090      866.152
11/29/2013  04:50:00      -64.400        5.383       -8.136       21.701       17.847       11.078      470.951      318.508      122.725        0.258        0.046       64.625        8.867        0.019      331.076       -1.144      866.169
11/29/2013  04:51:00      -76.936       -2.454       -8.560       27.114       25.500       17.198      735.142      650.254      295.756        0.384        0.084       76.975       13.171        0.029      331.104       -1.096      866.179
11/29/2013  04:52:00      -53.422        3.775       -1.456       27.963       30.730       21.269      781.916      944.316      452.359        0.252        0.109       53.555       18.956        0.125      331.062       -1.164      866.184
11/29/2013  04:53:00      -57.331       -4.133       -5.336       33.708       28.742       17.698     1136.244      826.082      313.205        0.280        0.114       57.480       13.177        0.053      331.026       -1.225      866.179
11/29/2013  04:54:00      -81.270       20.493      -10.362       44.603       24.816       25.263     1989.390      615.851      638.244        0.519        0.162       83.814       17.675        0.044      331.017       -1.238      866.183
11/29/2013  04:55:00      -90.816       16.147       -1.778       52.216       29.289       20.168     2726.528      857.827      406.749        0.625        0.200       92.240       21.110        0.052      331.070       -1.152      866.190
11/29/2013  04:56:00      -73.415       -4.232      -10.253       42.556       25.190       19.558     1811.040      634.558      382.522        0.417        0.141       73.537       21.997        0.089      331.045       -1.194      866.197
11/29/2013  04:57:00      -59.518      -11.966       -8.128       22.889       18.439       14.463      523.899      339.997      209.177        0.241        0.054       60.709        9.724        0.026      331.084       -1.131      866.204
11/29/2013  04:58:00      -56.653      -20.973       -9.368       17.350       13.725       10.826      301.031      188.366      117.211        0.217        0.030       60.410        5.628        0.009      331.052       -1.182      866.214
11/29/2013  04:59:00      -55.532      -28.861       -8.579       12.969       11.948       15.509      168.193      142.754      240.514        0.227        0.028       62.584       10.129        0.026      330.991       -1.281      866.232
11/29/2013  05:00:00      -33.103      -23.560      -12.237       20.992       10.054        8.676      440.653      101.090       75.270        0.121        0.031       40.631        3.881        0.009      331.091       -1.117      866.250
11/29/2013  05:01:00      -47.392      -25.152      -11.127       10.878        7.522        8.421      118.323       56.579       70.909        0.162        0.012       53.653        4.427        0.007      331.084       -1.130      866.259
11/29/2013  05:02:00      -46.166      -29.304      -11.601       13.294        7.215        6.473      176.735       52.058       41.897        0.170        0.014       54.681        4.444        0.007      331.104       -1.095      866.267
11/29/2013  05:03:00      -51.209      -18.188      -12.405        7.690        7.553        5.394       59.130       57.042       29.092        0.163        0.007       54.343        2.495        0.002      331.062       -1.165      866.278
11/29/2013  05:04:00      -22.132        1.585       -7.152       16.154        7.656        7.595      260.946       58.621       57.684        0.046        0.019       22.188        8.323        0.141      331.273       -0.818      866.284
11/29/2013  05:05:00       -2.965        8.390        1.932        8.394        7.784        4.445       70.453       60.591       19.762        0.012        0.008        8.899        1.880        0.045      331.502       -0.442      866.295
11/29/2013  05:06:00      -11.755       -4.210        3.173        8.572       11.063        5.076       73.483      122.401       25.770        0.019        0.011       12.486        3.887        0.097      331.297       -0.778      866.299
11/29/2013  05:07:00       -6.967      -15.497        6.331        5.807        6.931        7.487       33.727       48.032       56.056        0.023        0.007       16.991        3.597        0.045      331.350       -0.691      866.306
11/29/2013  05:08:00      -26.591      -14.226      -10.400        9.038        7.485        6.903       81.689       56.018       47.648        0.060        0.009       30.157        5.185        0.030      331.171       -0.986      866.305
11/29/2013  05:09:00      -67.216      -12.785       -9.152       16.307        8.433        8.442      265.914       71.112       71.263        0.259        0.020       68.421        5.386        0.006      331.028       -1.224      866.316
11/29/2013  05:10:00      -83.172      -10.656       -7.694       11.804       11.938       11.392      139.330      142.512      129.776        0.375        0.021       83.851        8.843        0.011      330.960       -1.334      866.333
11/29/2013  05:11:00      -80.337      -21.244      -11.942       12.873        8.570        7.270      165.719       73.443       52.847        0.367        0.015       83.099        6.402        0.006      330.981       -1.300      866.340
11/29/2013  05:12:00      -86.268      -26.766      -14.973        7.347        9.967        8.317       53.972       99.347       69.170        0.430        0.011       90.325        3.905        0.002      330.946       -1.355      866.344
11/29/2013  05:13:00     -104.899      -16.385      -19.131       18.191       11.878       10.593      330.926      141.082      112.206        0.611        0.029      106.171        8.588        0.007      330.874       -1.474      866.345
11/29/2013  05:14:00     -116.874      -12.598      -17.500       11.873       11.516       10.852      140.962      132.618      117.773        0.726        0.020      117.551        4.384        0.001      330.884       -1.456      866.343
11/29/2013  05:15:00     -118.463      -13.005      -14.387       15.621       12.212       10.474      244.030      149.144      109.707        0.746        0.025      119.175        7.257        0.004      330.897       -1.436      866.352
11/29/2013  05:16:00     -107.550      -19.909      -15.359       12.469       13.872        7.878      155.474      192.440       62.055        0.630        0.020      109.377        2.795        0.001      330.916       -1.405      866.375
11/29/2013  05:17:00      -95.546      -12.593      -15.224       15.281       11.945       10.273      233.494      142.678      105.535        0.500        0.024       96.372        8.251        0.007      330.998       -1.271      866.390
11/29/2013  05:18:00     -104.204       -4.661      -12.529        8.805        6.278        6.267       77.523       39.416       39.273        0.560        0.008      104.308        2.730        0.001      331.125       -1.062      866.398
11/29/2013  05:19:00     -111.555       -4.812      -11.214        5.251        8.131        4.596       27.571       66.120       21.119        0.635        0.006      111.658        2.557        0.001      331.188       -0.957      866.396
11/29/2013  05:20:00      -99.137       -7.515       -8.304       21.212       13.015       10.057      449.943      169.380      101.144        0.534        0.036       99.421       10.766        0.012      331.113       -1.081      866.397
11/29/2013  05:21:00      -85.008      -18.229       -3.254       24.396       14.612       11.083      595.183      213.520      122.831        0.425        0.047       86.941       10.035        0.013      331.042       -1.199      866.386
11/29/2013  05:22:00      -95.751      -17.020       -5.897       16.083       13.974       13.576      258.676      195.275      184.314        0.507        0.032       97.252       11.653        0.014      331.028       -1.220      866.379
11/29/2013  05:23:00      -87.946      -22.506       -9.858       21.421       12.510       12.256      458.854      156.494      150.205        0.455        0.038       90.780       10.171        0.013      331.020       -1.233      866.374
11/29/2013  05:24:00      -95.451      -25.880       -9.641       15.380       10.116        9.066      236.543      102.325       82.188        0.515        0.021       98.897        7.865        0.006      331.056       -1.175      866.361
11/29/2013  05:25:00     -105.602      -35.884      -12.703       11.840       10.446        9.334      140.197      109.115       87.116        0.647        0.017      111.532        3.040        0.001      331.029       -1.220      866.357
11/29/2013  05:26:00     -108.819      -32.450      -13.973       11.581       12.805        8.058      134.111      163.978       64.927        0.673        0.018      113.554        2.720        0.001      331.030       -1.218      866.344
11/29/2013  05:27:00      -97.147      -30.046      -10.877       14.967       14.181        9.207      224.019      201.096       84.763        0.548        0.025      101.687        6.230        0.004      331.067       -1.158      866.345
11/29/2013  05:28:00      -87.702      -23.887       -6.588       14.420       12.011       10.205      207.932      144.257      104.137        0.438        0.023       90.897        6.409        0.005      331.054       -1.180      866.348
11/29/2013  05:29:00      -91.271      -18.114      -11.222       11.204       12.894        8.355      125.523      166.266       69.814        0.457        0.018       93.052        4.921        0.003      331.076       -1.142      866.358
11/29/2013  05:30:00      -77.605      -10.679       -3.021       30.724       12.727       10.197      943.959      161.981      103.986        0.368        0.060       78.336       12.624        0.026      331.011       -1.250      866.369
11/29/2013  05:31:00     -122.060      -10.135      -13.937        9.611        9.111        8.214       92.370       83.016       67.462        0.772        0.012      122.480        5.351        0.002      330.957       -1.336      866.376
11/29/2013  05:32:00     -113.120       -2.546      -18.809       18.839       14.601       12.008      354.916      213.179      144.190        0.693        0.036      113.149        8.450        0.006      330.838       -1.532      866.394
11/29/2013  05:33:00     -107.465      -10.830      -12.196       12.193       12.651       11.227      148.668      160.055      126.035        0.612        0.022      108.010        4.432        0.002      330.829       -1.548      866.415
11/29/2013  05:34:00      -93.864      -24.476      -12.574       12.581       15.846        9.232      158.289      251.091       85.231        0.503        0.025       97.003        5.378        0.003      330.786       -1.618      866.422
11/29/2013  05:35:00      -72.857      -24.581       -4.522       20.160       31.508       12.084      406.412      992.739      146.029        0.374        0.077       76.892        8.037        0.011      330.784       -1.624      866.425
11/29/2013  05:36:00      -71.962        2.252       -8.961       52.171       24.372       19.546     2721.794      593.984      382.029        0.448        0.185       71.997       24.932        0.120      330.925       -1.390      866.420
11/29/2013  05:37:00     -117.304       32.999      -13.265       45.785       29.890       21.926     2096.291      893.431      480.762        0.925        0.174      121.857       19.112        0.025      331.044       -1.197      866.417
11/29/2013  05:38:00      -91.231       14.237       -7.581       29.929       24.573       16.312      895.740      603.854      266.077        0.517        0.088       92.335        4.467        0.002      331.030       -1.218      866.420
11/29/2013  05:39:00      -72.367      -18.103       -7.227       22.948       23.453       15.254      526.630      550.035      232.673        0.346        0.065       74.597       14.476        0.038      331.035       -1.211      866.422
11/29/2013  05:40:00      -56.928      -24.993       -1.881       32.706       25.831       20.701     1069.702      667.226      428.538        0.302        0.108       62.173       21.538        0.120      331.035       -1.211      866.436
11/29/2013  05:41:00      -25.065      -21.867       -0.555       26.086       19.316       12.417      680.492      373.109      154.189        0.116        0.060       33.263       10.634        0.102      331.108       -1.090      866.448
11/29/2013  05:42:00      -42.589      -24.043       -4.938       21.719       14.421        9.786      471.733      207.955       95.761        0.160        0.039       48.907        8.605        0.031      330.989       -1.285      866.464
11/29/2013  05:43:00      -48.238      -12.444       -5.935       14.685       11.009       13.060      215.636      121.189      170.575        0.151        0.025       49.817        7.682        0.024      331.056       -1.176      866.483
11/29/2013  05:44:00      -54.073      -19.411      -10.402       13.784       16.083       15.028      190.006      258.673      225.835        0.204        0.034       57.451       10.909        0.036      331.086       -1.126      866.497
11/29/2013  05:45:00      -56.676       -2.696       -2.919        6.633       13.459        9.005       44.002      181.142       81.083        0.177        0.015       56.740        6.634        0.014      331.209       -0.924      866.511
11/29/2013  05:46:00      -41.986      -19.078       -3.965       15.164       22.739       10.703      229.945      517.066      114.565        0.150        0.043       46.118        4.856        0.011      331.232       -0.885      866.519
11/29/2013  05:47:00      -19.261      -13.613       -6.998       14.686        9.659        8.513      215.692       93.290       72.464        0.049        0.019       23.587        3.271        0.019      331.129       -1.055      866.520
11/29/2013  05:48:00      -30.662      -21.721       -9.645       14.584        7.949        7.938      212.686       63.192       63.005        0.092        0.017       37.576        5.142        0.019      331.154       -1.016      866.517
11/29/2013  05:49:00      -31.440      -23.906      -12.696       13.253       19.048       13.292      175.643      362.833      176.675        0.122        0.036       39.496       13.083        0.110      331.145       -1.028      866.510
11/29/2013  05:50:00      -31.955      -10.162       -2.703       15.797       11.795       12.226      249.551      139.122      149.467        0.083        0.027       33.532        7.454        0.049      331.134       -1.048      866.502
11/29/2013  05:51:00      -31.301      -15.513       -2.367       17.693       13.426       10.567      313.034      180.259      111.660        0.092        0.030       34.935        2.674        0.006      331.015       -1.244      866.503
11/29/2013  05:52:00      -24.025      -24.019        5.650       15.335       11.371       11.628      235.169      129.305      135.221        0.084        0.025       33.972       11.283        0.110      331.058       -1.172      866.511
11/29/2013  05:53:00      -13.753      -19.211        7.666        6.410        8.938        5.998       41.082       79.882       35.981        0.039        0.008       23.626        3.396        0.021      331.319       -0.743      866.515
11/29/2013  05:54:00       -5.200      -25.115        6.170        9.670        8.582        6.785       93.510       73.645       46.034        0.045        0.011       25.647        4.911        0.037      331.444       -0.536      866.516
11/29/2013  05:55:00       -7.570      -17.374        1.205       10.061        8.370       10.305      101.221       70.055      106.199        0.032        0.014       18.952        8.434        0.198      331.352       -0.687      866.521
11/29/2013  05:56:00      -10.536        6.844       -5.966       12.446       11.110       10.094      154.913      123.436      101.887        0.029        0.019       12.563        5.953        0.225      331.523       -0.407      866.523
11/29/2013  05:57:00       -5.709       -3.572       -1.845        8.063       11.751        5.410       65.016      138.091       29.267        0.014        0.012        6.735        4.289        0.406      331.412       -0.590      866.527
11/29/2013  05:58:00       -3.235       -9.942       -0.671        9.093        6.439        6.617       82.680       41.461       43.787        0.014        0.008       10.455        6.575        0.396      331.384       -0.634      866.536
11/29/2013  05:59:00       -3.787      -17.418        4.789        9.020        6.516        8.395       81.368       42.462       70.481        0.027        0.010       17.825        1.230        0.005      331.375       -0.650      866.548
11/29/2013  06:00:00       -2.871      -20.737        3.850        5.128        6.811        5.716       26.301       46.384       32.668        0.028        0.005       20.935        2.025        0.009      331.314       -0.749      866.559
11/29/2013  06:01:00        0.452       -5.465        1.902        5.770        5.118        5.081       33.290       26.194       25.820        0.006        0.004        5.483        3.222        0.345      331.295       -0.782      866.581
11/29/2013  06:02:00      -24.661      -13.282        3.879       19.348       11.356        5.467      374.359      128.962       29.888        0.067        0.027       28.010        1.687        0.004      331.157       -1.007      866.609
11/29/2013  06:03:00      -35.226      -17.962       -7.256       10.583       10.396        6.587      111.996      108.076       43.383        0.094        0.013       39.541        5.535        0.020      331.056       -1.177      866.630
11/29/2013  06:04:00      -33.842      -10.954       -4.447        8.202        8.037        5.887       67.280       64.588       34.660        0.073        0.008       35.570        2.906        0.007      331.048       -1.191      866.651
11/29/2013  06:05:00      -33.467       -6.902       -9.495        4.941        5.250        4.033       24.415       27.564       16.267        0.066        0.003       34.172        1.850        0.003      331.025       -1.228      866.662
11/29/2013  06:06:00      -50.463       -7.757       -7.013       10.063        7.003        7.339      101.260       49.037       53.856        0.143        0.010       51.056        5.382        0.011      330.960       -1.332      866.686
11/29/2013  06:07:00      -69.743      -17.345       -4.354        8.328       11.092        4.616       69.349      123.027       21.305        0.270        0.011       71.868        1.144        0.000      330.902       -1.427      866.707
11/29/2013  06:08:00      -73.783      -16.117       -9.347        9.281       14.954        8.666       86.145      223.628       75.102        0.309        0.019       75.523        6.762        0.008      330.885       -1.455      866.717
11/29/2013  06:09:00      -81.300       -4.513      -10.142       11.998       15.786       10.957      143.952      249.195      120.058        0.362        0.026       81.425        7.074        0.008      330.903       -1.424      866.718
11/29/2013  06:10:00     -101.958        0.402      -15.310        9.147        6.495        7.905       83.676       42.191       62.482        0.541        0.009      101.958        3.135        0.001      330.837       -1.536      866.731
11/29/2013  06:11:00     -111.865        5.654      -14.343        9.112        7.320        6.332       83.031       53.582       40.094        0.646        0.009      112.008        4.178        0.001      330.981       -1.300      866.749
11/29/2013  06:12:00     -100.489       -1.898      -10.884       13.340       13.170        9.827      177.957      173.445       96.579        0.533        0.022      100.507        7.952        0.006      330.927       -1.387      866.749
11/29/2013  06:13:00      -75.520       -5.234       -9.172       33.584       14.735       12.453     1127.863      217.119      155.074        0.366        0.075       75.701       15.608        0.043      330.886       -1.453      866.750
11/29/2013  06:14:00      -87.028      -12.865      -11.825       18.253       15.601       12.298      333.178      243.389      151.239        0.430        0.036       87.974       10.221        0.013      330.832       -1.543      866.749
11/29/2013  06:15:00      -87.712       -5.405      -12.747       19.926       17.901       12.293      397.061      320.463      151.118        0.438        0.043       87.878        9.296        0.011      330.835       -1.537      866.759
11/29/2013  06:16:00      -51.694       -6.358       -7.222       21.637       10.975       10.826      468.168      120.442      117.198        0.174        0.035       52.083        8.459        0.026      330.828       -1.549      866.773
11/29/2013  06:17:00      -63.105       -2.515       -2.735       22.994       15.414       12.718      528.746      237.589      161.748        0.246        0.046       63.156       13.156        0.043      330.889       -1.448      866.788
11/29/2013  06:18:00      -77.103       -2.221       -9.677       23.604       14.241       10.909      557.165      202.805      119.017        0.346        0.044       77.135       11.692        0.023      330.872       -1.476      866.804
11/29/2013  06:19:00      -67.832       -1.364      -10.008       25.270       11.391       12.654      638.559      129.749      160.117        0.282        0.046       67.846       14.456        0.045      330.866       -1.486      866.808
11/29/2013  06:20:00      -83.232        4.174       -8.657       28.484       11.131       13.114      811.328      123.906      171.980        0.406        0.055       83.337       14.933        0.032      330.842       -1.526      866.819
11/29/2013  06:21:00      -72.918      -14.281       -2.051       25.683       17.246       15.200      659.593      297.425      231.040        0.336        0.059       74.303       16.800        0.051      330.819       -1.566      866.826
11/29/2013  06:22:00      -49.880      -14.519       -6.260       14.226       12.238       11.259      202.387      149.775      126.765        0.161        0.024       51.950        8.416        0.026      330.845       -1.521      866.830
11/29/2013  06:23:00      -57.738       -7.738       -8.152       14.133        9.979        8.154      199.756       99.571       66.480        0.191        0.018       58.254        7.384        0.016      330.864       -1.490      866.837
11/29/2013  06:24:00      -57.059       -9.941      -10.249        5.330        5.801        4.154       28.407       33.650       17.259        0.177        0.004       57.918        2.625        0.002      330.995       -1.276      866.845
11/29/2013  06:25:00      -49.798      -11.775       -6.895        7.430        5.889        7.490       55.200       34.682       56.106        0.141        0.007       51.171        2.602        0.003      331.070       -1.153      866.851
11/29/2013  06:26:00      -40.247      -14.897       -9.654        5.372        6.711        6.146       28.861       45.037       37.773        0.102        0.006       42.915        3.334        0.006      331.084       -1.130      866.866
11/29/2013  06:27:00      -43.886      -17.812       -6.308        4.924        5.430        5.155       24.242       29.485       26.576        0.118        0.004       47.364        2.352        0.002      331.177       -0.975      866.879
11/29/2013  06:28:00      -43.412      -18.117       -7.243        5.787        4.431        4.609       33.490       19.635       21.247        0.117        0.004       47.041        2.991        0.004      331.223       -0.899      866.887
11/29/2013  06:29:00      -48.199      -14.913       -6.352        5.191        6.822        6.261       26.945       46.544       39.198        0.135        0.006       50.454        3.794        0.006      331.073       -1.146      866.895
11/29/2013  06:30:00      -49.427       -7.290       -6.204        5.275        7.903        5.549       27.821       62.450       30.787        0.133        0.006       49.962        2.307        0.002      331.068       -1.155      866.905
11/29/2013  06:31:00      -56.925       -4.217       -5.826        6.026        7.351        6.062       36.307       54.030       36.743        0.171        0.006       57.081        4.239        0.006      331.110       -1.088      866.916
11/29/2013  06:32:00      -43.056       -2.658       -3.936        6.232        8.546        7.175       38.836       73.027       51.474        0.102        0.008       43.138        3.131        0.005      331.069       -1.154      866.927
11/29/2013  06:33:00      -46.745       -9.312       -8.561        8.267        7.899        5.495       68.335       62.400       30.197        0.125        0.008       47.663        2.363        0.002      331.035       -1.212      866.941
11/29/2013  06:34:00      -36.841       -3.084       -0.228       12.617        9.637        6.528      159.183       92.864       42.619        0.083        0.015       36.970        4.023        0.012      331.037       -1.208      866.952
11/29/2013  06:35:00      -33.286      -16.790       -3.903       12.379       11.879        8.118      153.235      141.100       65.896        0.088        0.018       37.281        4.856        0.017      331.043       -1.197      866.957
11/29/2013  06:36:00      -27.984        0.859      -13.841       17.055        7.577        4.332      290.859       57.410       18.766        0.067        0.018       27.997        3.161        0.013      331.127       -1.059      866.969
11/29/2013  06:37:00      -31.824        3.009       -1.738       11.389        7.466        6.838      129.718       55.734       46.764        0.063        0.012       31.965        5.448        0.029      331.173       -0.983      866.980
11/29/2013  06:38:00      -43.312       -5.135        3.787        8.277        8.129        6.335       68.505       66.087       40.127        0.105        0.009       43.616        2.734        0.004      331.164       -0.996      866.983
11/29/2013  06:39:00      -51.401       -1.543       -7.302       12.006        6.906        7.416      144.134       47.698       54.995        0.147        0.012       51.424        3.756        0.005      331.107       -1.091      866.993
11/29/2013  06:40:00      -75.450       -3.329       -8.499       13.585        9.615        8.700      184.555       92.455       75.694        0.306        0.018       75.524        2.955        0.002      330.996       -1.275      867.007
11/29/2013  06:41:00     -102.977        1.679      -12.081       21.976       11.636        9.454      482.956      135.396       89.377        0.573        0.035      102.990        5.014        0.002      330.892       -1.443      867.016
11/29/2013  06:42:00     -101.036      -15.976       -8.113       20.142       17.919       12.398      405.708      321.082      153.703        0.570        0.044      102.292       11.567        0.013      330.807       -1.584      867.018
11/29/2013  06:43:00      -97.953      -33.042       -7.828       16.210       19.325       15.761      262.774      373.458      248.401        0.582        0.044      103.375       11.797        0.013      330.653       -1.837      867.027
11/29/2013  06:44:00      -84.048      -25.613       -6.388       26.643       21.829       14.597      709.859      476.492      213.059        0.458        0.070       87.864       11.269        0.016      330.554       -1.999      867.033
11/29/2013  06:45:00      -43.873        5.402      -10.345       26.927       27.762       15.538      725.088      770.712      241.417        0.190        0.087       44.204       12.494        0.080      330.572       -1.970      867.042
11/29/2013  06:46:00      -28.637       -3.580      -12.080       24.074       21.718       17.745      579.569      471.691      314.877        0.117        0.068       28.860       15.751        0.298      330.647       -1.846      867.041
11/29/2013  06:47:00      -93.379       14.592       -8.441       48.370       34.846       24.300     2339.613     1214.244      590.492        0.657        0.207       94.512       22.760        0.058      330.659       -1.825      867.038
11/29/2013  06:48:00      -77.189        7.985      -10.538       39.270       28.627       18.798     1542.103      819.505      353.346        0.442        0.136       77.600        5.234        0.005      330.695       -1.769      867.037
11/29/2013  06:49:00     -158.413       37.070      -10.619       41.365       34.796       17.257     1711.027     1210.761      297.789        1.490        0.161      162.693       10.741        0.004      330.740       -1.694      867.038
11/29/2013  06:50:00     -147.475       14.947      -12.213       43.323       39.425       24.123     1876.913     1554.291      581.932        1.307        0.201      148.230       16.257        0.012      330.699       -1.761      867.057
11/29/2013  06:51:00     -130.442       11.226       -9.650       46.503       33.397       25.552     2162.489     1115.349      652.919        1.058        0.197      130.924       17.243        0.017      330.703       -1.754      867.077
11/29/2013  06:52:00     -100.294        8.514      -11.281       45.767       35.400       19.708     2094.596     1253.185      388.414        0.700        0.187      100.655       11.853        0.014      330.688       -1.778      867.090
11/29/2013  06:53:00      -92.876       16.837      -11.413       39.652       30.371       17.901     1572.296      922.414      320.450        0.593        0.141       94.390       18.044        0.037      330.755       -1.670      867.110
11/29/2013  06:54:00     -103.846        1.140      -12.060       35.224       31.130       20.104     1240.755      969.056      404.179        0.677        0.131      103.852       17.923        0.030      330.843       -1.525      867.134
11/29/2013  06:55:00     -114.886       -5.410       -7.165       34.363       24.757       19.613     1180.819      612.891      384.687        0.773        0.109      115.013       17.073        0.022      330.804       -1.588      867.155
11/29/2013  06:56:00      -91.385        6.909       -4.671       33.430       23.216       18.837     1117.580      539.004      354.844        0.522        0.101       91.646       11.231        0.015      330.690       -1.776      867.174
11/29/2013  06:57:00     -110.301      -22.551      -10.892       23.098       38.139       19.243      533.512     1454.591      370.303        0.758        0.118      112.583       12.919        0.013      330.684       -1.784      867.185
11/29/2013  06:58:00     -115.446        4.563      -10.993       43.282       31.965       22.111     1873.345     1021.738      488.889        0.843        0.169      115.536       22.696        0.039      330.679       -1.793      867.180
11/29/2013  06:59:00     -131.680        4.659      -12.014       29.570       18.779       15.077      874.373      352.641      227.311        0.948        0.073      131.763       13.247        0.010      330.654       -1.834      867.175
11/29/2013  07:00:00     -104.415      -30.035      -12.141       20.767       19.319       12.481      431.277      373.220      155.781        0.646        0.048      108.649       11.264        0.011      330.696       -1.765      867.167
11/29/2013  07:01:00      -75.823      -23.017      -12.121       25.153       20.831       17.480      632.649      433.927      305.563        0.390        0.069       79.239       16.667        0.044      330.725       -1.718      867.162
11/29/2013  07:02:00      -86.013      -29.028      -12.800        9.499        9.284        8.729       90.231       86.196       76.195        0.433        0.013       90.779        3.995        0.002      330.797       -1.602      867.161
11/29/2013  07:03:00      -82.460      -30.058       -8.527       13.492       14.515       11.270      182.025      210.679      127.020        0.415        0.026       87.768        6.754        0.006      330.817       -1.567      867.159
11/29/2013  07:04:00      -88.257      -19.441       -5.371       15.662       11.837        9.389      245.298      140.124       88.153        0.433        0.024       90.373        8.361        0.009      330.844       -1.523      867.159
11/29/2013  07:05:00      -85.458      -23.442       -4.287       17.255       15.630       10.011      297.740      244.299      100.215        0.426        0.032       88.615        6.870        0.006      330.930       -1.381      867.163
11/29/2013  07:06:00      -86.954      -11.758       -5.114       15.758       10.820       12.219      248.312      117.064      149.315        0.412        0.026       87.745        9.838        0.013      330.914       -1.408      867.180
11/29/2013  07:07:00      -64.192      -21.377       -2.814       17.923       12.990       10.402      321.225      168.752      108.195        0.259        0.030       67.658        7.919        0.014      330.890       -1.448      867.192
11/29/2013  07:08:00      -54.554      -24.710       -2.420       16.765       10.794        9.863      281.067      116.515       97.285        0.204        0.025       59.889        8.949        0.022      330.964       -1.326      867.207
11/29/2013  07:09:00      -54.749       -3.805       -3.089       15.467       14.186       10.337      239.233      201.232      106.852        0.178        0.027       54.881        8.044        0.021      330.893       -1.441      867.223
11/29/2013  07:10:00      -59.634       -6.410       -3.221       17.007       12.276        8.882      289.241      150.696       78.886        0.206        0.026       59.978        7.839        0.017      330.917       -1.402      867.232
11/29/2013  07:11:00      -49.436       -0.764       -5.114        9.691        7.976        5.593       93.920       63.622       31.281        0.133        0.009       49.442        3.144        0.004      330.976       -1.306      867.234
11/29/2013  07:12:00      -63.852       -9.258       -5.787       14.733       10.121        7.350      217.066      102.427       54.020        0.228        0.019       64.520        6.780        0.011      330.995       -1.274      867.233
11/29/2013  07:13:00      -77.916       -3.796       -0.937       14.716       11.693        9.819      216.553      136.722       96.405        0.327        0.022       78.009        9.158        0.014      330.902       -1.427      867.223
11/29/2013  07:14:00      -77.805       -1.301       -4.267       19.040       10.349       10.291      362.507      107.099      105.907        0.332        0.029       77.816       10.346        0.018      330.916       -1.404      867.223
11/29/2013  07:15:00      -78.990       -7.034       -8.186       26.702       11.629       12.736      713.005      135.227      162.215        0.368        0.051       79.303       14.966        0.036      330.934       -1.374      867.226
11/29/2013  07:16:00     -100.802      -18.256       -6.521       20.330       14.115       14.793      413.290      199.231      218.834        0.568        0.042      102.442       13.621        0.018      330.956       -1.340      867.234
11/29/2013  07:17:00      -73.624      -23.274       -3.713       18.338       16.682       13.560      336.271      278.294      183.878        0.339        0.040       77.215       10.536        0.019      330.817       -1.568      867.257
11/29/2013  07:18:00      -54.486      -27.313      -10.783       12.778       14.306       13.797      163.278      204.667      190.348        0.219        0.028       60.949        9.779        0.026      330.734       -1.704      867.286
11/29/2013  07:19:00      -50.179      -28.457      -13.607       13.169       13.929        9.835      173.427      194.021       96.726        0.199        0.023       57.687        5.271        0.008      330.675       -1.800      867.308
11/29/2013  07:20:00      -71.596      -29.717      -11.112       21.910       23.458       17.253      480.048      550.265      297.681        0.373        0.066       77.519       12.183        0.025      330.693       -1.772      867.310
11/29/2013  07:21:00      -33.073      -14.913        4.553       40.017       33.493       19.446     1601.349     1121.748      378.161        0.222        0.155       36.280       16.234        0.200      330.803       -1.590      867.317
11/29/2013  07:22:00      -81.140      -26.552       -8.234       35.386       36.576       19.861     1252.144     1337.800      394.455        0.517        0.149       85.374        5.482        0.004      330.773       -1.641      867.321
11/29/2013  07:23:00     -103.012      -34.443       -1.554       28.489       23.723       12.643      811.597      562.801      159.836        0.667        0.077      108.618        8.152        0.006      330.706       -1.751      867.316
11/29/2013  07:24:00     -114.595      -31.377       -5.093       16.116       18.747        9.586      259.733      351.450       91.890        0.742        0.035      118.813        4.128        0.001      330.668       -1.812      867.300
11/29/2013  07:25:00      -87.532      -40.670       -2.088       26.263       13.980       12.120      689.768      195.440      146.891        0.518        0.052       96.519        9.310        0.009      330.705       -1.751      867.288
11/29/2013  07:26:00      -66.132      -53.591        1.408       16.514       15.455       11.044      272.705      238.856      121.969        0.394        0.032       85.120       10.818        0.016      330.814       -1.572      867.300
11/29/2013  07:27:00      -78.778      -36.714       -5.540       14.383       17.030       10.350      206.858      290.032      107.124        0.409        0.030       86.913        7.560        0.008      330.843       -1.526      867.301
11/29/2013  07:28:00      -84.050      -28.629       -2.431       17.172       11.590       10.430      294.889      134.319      108.793        0.421        0.027       88.793        8.424        0.009      330.906       -1.419      867.318
11/29/2013  07:29:00      -72.895      -28.262       -8.784       11.292       11.795        8.884      127.505      139.128       78.921        0.327        0.017       78.182        6.502        0.007      330.967       -1.322      867.344
11/29/2013  07:30:00      -75.306      -19.360       -5.017       14.570       12.641       10.535      212.277      159.791      110.984        0.328        0.024       77.755        6.644        0.007      331.011       -1.250      867.354
11/29/2013  07:31:00      -52.865      -24.897        3.545       20.977       12.586       11.157      440.035      158.412      124.475        0.207        0.036       58.435       10.048        0.030      331.093       -1.115      867.371
11/29/2013  07:32:00      -59.646      -20.946       -4.363       16.518       20.334       10.616      272.842      413.467      112.706        0.241        0.040       63.217        9.094        0.021      331.211       -0.920      867.378
11/29/2013  07:33:00      -66.245      -27.913       -5.992       14.492       15.635        8.994      210.021      244.447       80.892        0.287        0.027       71.885        9.202        0.016      331.224       -0.898      867.378
11/29/2013  07:34:00      -72.401      -16.694       -8.577       10.627       11.295        7.689      112.932      127.573       59.124        0.295        0.015       74.300        4.494        0.004      331.204       -0.930      867.362
11/29/2013  07:35:00      -68.138      -29.450       -6.770        9.981        9.745        7.570       99.618       94.966       57.307        0.290        0.013       74.230        3.108        0.002      331.220       -0.905      867.353
11/29/2013  07:36:00      -59.921      -18.923       -4.161       13.476       11.284        8.146      181.615      127.333       66.356        0.217        0.019       62.837        5.773        0.008      331.228       -0.892      867.345
11/29/2013  07:37:00      -59.871      -23.289        5.064       18.076       13.683       12.228      326.757      187.235      149.524        0.241        0.033       64.241        9.454        0.022      331.254       -0.848      867.354
11/29/2013  07:38:00      -63.637      -37.526       -1.818       18.402        7.417        9.642      338.629       55.015       92.971        0.297        0.024       73.878       10.948        0.022      331.233       -0.883      867.350
11/29/2013  07:39:00      -84.984      -27.236       -9.070       13.183       15.411        8.434      173.781      237.509       71.139        0.426        0.024       89.241        4.849        0.003      331.251       -0.852      867.353
11/29/2013  07:40:00      -89.598      -23.027       -3.235       18.841       15.166       12.511      354.978      230.004      156.535        0.465        0.037       92.510        9.823        0.011      331.266       -0.829      867.359
11/29/2013  07:41:00      -99.896      -20.445        0.883       26.034       14.628       14.031      677.791      213.978      196.865        0.574        0.054      101.966       15.096        0.022      331.261       -0.837      867.365
11/29/2013  07:42:00      -61.031      -15.409        1.999       28.643       17.890       15.151      820.442      320.045      229.548        0.267        0.069       62.946       16.280        0.067      331.302       -0.769      867.373
11/29/2013  07:43:00      -76.998      -36.634        4.146       24.994       19.700       14.506      624.716      388.103      210.422        0.426        0.061       85.269       11.560        0.018      331.337       -0.711      867.384
11/29/2013  07:44:00      -74.133      -30.072        3.994       31.035       23.606       13.312      963.193      557.254      177.207        0.406        0.085       80.000       15.217        0.036      331.350       -0.691      867.393
11/29/2013  07:45:00      -68.451      -35.002        4.167       26.854       15.754       14.618      721.131      248.177      213.673        0.356        0.059       76.880       13.368        0.030      331.424       -0.569      867.402
11/29/2013  07:46:00      -60.494      -34.600        2.865       23.154       18.762       15.943      536.110      352.022      254.163        0.300        0.057       69.690       13.660        0.038      331.419       -0.579      867.409
11/29/2013  07:47:00      -67.673      -25.074       -1.586       22.920       14.419       11.971      525.333      207.911      143.296        0.304        0.044       72.169       11.989        0.028      331.403       -0.605      867.412
11/29/2013  07:48:00      -42.130      -21.374        2.876       19.290       15.217       12.536      372.120      231.567      157.142        0.150        0.038       47.241        8.938        0.036      331.468       -0.497      867.416
11/29/2013  07:49:00       -6.861       -4.289       10.851        7.794        8.529        9.522       60.742       72.738       90.677        0.020        0.011        8.091        5.637        0.485      331.892        0.201      867.427
11/29/2013  07:50:00      -15.364       -0.438        5.270       12.914        8.326        8.775      166.784       69.330       77.008        0.029        0.016       15.370        8.795        0.327      331.848        0.129      867.438
11/29/2013  07:51:00      -23.356      -13.976       -2.437        7.257        6.109        4.632       52.663       37.323       21.452        0.043        0.006       27.219        3.561        0.017      331.634       -0.223      867.446
11/29/2013  07:52:00       -8.699       -2.057       -3.176        5.519        3.815        3.224       30.462       14.551       10.393        0.007        0.003        8.939        2.643        0.087      331.841        0.115      867.459
11/29/2013  07:53:00      -21.686        3.323       -2.824       12.757        8.013       11.632      162.734       64.216      135.305        0.043        0.018       21.939        9.147        0.174      331.874        0.171      867.471
11/29/2013  07:54:00      -14.694       20.437       -9.835        8.036        6.115        7.424       64.576       37.390       55.121        0.044        0.008       25.171        3.654        0.021      331.831        0.100      867.478
11/29/2013  07:55:00      -29.458        4.717       -7.628        5.873        4.876        4.852       34.493       23.776       23.546        0.051        0.004       29.833        2.256        0.006      331.754       -0.030      867.475
11/29/2013  07:56:00      -38.364        1.755       -5.586        5.731        7.103        5.636       32.847       50.455       31.768        0.081        0.006       38.405        3.705        0.009      331.754       -0.030      867.463
11/29/2013  07:57:00      -34.919       -4.821       -7.771        5.949        6.865        5.014       35.388       47.127       25.143        0.071        0.005       35.251        3.725        0.011      331.771        0.000      867.450
11/29/2013  07:58:00      -52.120      -14.835       -6.117       12.104        8.742        7.849      146.496       76.416       61.608        0.163        0.014       54.190        3.721        0.005      331.754       -0.024      867.434
11/29/2013  07:59:00      -51.309      -14.384       -5.353       11.246       15.225        7.401      126.480      231.807       54.770        0.164        0.021       53.287        5.836        0.012      331.715       -0.091      867.416
11/29/2013  08:00:00      -34.562      -22.289       -1.539        7.963        9.299        5.247       63.409       86.467       27.535        0.094        0.009       41.126        1.545        0.001      331.764       -0.010      867.408
11/29/2013  08:01:00      -23.305      -16.372       -3.599       11.888       15.617        7.135      141.334      243.889       50.905        0.063        0.022       28.481        4.981        0.031      331.817        0.075      867.414
11/29/2013  08:02:00      -18.502      -10.143        2.825       12.003       11.744        8.504      144.081      137.915       72.320        0.040        0.018       21.100        7.202        0.116      332.050        0.459      867.407
11/29/2013  08:03:00       -7.931       -4.555        1.583        6.047        8.204        7.928       36.569       67.310       62.850        0.013        0.008        9.146        6.302        0.475      332.108        0.555      867.410
11/29/2013  08:04:00       -5.580       -6.306        3.820        7.281        7.093        6.523       53.011       50.313       42.550        0.012        0.007        8.420        5.275        0.392      332.216        0.734      867.430
11/29/2013  08:05:00      -31.301       -1.779       -3.860       10.729        5.122        6.015      115.111       26.231       36.179        0.059        0.009       31.352        4.189        0.018      331.878        0.177      867.429
11/29/2013  08:06:00      -45.203      -19.941       -4.409        5.961        7.821        5.746       35.538       61.169       33.018        0.130        0.006       49.406        4.317        0.008      331.935        0.269      867.438
11/29/2013  08:07:00      -41.777      -16.717       -5.230       12.174       10.819        7.823      148.216      117.058       61.197        0.119        0.016       44.998        4.767        0.011      331.962        0.316      867.447
11/29/2013  08:08:00      -41.739      -26.458       -5.115        5.762        6.612        5.571       33.195       43.717       31.037        0.129        0.005       49.418        2.380        0.002      331.942        0.282      867.457
11/29/2013  08:09:00      -43.680      -17.726       -2.977        7.070        6.257        4.265       49.986       39.145       18.191        0.117        0.005       47.140        2.273        0.002      331.948        0.292      867.461
11/29/2013  08:10:00      -38.905      -19.139       -1.708       10.401        9.344        5.294      108.183       87.319       28.022        0.105        0.011       43.358        4.162        0.009      331.981        0.346      867.479
11/29/2013  08:11:00      -39.004      -11.146       -4.193        9.940        8.657        4.851       98.806       74.943       23.537        0.093        0.010       40.565        5.197        0.016      331.973        0.334      867.492
11/29/2013  08:12:00      -32.403      -15.776       -5.345        9.049        7.307        5.331       81.891       53.389       28.417        0.075        0.008       36.039        3.428        0.009      332.054        0.468      867.500
11/29/2013  08:13:00      -41.409      -10.638       -3.828        9.089       12.740        7.319       82.617      162.304       53.570        0.107        0.015       42.753        5.987        0.020      332.003        0.383      867.507
11/29/2013  08:14:00      -54.349       -0.674       -3.595       10.921       13.036        7.851      119.268      169.926       61.638        0.166        0.018       54.353        4.350        0.006      331.974        0.335      867.518
11/29/2013  08:15:00      -49.431        5.261       -5.318       11.124       15.065        6.939      123.751      226.954       48.155        0.145        0.020       49.710        5.539        0.012      332.003        0.383      867.524
11/29/2013  08:16:00      -54.828        2.744      -11.163        9.064       12.927        6.304       82.162      167.109       39.739        0.171        0.014       54.896        5.054        0.008      332.059        0.476      867.535
11/29/2013  08:17:00      -40.929       -3.799       -3.843        9.210        8.282        7.623       84.818       68.594       58.107        0.096        0.011       41.105        5.293        0.017      332.114        0.566      867.555
11/29/2013  08:18:00      -40.309       -8.901       -3.739       14.416        9.282        5.323      207.826       86.164       28.331        0.102        0.016       41.280        4.513        0.012      332.169        0.657      867.564
11/29/2013  08:19:00      -17.586      -14.751       -0.152        5.594        6.249        4.738       31.297       39.054       22.451        0.031        0.005       22.953        3.862        0.028      332.271        0.825      867.567
11/29/2013  08:20:00      -23.884       -0.244       -2.022       10.727        4.733        8.087      115.064       22.399       65.402        0.039        0.010       23.886        6.586        0.076      332.274        0.830      867.558
11/29/2013  08:21:00      -12.875       -3.002       -5.881       10.737        5.911        9.314      115.280       34.938       86.747        0.022        0.012       13.220        9.011        0.465      332.507        1.215      867.551
11/29/2013  08:22:00       -3.375       -3.919        6.089        6.281        4.953        5.708       39.457       24.535       32.583        0.008        0.005        5.172        3.148        0.370      332.889        1.847      867.550
11/29/2013  08:23:00      -28.133       -9.003       -2.160       12.023        8.525       13.736      144.552       72.676      188.683        0.064        0.020       29.538       12.310        0.174      332.490        1.185      867.543
11/29/2013  08:24:00      -22.133       -9.678        5.385       12.586        5.836        6.522      158.397       34.063       42.542        0.042        0.012       24.157        4.658        0.037      332.487        1.181      867.550
11/29/2013  08:25:00       -5.958       21.566       36.808        9.397       22.377       23.095       88.309      500.743      533.391        0.149        0.056       22.374       17.716        0.627      332.996        2.022      867.564
11/29/2013  08:26:00       18.274       48.951       63.050       29.605       26.949       15.282      876.465      726.248      233.548        0.427        0.092       52.251       13.999        0.072      332.760        1.632      867.584
11/29/2013  08:27:00       38.551       41.221       32.627       23.228       17.136       23.522      539.537      293.646      553.295        0.282        0.069       56.439       15.809        0.078      332.666        1.479      867.602
11/29/2013  08:28:00        2.157       40.068       56.954       18.175       29.314       17.899      330.331      859.330      320.379        0.318        0.076       40.126       16.597        0.171      332.982        2.000      867.612
11/29/2013  08:29:00       54.046       67.290       48.935       42.322       26.931       34.208     1791.180      725.305     1170.166        0.676        0.184       86.308       31.556        0.134      332.617        1.396      867.627
11/29/2013  08:30:00       49.404       40.243       21.886       29.561       21.931       28.173      873.839      480.965      793.731        0.334        0.107       63.720       18.313        0.083      332.585        1.342      867.639
11/29/2013  08:31:00       17.520       46.180       37.023       18.085       18.529       23.809      327.067      343.316      566.881        0.252        0.062       49.392       10.367        0.044      332.857        1.792      867.655
11/29/2013  08:32:00        7.402       36.869       40.557       20.429       24.671       18.216      417.363      608.678      331.823        0.221        0.068       37.605       15.289        0.165      333.071        2.148      867.669
11/29/2013  08:33:00       13.898       39.934       48.984       21.559       25.217       18.797      464.780      635.905      353.335        0.282        0.073       42.283       16.451        0.151      332.995        2.021      867.671
11/29/2013  08:34:00        0.394       32.693       56.694       19.796       22.021       16.343      391.869      484.919      267.083        0.271        0.057       32.695       14.552        0.198      333.184        2.332      867.668
11/29/2013  08:35:00       24.591       -6.926       28.427       28.073       18.550       14.202      788.069      344.119      201.709        0.140        0.067       25.547       13.311        0.271      333.185        2.335      867.656
11/29/2013  08:36:00       -7.559       28.325       59.215        9.866       22.189       17.526       97.344      492.339      307.169        0.263        0.045       29.316       17.441        0.354      333.314        2.547      867.658
11/29/2013  08:37:00       -3.482       56.113       69.414       17.876       25.720       18.564      319.539      661.499      344.613        0.465        0.066       56.221       19.487        0.120      333.152        2.280      867.658
11/29/2013  08:38:00       62.083       57.946       41.980       45.903       32.286       31.147     2107.061     1042.365      970.133        0.655        0.206       84.924       27.393        0.104      332.886        1.841      867.665
11/29/2013  08:39:00       53.115       60.272       30.230       30.402       27.461       32.269      924.267      754.104     1041.312        0.504        0.136       80.336       27.327        0.116      332.724        1.572      867.663
11/29/2013  08:40:00       61.979       66.309       35.271       22.953       20.211       28.474      526.830      408.480      810.762        0.561        0.087       90.765       17.619        0.038      332.768        1.646      867.662
11/29/2013  08:41:00       88.480       68.775       38.783       14.640       13.330       16.640      214.322      177.694      276.895        0.737        0.033      112.066        9.241        0.007      332.649        1.449      867.660
11/29/2013  08:42:00       65.532       78.848       54.033       53.969       33.098       43.864     2912.636     1095.484     1924.069        0.968        0.297      102.526       42.222        0.170      332.815        1.723      867.655
11/29/2013  08:43:00       97.887       76.711       51.260       42.688       46.948       39.171     1822.241     2204.133     1534.372        1.183        0.278      124.364       27.828        0.050      332.761        1.635      867.658
11/29/2013  08:44:00      103.624      109.269       72.008       30.387       21.796       34.108      923.360      475.053     1163.334        1.521        0.128      150.591       20.310        0.018      332.708        1.546      867.662
11/29/2013  08:45:00       49.143       83.372       86.313       27.651       33.766       19.353      764.584     1140.169      374.534        0.955        0.114       96.778       19.555        0.041      332.834        1.755      867.668
11/29/2013  08:46:00       69.199       92.451       85.816       49.629       37.000       35.465     2463.022     1369.001     1257.798        1.289        0.254      115.481       30.043        0.068      332.787        1.677      867.661
11/29/2013  08:47:00       69.127      102.747       83.678       35.613       47.701       31.753     1268.313     2275.381     1008.281        1.344        0.228      123.836       22.903        0.034      332.770        1.649      867.652
11/29/2013  08:48:00       19.165       90.338       91.439       31.411       34.369       26.625      986.638     1181.208      708.908        0.988        0.144       92.348       25.174        0.074      332.774        1.656      867.650
11/29/2013  08:49:00       -2.028       66.406       93.613       30.033       45.216       36.183      901.969     2044.470     1309.225        0.872        0.213       66.437       21.645        0.106      333.072        2.148      867.645
11/29/2013  08:50:00       20.901       96.432      104.572       33.866       34.741       22.282     1146.883     1206.940      496.500        1.176        0.143       98.671       22.945        0.054      332.805        1.706      867.663
11/29/2013  08:51:00       51.227       91.368       90.433       35.875       33.394       21.673     1287.045     1115.159      469.724        1.101        0.144      104.749       13.779        0.017      332.938        1.927      867.668
11/29/2013  08:52:00       47.373       71.237       90.139       43.378       38.618       23.335     1881.656     1491.321      544.538        0.968        0.196       85.551       20.086        0.055      333.039        2.096      867.672
11/29/2013  08:53:00       27.229       89.378       91.270       47.195       45.763       26.833     2227.372     2094.279      720.021        1.105        0.252       93.433       23.002        0.061      332.911        1.880      867.689
11/29/2013  08:54:00        5.889       81.946       99.167       28.122       46.732       24.342      790.868     2183.916      592.509        1.007        0.178       82.157       25.567        0.097      333.063        2.133      867.701
11/29/2013  08:55:00      102.792       92.527       65.111       64.024       29.782       43.144     4099.084      886.989     1861.419        1.511        0.342      138.302       42.466        0.094      332.772        1.653      867.729
11/29/2013  08:56:00       96.939       86.730       61.979       47.379       30.623       37.955     2244.810      937.783     1440.590        1.269        0.231      130.074       27.443        0.045      332.683        1.505      867.752
11/29/2013  08:57:00       67.892       79.023       30.827       39.916       39.194       46.096     1593.284     1536.203     2124.861        0.853        0.263      104.183       27.987        0.072      332.818        1.729      867.758
11/29/2013  08:58:00       83.791       46.780       19.306       47.958       34.592       35.093     2299.959     1196.603     1231.542        0.715        0.236       95.965       18.661        0.038      332.811        1.716      867.776
11/29/2013  08:59:00       86.349       58.253       43.708       48.706       32.027       36.495     2372.311     1025.709     1331.864        0.874        0.236      104.161       32.661        0.098      332.888        1.844      867.790
11/29/2013  09:00:00       81.622       54.146       22.197       41.393       41.425       35.332     1713.397     1716.071     1248.372        0.738        0.234       97.949       25.322        0.067      332.866        1.808      867.803
11/29/2013  09:01:00       59.686       74.057       35.540       45.006       25.832       32.926     2025.529      667.287     1084.152        0.704        0.189       95.115       26.473        0.077      332.977        1.989      867.808
11/29/2013  09:02:00       47.105       79.723       81.876       36.692       28.307       16.998     1346.291      801.268      288.937        0.886        0.122       92.599       11.949        0.017      332.956        1.956      867.825
11/29/2013  09:03:00       93.944       62.018       35.242       30.819       30.866       31.833      949.819      952.740     1013.310        0.841        0.146      112.569       23.050        0.042      332.815        1.722      867.837
11/29/2013  09:04:00       65.986       66.898       18.637       30.574       19.552       26.912      934.745      382.263      724.265        0.561        0.102       93.965       11.425        0.015      332.831        1.749      867.828
11/29/2013  09:05:00       19.548       28.885       24.929       23.912       24.977       35.436      571.805      623.869     1255.714        0.214        0.123       34.878       16.734        0.230      333.304        2.532      867.825
11/29/2013  09:06:00       43.356       59.929       20.585       37.656       22.746       26.335     1418.000      517.360      693.538        0.426        0.131       73.967       15.955        0.047      333.019        2.060      867.816
11/29/2013  09:07:00       40.026       60.550       63.666       49.632       37.819       40.349     2463.329     1430.244     1628.005        0.742        0.276       72.584       34.185        0.222      333.206        2.369      867.810
11/29/2013  09:08:00       60.536       66.060       66.663       28.536       43.475       37.587      814.326     1890.097     1412.783        0.829        0.206       89.602       28.193        0.099      333.049        2.110      867.819
11/29/2013  09:09:00       29.160       36.177       45.790       27.228       36.596       20.685      741.353     1339.257      427.850        0.338        0.125       46.466       21.446        0.213      333.226        2.403      867.825
11/29/2013  09:10:00       26.710       53.906       55.842       43.168       43.121       22.838     1863.504     1859.386      521.588        0.549        0.212       60.161       13.746        0.052      333.274        2.481      867.835
11/29/2013  09:11:00       -9.520       12.247       71.087       32.706       55.603       26.669     1069.664     3091.694      711.258        0.508        0.244       15.511       28.556        3.389      333.469        2.804      867.847
11/29/2013  09:12:00       14.452      -26.359       38.645       25.114       41.967       23.890      630.717     1761.262      570.714        0.268        0.148       30.061       17.747        0.349      333.596        3.016      867.872
11/29/2013  09:13:00       42.954       61.000       64.846       28.925       30.429       15.220      836.640      925.901      231.653        0.588        0.100       74.606        7.742        0.011      333.253        2.447      867.879
11/29/2013  09:14:00       70.013       64.054       22.389       24.065       15.624       30.254      579.117      244.116      915.283        0.562        0.087       94.893       17.482        0.034      332.994        2.019      867.884
11/29/2013  09:15:00       49.749       49.819       31.603       21.176       15.357       23.801      448.403      235.849      566.488        0.360        0.063       70.405       14.410        0.042      333.067        2.139      867.888
11/29/2013  09:16:00       66.889       56.525       22.411       16.811       10.534       20.681      282.597      110.959      427.705        0.450        0.041       87.574        5.207        0.004      333.071        2.147      867.897
11/29/2013  09:17:00       60.534       56.132       28.498       30.122       21.382       36.855      907.349      457.206     1358.296        0.517        0.136       82.554       27.119        0.108      333.191        2.344      867.910
11/29/2013  09:18:00        6.277        0.421        3.700       14.431       20.346       20.187      208.249      413.953      407.504        0.054        0.051        6.291       13.520        4.618      333.504        2.863      867.918
11/29/2013  09:19:00        4.288       17.260       47.744       14.328       23.410       15.367      205.302      548.049      236.154        0.179        0.049       17.784        9.952        0.313      334.048        3.765      867.920
11/29/2013  09:20:00       20.391       49.429       55.224       29.864       31.186       23.506      891.843      972.572      552.549        0.416        0.121       53.470       11.799        0.049      333.847        3.430      867.916
11/29/2013  09:21:00       24.165        5.881       34.516       35.006       55.412       39.885     1225.408     3070.467     1590.781        0.385        0.294       24.871       28.984        1.358      333.861        3.454      867.920
11/29/2013  09:22:00       16.978      -16.946       30.379       26.917       42.935       34.934      724.508     1843.424     1220.364        0.264        0.189       23.988       24.109        1.010      333.865        3.462      867.929
11/29/2013  09:23:00        0.720       14.289       51.448       25.940       46.537       20.343      672.862     2165.738      413.855        0.305        0.163       14.307       23.052        2.596      333.946        3.594      867.934
11/29/2013  09:24:00       33.645       41.148       39.947       35.411       23.977       38.402     1253.967      574.917     1474.698        0.386        0.165       53.152       24.661        0.215      333.678        3.151      867.945
11/29/2013  09:25:00       22.791       28.905       29.655       22.489       19.710       27.782      505.750      388.468      771.826        0.195        0.083       36.809       12.496        0.115      333.604        3.027      867.956
11/29/2013  09:26:00      109.800       57.079       23.491       45.856       41.092       31.555     2102.777     1688.590      995.724        1.033        0.239      123.750       24.326        0.039      333.542        2.925      867.947
11/29/2013  09:27:00       29.846       51.038       30.790       44.457       28.464       31.280     1976.449      810.197      978.468        0.410        0.188       59.124       24.929        0.178      334.035        3.742      867.939
11/29/2013  09:28:00       29.188       59.761        2.451       29.682       38.728       24.698      881.026     1499.845      609.989        0.371        0.150       66.508       24.223        0.133      333.847        3.431      867.937
11/29/2013  09:29:00       -6.041       25.741        9.089       24.027       48.297       26.888      577.304     2332.634      722.963        0.221        0.182       26.440       19.194        0.527      333.956        3.611      867.935
11/29/2013  09:30:00       13.294       25.493       27.580       24.401       33.744       35.673      595.433     1138.630     1272.573        0.230        0.150       28.751       27.107        0.889      334.138        3.914      867.935
11/29/2013  09:31:00       13.118       52.148       64.558       25.416       27.068       24.211      645.949      732.702      586.189        0.451        0.098       53.773       17.755        0.109      333.843        3.424      867.932
11/29/2013  09:32:00       54.424       46.544       38.552       36.161       25.179       35.015     1307.595      634.007     1226.046        0.489        0.158       71.612       18.916        0.070      333.790        3.336      867.917
11/29/2013  09:33:00       55.945       30.277       17.147       29.700       25.228       26.398      882.093      636.459      696.880        0.328        0.111       63.613       14.276        0.050      333.804        3.360      867.910
11/29/2013  09:34:00        0.996       15.175        9.005       18.042       23.165       11.371      325.508      536.639      129.297        0.065        0.050       15.208        7.924        0.272      334.075        3.810      867.904
11/29/2013  09:35:00       65.726       31.892       12.371       65.752       31.347       20.285     4323.333      982.649      411.463        0.560        0.286       73.055       23.367        0.102      334.097        3.844      867.898
11/29/2013  09:36:00       37.282       71.191        0.970       29.083       31.827       28.108      845.825     1012.965      790.055        0.455        0.132       80.363       24.092        0.090      334.108        3.864      867.894
11/29/2013  09:37:00       60.985       43.498       12.519       21.078       21.843       20.897      444.301      477.126      436.668        0.356        0.068       74.908       10.930        0.021      334.026        3.729      867.881
11/29/2013  09:38:00       33.048       41.847      -17.888       23.204       13.307       18.121      538.433      177.064      328.361        0.210        0.052       53.323       11.879        0.050      333.731        3.237      867.881
11/29/2013  09:39:00        6.294       -6.304       10.942       14.721       21.276       14.101      216.713      452.686      198.834        0.053        0.043        8.908        9.785        1.207      334.362        4.285      867.879
11/29/2013  09:40:00       37.481       41.392       26.850       43.940       33.738       28.578     1930.763     1138.230      816.679        0.386        0.194       55.841        9.916        0.032      334.290        4.166      867.881
11/29/2013  09:41:00       41.665       49.047       21.960       36.008       25.951       29.674     1296.548      673.452      880.525        0.374        0.143       64.355       16.860        0.069      334.320        4.216      867.893
11/29/2013  09:42:00       -2.288        7.089       17.325       26.331       16.190       16.869      693.332      262.131      284.552        0.080        0.062        7.449       13.683        3.374      334.661        4.780      867.900
11/29/2013  09:43:00       23.112       15.291       14.917       20.066       20.135       18.426      402.661      405.402      339.524        0.107        0.057       27.713       11.663        0.177      334.518        4.543      867.903
11/29/2013  09:44:00       32.534       57.779       61.743       35.499       41.808       37.262     1260.202     1747.868     1388.420        0.630        0.220       66.309       29.067        0.192      334.418        4.379      867.911
11/29/2013  09:45:00       49.080       70.561       39.879       33.930       34.805       36.297     1151.270     1211.398     1317.471        0.633        0.184       85.952       22.594        0.069      334.291        4.166      867.923
11/29/2013  09:46:00       63.688       56.312       17.215       39.748       28.290       32.360     1579.866      800.349     1047.180        0.547        0.171       85.013       20.683        0.059      334.297        4.178      867.935
11/29/2013  09:47:00       58.826       35.681        3.307       35.698       37.032       34.171     1274.380     1371.406     1167.668        0.428        0.191       68.802       16.971        0.061      334.371        4.300      867.953
11/29/2013  09:48:00       90.289       86.990       24.014       32.903       25.336       26.645     1082.604      641.918      709.969        0.936        0.122      125.377        6.545        0.003      334.146        3.927      867.964
11/29/2013  09:49:00       70.831       64.410       32.433       27.154       30.908       33.274      737.341      955.295     1107.148        0.651        0.140       95.737       22.119        0.053      334.349        4.264      867.965
11/29/2013  09:50:00       35.137       51.315       18.736       39.276       33.158       21.848     1542.610     1099.467      477.342        0.367        0.156       62.192       11.565        0.035      334.459        4.446      867.968
11/29/2013  09:51:00       14.249       52.658       45.569       35.910       39.535       34.072     1289.512     1563.036     1160.934        0.453        0.201       54.552       23.120        0.180      334.762        4.948      867.968
11/29/2013  09:52:00      110.868       87.127       25.523       70.152       40.537       44.478     4921.269     1643.225     1978.323        1.454        0.427      141.006       46.666        0.110      334.352        4.268      867.953
11/29/2013  09:53:00      108.724       76.358       11.794       44.252       20.094       33.190     1958.206      403.787     1101.583        1.063        0.173      132.859       31.038        0.055      334.207        4.027      867.945
11/29/2013  09:54:00       63.851       51.101       42.012       29.444       21.618       24.710      866.955      467.353      610.573        0.520        0.097       81.781       14.537        0.032      334.288        4.164      867.937
11/29/2013  09:55:00        6.070       37.083       43.474       17.512       24.628       23.207      306.661      606.522      538.566        0.238        0.073       37.576        8.590        0.052      334.651        4.764      867.930
11/29/2013  09:56:00       14.268       46.605       56.919       23.375       26.854       14.178      546.387      721.122      201.029        0.354        0.073       48.740       14.580        0.089      334.693        4.834      867.938
11/29/2013  09:57:00       27.513       50.969       59.817       32.771       24.812       14.531     1073.971      615.638      211.158        0.442        0.095       57.920        8.819        0.023      334.631        4.730      867.952
11/29/2013  09:58:00        4.750       23.226       46.084       13.686       28.648       15.086      187.303      820.688      227.586        0.196        0.062       23.707       17.987        0.576      334.887        5.157      867.952
11/29/2013  09:59:00        7.645        1.957       42.383       20.834       59.477       29.062      434.042     3537.535      844.625        0.334        0.241        7.892       35.130       19.817      335.093        5.498      867.957
11/29/2013  10:00:00       57.932       78.179       39.082       52.818       42.832       43.525     2789.784     1834.543     1894.397        0.876        0.326       97.304       38.598        0.157      334.691        4.831      867.977
11/29/2013  10:01:00       52.744       62.524       26.522       43.306       35.481       54.097     1875.417     1258.927     2926.436        0.673        0.303       81.800       33.429        0.167      334.516        4.540      867.994
11/29/2013  10:02:00       61.379      104.736       83.586       49.899       36.138       38.530     2489.862     1305.985     1484.587        1.350        0.264      121.396       33.072        0.074      334.584        4.652      868.000
11/29/2013  10:03:00       61.786      111.675       79.690       44.084       48.522       42.303     1943.412     2354.339     1789.502        1.436        0.304      127.628       30.039        0.055      334.605        4.688      868.005
11/29/2013  10:04:00       47.151       65.188       63.877       35.610       53.282       40.795     1268.069     2839.005     1664.207        0.816        0.289       80.453       40.620        0.255      334.717        4.874      868.016
11/29/2013  10:05:00       77.799        1.887        7.470       33.819       47.262       39.707     1143.691     2233.705     1576.631        0.553        0.248       77.822       33.183        0.182      334.586        4.657      868.031
11/29/2013  10:06:00       -3.637        9.926       46.680       28.648       43.433       31.700      820.693     1886.438     1004.861        0.300        0.186       10.572       26.289        6.184      335.277        5.804      868.047
11/29/2013  10:07:00        6.838       69.976       78.597       34.486       36.738       21.132     1189.263     1349.662      446.562        0.705        0.149       70.309       19.403        0.076      335.161        5.611      868.046
11/29/2013  10:08:00       91.566       84.180       65.513       83.726       62.479       53.440     7009.978     3903.569     2855.811        1.676        0.688      124.381       45.349        0.133      334.898        5.174      868.061
11/29/2013  10:09:00       40.376       91.436       86.127       48.023       40.761       40.074     2306.199     1661.430     1605.947        1.149        0.279       99.954       28.307        0.080      334.993        5.333      868.071
11/29/2013  10:10:00       44.036      114.277      104.321       45.647       45.981       43.742     2083.646     2114.265     1913.366        1.600        0.306      122.468       38.754        0.100      334.740        4.912      868.075
11/29/2013  10:11:00       23.668       75.282       93.729       31.999       40.120       20.263     1023.905     1609.648      410.584        0.903        0.152       78.915       20.930        0.070      334.886        5.152      868.096
11/29/2013  10:12:00       13.561       24.073       34.576       27.269       36.164       27.470      743.598     1307.857      754.605        0.238        0.140       27.630       15.508        0.315      335.071        5.461      868.100
11/29/2013  10:13:00       20.044      -29.659       13.594       22.869       54.144       25.532      522.992     2931.609      651.871        0.279        0.205       35.797       28.179        0.620      335.249        5.757      868.108
11/29/2013  10:14:00       19.387      -79.929       -1.583       26.397       32.075       32.940      696.781     1028.835     1085.016        0.479        0.141       82.246       21.632        0.069      335.266        5.784      868.119
11/29/2013  10:15:00       16.386      -42.589        1.123       29.563       66.455       31.039      873.992     4416.310      963.414        0.417        0.313       45.633       21.473        0.221      335.316        5.869      868.121
11/29/2013  10:16:00       16.062       34.985       56.547       30.975       38.724       30.418      959.432     1499.558      925.233        0.403        0.169       38.496       10.303        0.072      335.493        6.163      868.124
11/29/2013  10:17:00       48.442       -1.525       45.215       32.640       43.390       40.034     1065.396     1882.654     1602.720        0.447        0.228       48.466       32.144        0.440      335.376        5.969      868.138
11/29/2013  10:18:00        4.656      -28.456        9.718       38.406       30.623       27.309     1475.005      937.751      745.798        0.204        0.158       28.835       11.750        0.166      335.201        5.677      868.148
11/29/2013  10:19:00       65.962      112.622       89.326       52.112       54.575       42.944     2715.642     2978.482     1844.156        1.627        0.377      130.517       33.902        0.067      335.157        5.603      868.133
11/29/2013  10:20:00       54.315       84.310       90.943       37.891       33.875       26.749     1435.754     1147.515      715.532        1.081        0.165      100.291       24.199        0.058      335.069        5.458      868.141
11/29/2013  10:21:00       33.203       78.055       93.885       34.363       41.133       22.064     1180.795     1691.942      486.815        0.968        0.168       84.823       22.463        0.070      335.227        5.720      868.128
11/29/2013  10:22:00       83.738      118.567       93.442       42.512       43.706       42.292     1807.228     1910.191     1788.587        1.765        0.275      145.155       34.739        0.057      335.164        5.614      868.121
11/29/2013  10:23:00       36.014       -0.108       54.590       43.755       62.964       41.996     1914.485     3964.413     1763.636        0.596        0.382       36.014       42.119        1.368      335.496        6.170      868.112
11/29/2013  10:24:00       51.936       53.511       63.801       41.875       40.441       29.957     1753.556     1635.501      897.420        0.696        0.214       74.571       27.557        0.137      335.496        6.168      868.111
11/29/2013  10:25:00       54.750       50.066       63.692       77.925       54.198       40.237     6072.347     2937.425     1619.002        1.009        0.531       74.191       40.616        0.300      335.573        6.296      868.080
11/29/2013  10:26:00       44.584       18.228       42.181       57.999       76.677       51.842     3363.934     5879.431     2687.581        0.801        0.597       48.167       57.732        1.437      335.540        6.243      868.071
11/29/2013  10:27:00       77.765      -96.646        8.255       56.799      112.448       47.883     3226.101    12644.523     2292.735        1.681        0.908      124.048       63.016        0.258      335.453        6.095      868.046
11/29/2013  10:28:00       26.236       -7.578       53.285       49.054       83.063       45.272     2406.269     6899.455     2049.536        0.747        0.568       27.309       52.045        3.632      335.726        6.552      868.038
11/29/2013  10:29:00       20.995        2.820       42.953       34.993       71.614       30.336     1224.539     5128.599      920.301        0.478        0.364       21.184       13.989        0.436      335.686        6.485      868.014
11/29/2013  10:30:00       32.905       59.247       71.976       55.339       59.852       44.278     3062.390     3582.321     1960.519        0.919        0.430       67.771       35.533        0.275      335.665        6.449      868.003
11/29/2013  10:31:00       67.109       98.971       86.779       48.392       31.489       23.700     2341.779      991.587      561.680        1.286        0.195      119.578       18.149        0.023      335.349        5.924      867.990
11/29/2013  10:32:00      101.568      100.196       69.698       22.494       20.414       29.293      506.000      416.737      858.100        1.350        0.089      142.672       20.844        0.021      335.261        5.777      867.983
11/29/2013  10:33:00       76.556       92.250       70.375       48.069       38.086       40.433     2310.653     1450.570     1634.862        1.236        0.270      119.879       29.863        0.062      335.411        6.027      867.967
11/29/2013  10:34:00       40.938       82.615       76.834       50.447       50.936       32.089     2544.861     2594.472     1029.709        1.029        0.308       92.202       31.487        0.117      335.525        6.216      867.958
11/29/2013  10:35:00       64.019      101.175       79.770       75.925       42.333       46.537     5764.596     1792.061     2165.659        1.521        0.486      119.728       40.763        0.116      335.588        6.323      867.947
11/29/2013  10:36:00       71.696      116.390      106.105       64.982       47.637       44.838     4222.624     2269.325     2010.464        1.922        0.425      136.700       36.317        0.071      335.450        6.091      867.934
11/29/2013  10:37:00        7.524       52.890       76.068       32.971       39.089       20.034     1087.116     1527.981      401.343        0.583        0.151       53.422       15.577        0.085      335.890        6.826      867.932
11/29/2013  10:38:00       44.644       51.039       53.131       34.255       35.941       28.202     1173.386     1291.780      795.350        0.534        0.163       67.809       19.322        0.081      335.690        6.492      867.924
11/29/2013  10:39:00       48.350        2.345       38.320       41.770       85.997       30.298     1744.726     7395.567      917.976        0.693        0.503       48.407       33.565        0.481      335.656        6.436      867.922
11/29/2013  10:40:00       97.510      -92.724      -10.668       43.122       43.374       40.226     1859.507     1881.345     1618.130        1.179        0.268      134.558       33.407        0.062      335.611        6.360      867.927
11/29/2013  10:41:00       25.102       23.585       30.683       33.305       41.636       36.217     1109.251     1733.578     1311.695        0.314        0.208       34.443       29.461        0.732      335.755        6.599      867.933
11/29/2013  10:42:00       42.493       44.161       40.070       53.526       44.378       38.984     2864.992     1969.367     1519.753        0.586        0.318       61.285       31.486        0.264      335.942        6.911      867.926
11/29/2013  10:43:00       40.772       71.129      104.249       57.041       52.374       36.884     3253.644     2743.001     1360.401        1.247        0.368       81.986       29.507        0.130      335.830        6.725      867.921
11/29/2013  10:44:00       30.694       28.408       55.456       38.763       55.828       36.773     1502.590     3116.781     1352.220        0.540        0.299       41.823       22.305        0.284      335.932        6.896      867.939
11/29/2013  10:45:00       89.862       52.982       39.393       56.248       63.312       44.582     3163.810     4008.463     1987.539        1.080        0.458      104.318       33.795        0.105      335.677        6.471      867.938
11/29/2013  10:46:00      106.296       69.259       27.171       46.010       28.522       34.672     2116.939      813.477     1202.135        1.048        0.207      126.868       21.943        0.030      335.590        6.325      867.950
11/29/2013  10:47:00       87.652       46.600       41.431       50.228       51.711       47.414     2522.889     2673.989     2248.096        0.951        0.372       99.270       34.149        0.118      335.922        6.877      867.951
11/29/2013  10:48:00       66.479       51.995       14.752       48.714       43.825       39.440     2373.096     1920.654     1555.491        0.659        0.292       84.397       23.314        0.076      335.706        6.516      867.949
11/29/2013  10:49:00       73.615       53.030        8.809       32.170       26.133       36.004     1034.889      682.925     1296.306        0.566        0.151       90.727       19.446        0.046      335.598        6.336      867.949
11/29/2013  10:50:00       57.016       72.395       67.499       45.637       50.674       43.726     2082.708     2567.861     1911.970        0.980        0.328       92.151       22.441        0.059      335.879        6.807      867.945
11/29/2013  10:51:00       84.732       92.121       22.040       38.832       34.123       47.837     1507.915     1164.352     2288.409        1.056        0.248      125.163       24.959        0.040      335.620        6.374      867.936
11/29/2013  10:52:00       85.556       67.182       64.241       25.443       20.550       28.601      647.355      422.285      818.006        0.892        0.094      108.781       19.394        0.032      335.738        6.573      867.932
11/29/2013  10:53:00       64.509      106.953        8.296       40.237       35.493       43.299     1619.031     1259.767     1874.761        1.021        0.238      124.902       28.762        0.053      335.551        6.260      867.895
11/29/2013  10:54:00       55.230       66.208       10.490       44.734       46.151       36.751     2001.143     2129.960     1350.615        0.651        0.274       86.220       33.224        0.148      335.848        6.755      867.867
11/29/2013  10:55:00       24.933       19.340        1.103       27.028       23.084       25.216      730.508      532.890      635.866        0.145        0.095       31.555       14.669        0.216      336.083        7.147      867.825
11/29/2013  10:56:00       27.567      -20.500       17.670       43.766       45.816       40.391     1915.500     2099.066     1631.409        0.357        0.282       34.354       22.630        0.434      336.188        7.323      867.793
11/29/2013  10:57:00       25.505       74.256       84.440       46.599       41.398       34.309     2171.484     1713.825     1177.080        0.918        0.253       78.514       19.071        0.059      336.181        7.311      867.764
11/29/2013  10:58:00       45.204      130.466      113.621       47.457       44.767       29.807     2252.160     2004.108      888.440        1.856        0.257      138.075       26.411        0.037      336.009        7.023      867.729
11/29/2013  10:59:00       88.705       87.652       36.972       59.607       50.168       44.591     3552.949     2516.788     1988.399        1.249        0.403      124.705       27.935        0.050      335.920        6.875      867.722
11/29/2013  11:00:00      -24.134       15.457       56.192       17.627       41.218       27.599      310.711     1698.893      761.711        0.337        0.139       28.659       28.688        1.002      336.570        7.960      867.710
11/29/2013  11:01:00       18.408      -35.177       50.375       44.937       90.175       40.659     2019.352     8131.500     1653.145        0.796        0.590       39.703       44.091        1.233      336.461        7.778      867.705
11/29/2013  11:02:00       13.560       -9.534       56.838       52.061       89.910       56.769     2710.380     8083.720     3222.681        0.876        0.701       16.576       68.089       16.872      336.434        7.733      867.703
11/29/2013  11:03:00        8.340      -61.198       16.137       34.168       53.373       43.953     1167.445     2848.675     1931.867        0.501        0.297       61.763       34.050        0.304      336.364        7.616      867.705
11/29/2013  11:04:00       48.555      -48.372       -4.913       51.228       64.913       46.575     2624.334     4213.704     2169.266        0.686        0.450       68.538       47.044        0.471      336.213        7.364      867.722
11/29/2013  11:05:00       19.713      -33.909       10.638       31.308       32.678       30.824      980.202     1067.875      950.102        0.232        0.150       39.223       21.722        0.307      336.352        7.596      867.719
11/29/2013  11:06:00        0.729       29.827       71.327       27.106       37.509       23.293      734.725     1406.924      542.570        0.433        0.134       29.836       23.397        0.615      336.541        7.912      867.731
11/29/2013  11:07:00        1.759       35.159       72.931       28.050       33.626       22.717      786.812     1130.708      516.070        0.450        0.122       35.203       17.972        0.261      336.203        7.348      867.741
11/29/2013  11:08:00       14.373       15.676       19.054       21.951       27.434       17.211      481.840      752.599      296.226        0.117        0.077       21.267        7.616        0.128      336.176        7.301      867.731
11/29/2013  11:09:00      -14.814      -11.233        5.621       15.474       13.658       11.414      239.436      186.537      130.279        0.047        0.028       18.591        7.394        0.158      336.484        7.815      867.726
11/29/2013  11:10:00      -40.026       -3.257       -8.229       22.595       13.874       19.916      510.526      192.499      396.631        0.139        0.055       40.158       16.453        0.168      336.255        7.434      867.710
11/29/2013  11:11:00      -26.972        6.914       28.913       22.056       33.842       39.196      486.455     1145.251     1536.349        0.239        0.158       27.844       33.544        1.451      336.647        8.089      867.697
11/29/2013  11:12:00       15.181      -48.240       16.474       39.896       77.043       40.770     1591.728     5935.654     1662.176        0.601        0.459       50.572       45.319        0.803      336.496        7.836      867.694
11/29/2013  11:13:00       51.271      -68.438       26.875       55.247       70.477       47.616     3052.281     4967.059     2267.250        0.916        0.514       85.513       38.100        0.199      336.434        7.732      867.668
11/29/2013  11:14:00       64.420       -8.192        1.735       29.538       44.747       25.480      872.508     2002.273      649.246        0.387        0.176       64.939       19.457        0.090      336.242        7.411      867.664
11/29/2013  11:15:00       59.867     -138.041      -25.007       57.392       69.498       37.001     3293.850     4829.911     1369.110        1.638        0.475      150.463       29.035        0.037      336.400        7.674      867.636
11/29/2013  11:16:00       89.672     -129.584      -13.012       66.321       82.402       55.017     4398.448     6790.014     3026.898        1.961        0.711      157.585       43.136        0.075      336.357        7.603      867.609
11/29/2013  11:17:00       49.039       46.485       72.936       68.434       49.763       48.182     4683.155     2476.342     2321.469        0.968        0.474       67.570       42.617        0.398      336.493        7.831      867.606
11/29/2013  11:18:00       46.510       52.632       48.922       48.230       42.967       50.619     2326.113     1846.126     2562.240        0.703        0.337       70.238       32.958        0.220      336.382        7.647      867.587
11/29/2013  11:19:00       41.516      -29.193       11.428       38.994       68.163       37.582     1520.567     4646.207     1412.430        0.514        0.379       50.752       26.931        0.282      336.467        7.786      867.575
11/29/2013  11:20:00       75.328      -65.451        6.111       49.727       48.529       49.171     2472.756     2355.056     2417.786        0.862        0.362       99.790       40.409        0.164      336.390        7.660      867.562
11/29/2013  11:21:00       73.784     -114.906      -27.385       60.988       74.571       43.746     3719.537     5560.829     1913.706        1.529        0.560      136.556       29.607        0.047      336.271        7.460      867.547
11/29/2013  11:22:00       36.663     -104.800      -11.027       48.802       49.037       24.500     2381.592     2404.660      600.237        0.892        0.269      111.028       25.811        0.054      336.092        7.162      867.553
11/29/2013  11:23:00       70.723       43.288       41.399       45.956       68.967       56.660     2111.933     4756.426     3210.345        0.933        0.504       82.920       51.803        0.390      336.373        7.632      867.535
11/29/2013  11:24:00       65.764      108.065      113.550       64.281       59.461       54.058     4132.032     3535.554     2922.220        1.974        0.529      126.503       41.850        0.109      336.298        7.505      867.518
11/29/2013  11:25:00       51.034      -27.824       45.653       63.315       86.481       57.193     4008.771     7478.983     3271.084        1.011        0.738       58.126       66.237        1.299      336.409        7.691      867.519
11/29/2013  11:26:00       84.321      105.810       93.071       63.259       51.254       42.150     4001.716     2626.995     1776.642        1.769        0.420      135.299       30.843        0.052      336.409        7.691      867.510
11/29/2013  11:27:00       58.101       89.498       94.030       38.726       49.684       33.557     1499.733     2468.459     1126.041        1.266        0.255      106.704       34.788        0.106      336.384        7.650      867.513
11/29/2013  11:28:00       29.026       36.590       71.115       44.844       55.904       37.900     2010.958     3125.312     1436.426        0.690        0.329       46.704       39.315        0.709      336.702        8.180      867.498
11/29/2013  11:29:00       75.152       91.708       78.111       58.834       61.474       45.477     3461.410     3779.045     2068.130        1.473        0.465      118.568       29.150        0.060      336.507        7.856      867.491
11/29/2013  11:30:00       67.337       67.951       27.667       52.109       38.376       45.896     2715.399     1472.697     2106.480        0.810        0.315       95.664       38.568        0.163      336.367        7.621      867.490
11/29/2013  11:31:00       19.440       11.150        6.562       35.990       30.771       22.082     1295.314      946.880      487.623        0.164        0.136       22.411       17.253        0.593      336.570        7.962      867.466
11/29/2013  11:32:00       30.867       37.090       63.424       48.327       45.205       43.985     2335.538     2043.504     1934.720        0.633        0.316       48.254       28.302        0.344      337.068        8.794      867.458
11/29/2013  11:33:00       81.085      -68.382       18.650       64.171       64.665       53.393     4117.959     4181.588     2850.862        1.137        0.558      106.070       45.400        0.183      336.660        8.110      867.462
11/29/2013  11:34:00       39.185       77.392      102.231       61.448       48.969       37.774     3775.836     2398.009     1426.838        1.279        0.380       86.747       32.518        0.141      336.741        8.247      867.449
11/29/2013  11:35:00       77.457       80.172       86.562       68.018       78.133       62.373     4626.494     6104.785     3890.347        1.727        0.731      111.478       58.818        0.278      336.358        7.605      867.447
11/29/2013  11:36:00       97.578       88.776       78.795       53.366       51.952       49.081     2847.911     2699.014     2408.953        1.578        0.398      131.919       29.073        0.049      336.522        7.880      867.437
11/29/2013  11:37:00       71.951       61.710       16.562       45.290       24.070       39.944     2051.149      579.375     1595.522        0.674        0.211       94.790       27.944        0.087      336.362        7.613      867.439
11/29/2013  11:38:00       36.345       49.140       35.458       22.739       31.380       33.503      517.084      984.683     1122.454        0.381        0.131       61.120       26.965        0.195      336.549        7.926      867.423
11/29/2013  11:39:00       64.411       28.122       65.913       54.532      100.214       58.556     2973.793    10042.781     3428.801        1.286        0.822       70.282       70.411        1.004      336.499        7.842      867.415
11/29/2013  11:40:00       80.829      -22.066       27.758       68.356       84.260       47.249     4672.540     7099.824     2232.422        1.090        0.700       83.787       49.992        0.356      336.569        7.960      867.397
11/29/2013  11:41:00      100.957       60.797       38.839       37.814       28.228       40.425     1429.921      796.812     1634.204        0.963        0.193      117.850       22.951        0.038      336.393        7.664      867.382
11/29/2013  11:42:00       56.732       81.776       63.810       48.563       37.074       38.996     2358.382     1374.447     1520.670        0.961        0.263       99.528       30.118        0.092      336.743        8.250      867.368
11/29/2013  11:43:00       55.417      -60.372       16.782       57.117       86.640       61.379     3262.296     7506.559     3767.395        1.076        0.727       81.950       67.092        0.670      336.886        8.489      867.356
11/29/2013  11:44:00       97.255      -80.110      -16.200       54.654       53.382       33.836     2987.040     2849.666     1144.895        1.156        0.349      126.001       31.806        0.064      336.516        7.870      867.349
11/29/2013  11:45:00       52.406      -66.218        9.283       54.477       76.331       32.293     2967.732     5826.412     1042.853        0.853        0.492       84.447       46.021        0.297      336.608        8.024      867.338
11/29/2013  11:46:00       57.724      -60.153       15.113       55.044       81.364       29.567     3029.859     6620.082      874.236        0.885        0.526       83.369       39.645        0.226      336.729        8.225      867.328
11/29/2013  11:47:00       28.432      -51.665       18.735       33.741       53.816       38.511     1138.462     2896.126     1483.110        0.467        0.276       58.972       39.350        0.445      336.674        8.134      867.329
11/29/2013  11:48:00        9.469      -14.451       17.610       24.077       36.627       25.769      579.706     1341.501      664.021        0.160        0.129       17.277       26.828        2.411      337.056        8.773      867.302
11/29/2013  11:49:00       35.213      -65.388       28.906       61.833       74.845       52.717     3823.294     5601.716     2779.050        0.928        0.610       74.267       50.017        0.454      337.018        8.709      867.294
11/29/2013  11:50:00      128.071     -140.524      -33.024       56.367       54.709       35.828     3177.268     2993.126     1283.660        2.235        0.373      190.129       39.245        0.043      336.504        7.849      867.283
11/29/2013  11:51:00       72.657     -132.381      -26.446       44.672       43.641       35.457     1995.603     1904.542     1257.210        1.433        0.258      151.009       24.903        0.027      336.687        8.156      867.260
11/29/2013  11:52:00       68.025      -98.949      -22.164       42.813       41.855       23.394     1832.950     1751.813      547.258        0.952        0.207      120.076       21.664        0.033      336.783        8.317      867.238
11/29/2013  11:53:00       30.439      -49.664       32.330       46.280       71.406       46.906     2141.845     5098.887     2200.131        0.694        0.472       58.250       24.639        0.179      337.101        8.847      867.201
11/29/2013  11:54:00       59.070       37.662       83.810       58.018       54.589       46.185     3366.110     2979.940     2133.073        1.020        0.424       70.055       39.154        0.312      337.066        8.788      867.184
11/29/2013  11:55:00       41.547       43.984       68.368       48.493       49.584       29.508     2351.564     2458.594      870.700        0.701        0.284       60.504       27.416        0.205      336.882        8.482      867.162
11/29/2013  11:56:00       66.525       83.701       49.221       42.883       30.117       44.344     1838.952      907.028     1966.348        0.928        0.236      106.918       28.907        0.073      336.813        8.365      867.134
11/29/2013  11:57:00       17.550       10.350       20.070       25.486       58.420       34.885      649.548     3412.953     1216.942        0.305        0.264       20.375       35.880        3.101      337.134        8.903      867.115
11/29/2013  11:58:00       -6.566       38.527       69.395       23.044       31.970       29.418      531.027     1022.060      865.423        0.438        0.121       39.082       25.449        0.424      337.598        9.680      867.077
11/29/2013  11:59:00      -31.727      -16.843        5.365       30.760       51.825       25.735      946.164     2685.831      662.266        0.281        0.215       35.921       27.170        0.572      337.335        9.239      867.050
11/29/2013  12:00:00        7.182       -7.747       13.302       21.349       18.859       22.736      455.790      355.679      516.923        0.081        0.066       10.564        8.647        0.670      337.551        9.601      867.024
11/29/2013  12:01:00       14.441       63.720       75.371       37.954       48.785       51.814     1440.494     2379.983     2684.720        0.823        0.325       65.335       40.048        0.376      337.216        9.041      866.992
11/29/2013  12:02:00       25.394       -1.052       37.664       50.294       91.704       43.718     2529.535     8409.575     1911.237        0.745        0.643       25.415       43.513        2.931      337.269        9.130      866.973
11/29/2013  12:03:00       52.244      -62.490       13.390       53.711       56.918       46.446     2884.902     3239.611     2157.213        0.755        0.414       81.452       40.813        0.251      337.231        9.066      866.972
11/29/2013  12:04:00       34.179        3.893       59.158       47.699       94.819       61.726     2275.161     8990.618     3810.124        0.988        0.754       34.400       68.657        3.983      337.338        9.243      866.962
11/29/2013  12:05:00       32.403      -19.442       39.052       34.241       72.332       48.777     1172.422     5231.908     2379.149        0.587        0.439       37.789       55.843        2.184      337.110        8.862      866.947
11/29/2013  12:06:00       10.718      -12.024       34.183       22.539       38.290       18.091      508.000     1466.113      327.286        0.186        0.115       16.107       16.230        1.015      337.559        9.616      866.935
11/29/2013  12:07:00       -1.869       -5.640        8.101       23.887       31.444       20.035      570.581      988.718      401.411        0.103        0.098        5.942        4.993        0.706      337.673        9.805      866.934
11/29/2013  12:08:00        9.875       35.137       -6.340       30.590       26.322       18.891      935.723      692.855      356.888        0.168        0.099       36.498       12.046        0.109      337.528        9.562      866.927
11/29/2013  12:09:00      -36.060       -1.931       27.578       48.528       29.595       43.196     2354.972      875.868     1865.869        0.358        0.255       36.112       19.261        0.284      337.676        9.812      866.908
11/29/2013  12:10:00       10.610      -22.804       16.893       51.626       48.722       28.950     2665.206     2373.809      838.107        0.340        0.294       25.152       33.983        1.825      337.540        9.583      866.907
11/29/2013  12:11:00       14.782       60.048       79.837       34.585       75.381       54.142     1196.127     5682.252     2931.402        1.000        0.490       61.841       59.690        0.932      337.470        9.466      866.894
11/29/2013  12:12:00       54.892       11.738       53.916       73.479       85.702       46.355     5399.232     7344.863     2148.779        1.047        0.745       56.133       62.734        1.249      337.056        8.773      866.889
11/29/2013  12:13:00       30.630       27.157       55.610       60.763       40.743       35.428     3692.152     1660.018     1255.144        0.569        0.330       40.936       40.401        0.974      337.166        8.958      866.879
11/29/2013  12:14:00       29.991        4.770       34.556       42.932       44.733       33.840     1843.159     2001.034     1145.159        0.355        0.249       30.368       35.938        1.400      337.374        9.304      866.875
11/29/2013  12:15:00       18.584       48.644       45.536       32.959       32.751       43.552     1086.290     1072.654     1896.779        0.442        0.203       52.073       29.962        0.331      337.374        9.303      866.850
11/29/2013  12:16:00       -0.287       60.852       80.679       32.421       43.727       26.021     1051.111     1912.017      677.071        0.693        0.182       60.853       26.643        0.192      337.238        9.077      866.821
11/29/2013  12:17:00       41.119       44.822       27.088       45.016       34.106       36.513     2026.395     1163.212     1333.181        0.448        0.226       60.826       17.415        0.082      337.416        9.375      866.793
11/29/2013  12:18:00       66.093       50.759       -1.393       36.137       34.936       28.512     1305.850     1220.540      812.956        0.514        0.167       83.335       19.750        0.056      337.227        9.059      866.757
11/29/2013  12:19:00       40.209       41.922        7.275       37.733       28.300       23.285     1423.801      800.866      542.184        0.310        0.138       58.088       11.339        0.038      337.389        9.331      866.730
11/29/2013  12:20:00       39.571       45.125        4.641       26.540       22.568       28.655      704.385      509.320      821.130        0.283        0.102       60.018       15.392        0.066      337.342        9.251      866.705
11/29/2013  12:21:00       58.172       49.318       24.340       27.855       20.939       26.513      775.921      438.443      702.919        0.416        0.096       76.264       11.080        0.021      337.047        8.757      866.673
11/29/2013  12:22:00       45.504       23.343       29.472       61.060       51.249       32.573     3728.308     2626.488     1061.000        0.545        0.371       51.142       23.004        0.202      337.331        9.233      866.644
11/29/2013  12:23:00       -0.333       45.117       55.079       27.484       52.064       46.712      755.358     2710.611     2182.034        0.536        0.282       45.119       40.207        0.794      337.570        9.633      866.629
11/29/2013  12:24:00       19.908      -21.319       32.386       38.526       66.352       37.980     1484.238     4402.628     1442.493        0.461        0.366       29.169       39.316        1.817      337.479        9.480      866.598
11/29/2013  12:25:00        7.701      -11.377       24.678       25.515       44.181       34.932      651.026     1951.979     1220.239        0.231        0.191       13.739       29.814        4.709      337.571        9.635      866.581
11/29/2013  12:26:00       56.391      -40.895       11.319       40.126       28.963       26.020     1610.079      838.837      677.019        0.405        0.156       69.658       15.877        0.052      337.362        9.285      866.564
11/29/2013  12:27:00       23.925        9.465       26.641       17.050       22.545       28.742      290.696      508.288      826.125        0.150        0.081       25.729       21.935        0.727      337.494        9.506      866.541
11/29/2013  12:28:00       95.942       60.243       17.420       35.887       36.003       32.622     1287.866     1296.211     1064.223        0.839        0.182      113.287       25.523        0.051      337.347        9.259      866.530
11/29/2013  12:29:00       61.960       30.526       -3.646       58.895       49.680       33.888     3468.648     2468.149     1148.381        0.593        0.354       69.072       17.380        0.063      337.424        9.387      866.504
11/29/2013  12:30:00       31.243       36.127       35.326       48.892       40.496       33.153     2390.395     1639.886     1099.153        0.433        0.256       47.763       18.683        0.153      337.799       10.018      866.492
11/29/2013  12:31:00      103.404       93.136       37.983       42.537       31.679       36.691     1809.385     1003.555     1346.243        1.248        0.208      139.164       25.633        0.034      337.360        9.282      866.485
11/29/2013  12:32:00       75.073       57.766        2.969       40.130       28.936       24.686     1610.443      837.313      609.408        0.602        0.153       94.726       12.237        0.017      337.414        9.373      866.467
11/29/2013  12:33:00        6.187       36.529        9.301       22.965       22.510       23.134      527.404      506.694      535.181        0.151        0.078       37.050       19.809        0.286      337.614        9.707      866.450
11/29/2013  12:34:00       24.827       35.733       75.619       50.509       87.415       52.017     2551.192     7641.370     2705.819        1.025        0.645       43.511       57.816        1.766      337.564        9.622      866.429
11/29/2013  12:35:00       82.284       76.364       70.956       77.673       54.032       46.715     6033.071     2919.410     2182.287        1.438        0.557      112.259       47.503        0.179      337.353        9.268      866.409
11/29/2013  12:36:00       34.751       81.884       63.344       42.127       41.252       48.748     1774.660     1701.753     2376.327        0.889        0.293       88.953       29.160        0.107      337.489        9.498      866.404
11/29/2013  12:37:00       10.780      -13.563       -6.176       36.393       65.017       23.943     1324.454     4227.187      573.255        0.323        0.306       17.325       14.790        0.729      337.369        9.296      866.395
11/29/2013  12:38:00       10.366      -88.047       -5.951       21.735       24.989       31.811      472.421      624.454     1011.919        0.500        0.105       88.655       16.592        0.035      337.230        9.064      866.395
11/29/2013  12:39:00        6.685       -0.263       -1.706       32.214       13.618       20.968     1037.749      185.440      439.647        0.085        0.083        6.690       13.153        3.865      337.559        9.616      866.383
11/29/2013  12:40:00       47.400       31.425       17.225       32.583       24.043       22.734     1061.666      578.046      516.841        0.284        0.108       56.871       17.456        0.094      337.653        9.772      866.374
11/29/2013  12:41:00       38.111       68.579       79.103       43.292       38.791       31.608     1874.232     1504.736      999.079        0.839        0.219       78.457       21.225        0.073      337.538        9.580      866.365
11/29/2013  12:42:00       59.735      101.822       91.684       52.020       34.044       23.951     2706.096     1158.986      573.674        1.339        0.222      118.051       18.626        0.025      337.384        9.322      866.359
11/29/2013  12:43:00      107.533       74.272       63.434       46.194       32.775       42.579     2133.841     1074.220     1812.971        1.306        0.251      130.690       32.839        0.063      337.379        9.315      866.351
11/29/2013  12:44:00       13.795       29.436       30.166       58.390       34.324       42.002     3409.424     1178.103     1764.143        0.416        0.318       32.508       31.604        0.945      337.689        9.832      866.348
11/29/2013  12:45:00       44.703       59.532       -1.868       20.470       32.211       29.614      419.024     1037.546      877.010        0.394        0.117       74.447       17.327        0.054      337.406        9.359      866.329
11/29/2013  12:46:00      -26.084       36.990       -1.940       27.363       20.962       22.586      748.742      439.386      510.132        0.188        0.085       45.262       17.639        0.152      337.459        9.447      866.312
11/29/2013  12:47:00       91.031       64.606       17.257       33.267       31.579       25.355     1106.713      997.263      642.890        0.775        0.137      111.627       16.132        0.021      337.477        9.477      866.300
11/29/2013  12:48:00       77.353       86.586        7.322       62.645       61.329       39.330     3924.447     3761.254     1546.838        1.138        0.462      116.106       35.112        0.091      337.575        9.642      866.273
11/29/2013  12:49:00      106.586       59.688       19.570       60.815       40.299       38.667     3698.432     1624.045     1495.159        1.106        0.341      122.161       26.755        0.048      337.582        9.653      866.271
11/29/2013  12:50:00        6.187       32.367       36.916       38.212       39.523       31.937     1460.164     1562.049     1019.998        0.324        0.202       32.953       20.059        0.371      337.743        9.924      866.263
11/29/2013  12:51:00       11.128       10.149       44.691       33.043       28.155       28.326     1091.869      792.705      802.377        0.245        0.134       15.062       15.388        1.044      337.996       10.347      866.257
11/29/2013  12:52:00       62.545       61.452       48.706       70.156       53.943       53.271     4921.873     2909.864     2837.844        1.036        0.533       87.683       47.983        0.299      337.701        9.853      866.262
11/29/2013  12:53:00      169.617       91.911       11.400       45.953       59.176       49.593     2111.709     3501.751     2459.482        2.271        0.404      192.919       17.157        0.008      337.438        9.409      866.253
11/29/2013  12:54:00       96.496       84.804       -2.272       30.578       23.073       21.355      935.021      532.367      456.041        0.922        0.096      128.465       16.341        0.016      337.331        9.233      866.273
11/29/2013  12:55:00       27.619       64.897       -0.780       27.420       31.309       28.453      751.869      980.255      809.583        0.376        0.127       70.530       21.056        0.089      337.601        9.685      866.280
11/29/2013  12:56:00        6.750       38.016       -3.128       27.284       28.042       18.721      744.410      786.336      350.473        0.169        0.094       38.611       15.277        0.157      337.758        9.950      866.291
11/29/2013  12:57:00        2.444       40.784        8.684       21.822       37.935       25.455      476.187     1439.043      647.980        0.215        0.128       40.857       27.817        0.464      337.792       10.004      866.290
11/29/2013  12:58:00       39.227       71.098       -1.393       41.133       33.603       25.498     1691.885     1129.181      650.156        0.503        0.174       81.201       18.803        0.054      337.584        9.657      866.298
11/29/2013  12:59:00      106.072       58.354        5.915       34.421       31.678       35.613     1184.799     1003.512     1268.283        0.907        0.173      121.064       30.756        0.065      337.438        9.410      866.300
11/29/2013  13:00:00       49.669       51.641        1.020       38.955       24.361       28.703     1517.521      593.441      823.864        0.403        0.147       71.650       20.325        0.080      337.525        9.557      866.296
11/29/2013  13:01:00       80.592       58.595       20.225       52.188       32.756       35.070     2723.597     1072.932     1229.908        0.768        0.251       99.641       23.426        0.055      337.542        9.586      866.302
11/29/2013  13:02:00      110.022       74.994       16.434       18.743       17.859       21.915      351.308      318.936      480.257        0.957        0.058      133.150       10.162        0.006      337.494        9.507      866.284
11/29/2013  13:03:00      107.741       60.490       18.744       27.677       27.354       27.874      766.011      748.257      776.985        0.895        0.115      123.560       17.066        0.019      337.570        9.634      866.280
11/29/2013  13:04:00        5.630       22.701       13.456       27.933       26.504       23.463      780.231      702.476      550.530        0.138        0.102       23.389       19.998        0.731      338.082       10.490      866.266
11/29/2013  13:05:00      -13.786       36.791        5.878       19.222       30.302       17.985      369.477      918.235      323.448        0.159        0.081       39.289       13.222        0.113      338.147       10.601      866.255
11/29/2013  13:06:00        2.303       24.930        0.369       28.032       24.913       17.942      785.801      620.655      321.899        0.118        0.086       25.036       13.023        0.271      337.958       10.284      866.237
11/29/2013  13:07:00       15.636       27.745      -14.821       23.984       28.171       15.515      575.240      793.628      240.702        0.142        0.080       31.848       11.054        0.120      337.940       10.254      866.229
11/29/2013  13:08:00      -16.242       34.486       -5.498       14.792       28.182       15.151      218.790      794.236      229.547        0.136        0.062       38.120       15.035        0.156      338.103       10.529      866.217
11/29/2013  13:09:00       -1.166      -63.860      -15.496       29.377       38.504       27.721      863.012     1482.589      768.464        0.372        0.156       63.871       24.284        0.145      338.172       10.644      866.197
11/29/2013  13:10:00       67.116     -142.503      -26.978       60.610       39.950       22.582     3673.538     1596.024      509.940        1.566        0.289      157.517       10.507        0.004      337.771        9.971      866.191
11/29/2013  13:11:00       91.074      -78.702       -5.650       36.086       28.879       22.274     1302.216      833.999      496.128        0.858        0.132      120.368       19.393        0.026      337.679        9.816      866.182
11/29/2013  13:12:00       89.270     -110.778      -16.406       47.960       55.958       29.140     2300.119     3131.323      849.118        1.339        0.314      142.270       36.394        0.065      337.850       10.103      866.168
11/29/2013  13:13:00       77.855      -92.133       -5.207       27.861       47.854       19.446      776.224     2290.050      378.136        0.901        0.172      120.623       17.953        0.022      337.731        9.903      866.168
11/29/2013  13:14:00       -8.868       42.775       60.300       22.446       28.894       23.952      503.827      834.881      573.709        0.373        0.096       43.685       18.943        0.188      338.281       10.827      866.154
11/29/2013  13:15:00       -8.009       32.498       63.778       54.885       32.618       29.879     3012.346     1063.939      892.731        0.508        0.248       33.471       24.761        0.547      338.324       10.897      866.151
11/29/2013  13:16:00       64.792       70.727       79.393       70.727       65.056       42.875     5002.335     4232.265     1838.262        1.329        0.554       95.918       34.569        0.130      338.011       10.372      866.141
11/29/2013  13:17:00       71.397       36.165       21.873       49.083       41.662       26.229     2409.166     1735.754      687.971        0.586        0.242       80.034       18.121        0.051      337.864       10.126      866.135
11/29/2013  13:18:00       80.926       91.636       72.117       61.437       29.600       33.779     3774.539      876.147     1141.028        1.297        0.290      122.255       36.222        0.088      337.967       10.300      866.112
11/29/2013  13:19:00       86.396       59.864       43.276       32.891       35.957       35.042     1081.811     1292.894     1227.907        0.826        0.180      105.110       22.660        0.046      337.882       10.156      866.107
11/29/2013  13:20:00       89.730       91.524       58.616       55.050       33.251       45.639     3030.556     1105.662     2082.932        1.304        0.311      128.172       34.416        0.072      337.933       10.242      866.095
11/29/2013  13:21:00       54.761       53.833       78.529       50.365       53.419       42.566     2536.672     2853.550     1811.902        0.963        0.360       76.790       48.666        0.402      338.013       10.376      866.089
11/29/2013  13:22:00       66.915      -51.850        3.818       30.201       40.932       32.160      912.074     1675.447     1034.244        0.540        0.181       84.652       30.667        0.131      337.829       10.068      866.090
11/29/2013  13:23:00       22.972       -1.923       28.841       37.756       48.855       22.519     1425.500     2386.859      507.107        0.284        0.216       23.052       16.197        0.494      338.109       10.536      866.077
11/29/2013  13:24:00        9.813       32.839       20.759       27.583       26.411       18.363      760.840      697.520      337.212        0.170        0.090       34.274       14.784        0.186      338.207       10.702      866.062
11/29/2013  13:25:00       69.931       23.660       28.143       51.388       42.006       28.997     2640.730     1764.491      840.807        0.574        0.262       73.825       23.447        0.101      338.199       10.688      866.048
11/29/2013  13:26:00       25.055      -26.113       32.419       53.232       56.748       36.228     2833.682     3220.333     1312.457        0.486        0.368       36.189       16.851        0.217      338.439       11.091      866.056
11/29/2013  13:27:00       33.872      -29.293       25.359       29.580       61.757       37.547      874.994     3813.900     1409.754        0.437        0.305       44.782       41.655        0.865      338.290       10.840      866.062
11/29/2013  13:28:00      -13.020       38.579       69.429       18.197       44.436       29.787      331.138     1974.517      887.285        0.483        0.160       40.717       28.157        0.478      338.715       11.556      866.052
11/29/2013  13:29:00       28.399       83.443      103.646       58.192       46.894       36.473     3386.332     2199.013     1330.300        1.271        0.346       88.143       28.017        0.101      338.473       11.148      866.056
11/29/2013  13:30:00      111.766      115.576       48.224       57.370       47.193       38.075     3291.285     2227.206     1449.685        1.757        0.348      160.778       25.603        0.025      337.973       10.308      866.058
11/29/2013  13:31:00      100.809      126.045      107.123       61.622       64.788       52.225     3797.282     4197.440     2727.427        2.412        0.536      161.399       46.949        0.085      338.064       10.460      866.053
11/29/2013  13:32:00       51.629       94.834       95.936       79.746       57.227       51.797     6359.361     3274.951     2682.975        1.659        0.616      107.977       50.998        0.223      338.110       10.539      866.043
11/29/2013  13:33:00       19.333       65.672       32.661       48.815       32.822       51.611     2382.892     1077.315     2663.731        0.594        0.306       68.459       33.327        0.237      338.266       10.802      866.038
11/29/2013  13:34:00       74.796       65.824        8.982       51.678       29.863       28.448     2670.655      891.800      809.314        0.719        0.219       99.636       17.614        0.031      338.167       10.634      866.031
11/29/2013  13:35:00      100.580       56.991        4.973       26.772       24.901       28.769      716.750      620.070      827.654        0.778        0.108      115.604       12.739        0.012      337.934       10.243      866.015
11/29/2013  13:36:00       16.895       27.645       -0.498       20.819       27.248       16.715      433.436      742.429      279.393        0.125        0.073       32.400       17.021        0.276      338.296       10.851      865.992
11/29/2013  13:37:00       50.723       62.877       -5.860       27.695       29.631       27.671      767.002      877.982      765.660        0.449        0.121       80.786       12.453        0.024      338.204       10.697      865.974
11/29/2013  13:38:00       35.238       75.371       -9.119       24.706       25.517       24.945      610.388      651.099      622.249        0.444        0.094       83.201       19.445        0.055      338.092       10.510      865.964
11/29/2013  13:39:00       72.351       45.223        7.272       25.225       19.915       23.085      636.295      396.614      532.939        0.445        0.078       85.322       14.504        0.029      338.045       10.430      865.945
11/29/2013  13:40:00       24.349       59.150      -14.972       37.051       19.882       14.386     1372.794      395.286      206.960        0.314        0.099       63.965        4.790        0.006      338.069       10.470      865.915
11/29/2013  13:41:00       38.375       49.221        7.487       23.705       29.208       30.148      561.918      853.120      908.898        0.314        0.116       62.413       26.960        0.187      338.204       10.697      865.907
11/29/2013  13:42:00        9.545       67.428      -13.891       20.948       17.655       11.360      438.825      311.703      129.045        0.285        0.044       68.101        7.653        0.013      338.163       10.628      865.896
11/29/2013  13:43:00      -21.745       43.877      -19.139       14.091       19.936       10.143      198.552      397.440      102.874        0.173        0.035       48.969        7.969        0.026      338.270       10.807      865.894
11/29/2013  13:44:00        1.462       19.581        1.406       19.271       18.965       17.488      371.374      359.687      305.820        0.071        0.052       19.636       15.455        0.619      338.465       11.136      865.875
11/29/2013  13:45:00       18.111       17.847        5.165       20.431       18.096       15.094      417.409      327.462      227.832        0.082        0.049       25.427       10.435        0.168      338.487       11.171      865.859
11/29/2013  13:46:00       55.163       56.389       43.051       40.834       36.845       29.439     1667.433     1357.580      866.679        0.598        0.195       78.884       19.118        0.059      338.427       11.070      865.850
11/29/2013  13:47:00       62.531       53.037       53.732       43.299       35.560       22.029     1874.838     1264.532      485.275        0.662        0.181       81.994       19.680        0.058      338.386       11.003      865.851
11/29/2013  13:48:00       52.386       23.641       30.079       26.086       40.811       28.494      680.496     1665.556      811.907        0.368        0.158       57.474       24.483        0.181      338.322       10.895      865.848
11/29/2013  13:49:00       -2.690      -34.875        4.715       39.404       17.495       17.684     1552.686      306.080      312.717        0.171        0.109       34.979       20.167        0.332      338.269       10.805      865.849
11/29/2013  13:50:00       19.641       -1.469       22.437       27.589       18.231       22.762      761.159      332.379      518.128        0.125        0.081       19.695       17.188        0.762      338.677       11.490      865.849
11/29/2013  13:51:00       13.734       -3.907       23.337       27.162       15.629       21.677      737.790      244.261      469.880        0.110        0.073       14.279       18.564        1.690      338.769       11.644      865.853
11/29/2013  13:52:00       65.860       71.851       12.533       44.215       50.169       40.178     1954.941     2516.883     1614.310        0.787        0.304       97.469       41.063        0.177      338.438       11.089      865.846
11/29/2013  13:53:00       19.279       61.258       -5.089       29.422       37.592       25.828      865.636     1413.122      667.105        0.355        0.147       64.221       20.841        0.105      338.495       11.184      865.840
11/29/2013  13:54:00       68.891       69.986       44.557       43.854       48.816       34.120     1923.185     2382.979     1164.180        0.855        0.274       98.204       21.757        0.049      338.608       11.375      865.835
11/29/2013  13:55:00       41.344       36.887       25.517       26.406       21.120       30.703      697.279      446.072      942.669        0.290        0.104       55.407       18.852        0.116      338.462       11.131      865.838
11/29/2013  13:56:00       40.090       21.776       15.106       30.678       26.337       25.555      941.153      693.648      653.037        0.230        0.114       45.623       19.425        0.181      338.673       11.483      865.833
11/29/2013  13:57:00       41.427       12.835       10.292       74.460       32.188       27.456     5544.357     1036.078      753.810        0.466        0.367       43.370        9.157        0.045      338.839       11.763      865.822
11/29/2013  13:58:00       38.139       43.465       15.707       31.716       28.649       28.246     1005.874      820.758      797.818        0.311        0.131       57.826       12.501        0.047      338.615       11.389      865.833
11/29/2013  13:59:00       47.223      -72.049       13.769       41.282       44.587       29.838     1704.199     1987.988      890.295        0.610        0.229       86.146       23.701        0.076      338.684       11.504      865.832
11/29/2013  14:00:00       33.491        7.620        1.925       24.824       64.424       25.997      616.216     4150.409      675.860        0.331        0.272       34.347       26.598        0.600      338.523       11.232      865.819
11/29/2013  14:01:00       40.923       73.616       -3.515       54.708       45.515       32.272     2993.012     2071.657     1041.481        0.661        0.305       84.226       23.268        0.076      338.595       11.352      865.821
11/29/2013  14:02:00       17.967       76.506       -7.640       46.773       52.089       28.764     2187.690     2713.221      827.391        0.598        0.286       78.587       25.164        0.103      338.617       11.389      865.826
11/29/2013  14:03:00       60.882       69.169        2.085       60.961       37.971       31.183     3716.284     1441.824      972.391        0.731        0.307       92.147       24.391        0.070      338.569       11.308      865.820
11/29/2013  14:04:00      149.360       86.354       -0.105       48.100       42.379       32.623     2313.650     1795.978     1064.258        1.747        0.259      172.527       19.856        0.013      338.482       11.162      865.824
11/29/2013  14:05:00       56.911       65.415       18.068       39.925       36.671       33.487     1593.996     1344.791     1121.409        0.595        0.203       86.706       26.677        0.095      338.536       11.254      865.825
11/29/2013  14:06:00      121.944       74.293        9.236       51.116       41.855       38.578     2612.896     1751.812     1488.264        1.316        0.293      142.793       21.055        0.022      338.616       11.388      865.832
11/29/2013  14:07:00       90.502       56.383       22.859       61.083       44.090       35.592     3731.121     1943.887     1266.812        0.942        0.347      106.629       24.647        0.053      338.659       11.462      865.838
11/29/2013  14:08:00       47.371       19.528       52.110       42.955       69.778       48.075     1845.171     4869.039     2311.243        0.718        0.451       51.238       55.902        1.190      338.648       11.441      865.837
11/29/2013  14:09:00        7.532       30.323       47.231       37.516       47.079       25.894     1407.472     2216.455      670.509        0.375        0.215       31.244       16.250        0.270      338.937       11.927      865.838
11/29/2013  14:10:00       73.041       53.513       39.384       46.505       45.006       37.056     2162.671     2025.532     1373.118        0.765        0.278       90.546       23.646        0.068      338.831       11.750      865.849
11/29/2013  14:11:00       44.317       57.332       55.519       59.329       42.145       55.529     3519.967     1776.242     3083.424        0.835        0.419       72.463       47.737        0.434      339.031       12.086      865.848
11/29/2013  14:12:00       64.185       80.510       98.364       63.281       52.808       46.116     4004.515     2788.720     2126.731        1.460        0.446      102.964       45.473        0.195      338.852       11.786      865.827
11/29/2013  14:13:00      110.764       -8.206       35.703       72.384       96.803       48.244     5239.389     9370.777     2327.458        1.527        0.847      111.068       62.619        0.318      338.749       11.612      865.806
11/29/2013  14:14:00       47.702      -38.064       18.189       58.100       60.821       44.591     3375.641     3699.241     1988.345        0.656        0.453       61.027       35.877        0.346      338.934       11.923      865.795
11/29/2013  14:15:00       50.144      -53.329        7.370       43.187       55.095       24.628     1865.100     3035.424      606.516        0.546        0.275       73.202       34.410        0.221      338.795       11.690      865.787
11/29/2013  14:16:00       55.187       29.576       18.938       59.525       66.406       33.463     3543.215     4409.811     1119.767        0.667        0.454       62.613       17.659        0.080      338.821       11.733      865.777
11/29/2013  14:17:00        7.191       43.116       49.037       22.849       30.178       29.267      522.081      910.684      856.547        0.330        0.114       43.712       20.644        0.223      339.002       12.038      865.755
11/29/2013  14:18:00       67.974       55.242       35.359       35.951       25.429       26.012     1292.510      646.649      676.635        0.577        0.131       87.591       17.901        0.042      338.844       11.771      865.745
11/29/2013  14:19:00      111.545       61.543       29.052       32.590       37.185       36.118     1062.137     1382.751     1304.526        1.041        0.187      127.396       23.506        0.034      338.825       11.741      865.748
11/29/2013  14:20:00       86.544       84.341       84.661       66.323       84.451       69.559     4398.770     7131.915     4838.500        1.907        0.818      120.844       72.293        0.358      338.898       11.861      865.744
11/29/2013  14:21:00      110.822       93.374      109.716       85.571       71.734       58.384     7322.470     5145.809     3408.680        2.445        0.794      144.914       54.663        0.142      338.802       11.698      865.726
11/29/2013  14:22:00      132.155       97.249      114.140       90.153       72.568       77.820     8127.511     5266.090     6055.902        2.970        0.972      164.080       59.777        0.133      338.734       11.582      865.718
11/29/2013  14:23:00      121.556      135.306      131.570       76.019       72.214       56.684     5778.835     5214.916     3213.132        3.230        0.710      181.888       53.841        0.088      338.826       11.739      865.703
11/29/2013  14:24:00      105.159      125.529      121.518       67.398       56.586       51.040     4542.521     3202.027     2605.055        2.596        0.517      163.756       41.841        0.065      338.797       11.692      865.695
11/29/2013  14:25:00      120.289       94.126       49.093       70.590       46.225       51.788     4982.890     2136.751     2682.033        1.777        0.490      152.739       38.064        0.062      338.829       11.746      865.683
11/29/2013  14:26:00       51.563       27.490       23.424       56.831       46.084       44.546     3229.712     2123.693     1984.309        0.565        0.367       58.433       34.596        0.351      338.848       11.779      865.675
11/29/2013  14:27:00       64.704       81.095       90.572       68.233       57.525       48.673     4655.764     3309.151     2369.032        1.465        0.517      103.745       39.913        0.148      338.936       11.926      865.665
11/29/2013  14:28:00       32.226       84.221       86.019       62.141       52.093       38.730     3861.484     2713.730     1500.023        1.180        0.404       90.176       36.741        0.166      338.983       12.006      865.657
11/29/2013  14:29:00      126.361      103.954       26.543       75.116       51.306       50.680     5642.467     2632.316     2568.489        1.916        0.542      163.627       44.602        0.074      338.989       12.015      865.652
11/29/2013  14:30:00      116.352       68.491        8.500       57.738       55.753       51.820     3333.658     3108.427     2685.314        1.371        0.456      135.014       29.359        0.047      338.928       11.913      865.651
11/29/2013  14:31:00       94.008       55.122       13.283       54.197       45.365       41.633     2937.300     2058.011     1733.319        0.939        0.336      108.977       23.287        0.046      339.013       12.056      865.660
11/29/2013  14:32:00      109.040       57.213       31.656       87.515       58.992       56.458     7658.870     3480.098     3187.484        1.524        0.716      123.138       37.956        0.095      338.999       12.032      865.651
11/29/2013  14:33:00       99.346       53.423       21.368      114.958       66.242       54.230    13215.449     4387.952     2940.864        1.686        1.027      112.799       40.995        0.132      339.037       12.096      865.647
11/29/2013  14:34:00      224.114      144.663       26.000      114.974       77.887       58.054    13218.942     6066.341     3370.222        4.724        1.133      266.748       53.476        0.040      338.822       11.732      865.638
11/29/2013  14:35:00      199.306       98.158       29.521       89.135       69.814       54.138     7944.974     4873.935     2930.967        3.299        0.787      222.166       41.508        0.035      338.733       11.582      865.644
11/29/2013  14:36:00       71.230       67.711       48.386       66.981       57.381       43.738     4486.453     3292.544     1913.009        1.084        0.485       98.278       46.121        0.220      338.803       11.702      865.625
11/29/2013  14:37:00      132.585      100.876       16.202       53.630       49.640       34.864     2876.133     2464.122     1215.496        1.729        0.328      166.597       21.574        0.017      338.811       11.716      865.616
11/29/2013  14:38:00       95.797      110.190       -6.308       62.215       65.340       47.416     3870.767     4269.284     2248.306        1.587        0.519      146.010       42.359        0.084      338.879       11.830      865.596
11/29/2013  14:39:00       34.801       31.721        7.253       50.768       51.871       34.022     2577.349     2690.576     1157.522        0.435        0.321       47.089       33.323        0.501      339.031       12.086      865.591
11/29/2013  14:40:00       60.714       49.706       11.109       52.898       44.427       34.547     2798.155     1973.787     1193.469        0.612        0.298       78.466       25.286        0.104      338.994       12.024      865.584
11/29/2013  14:41:00      179.604      106.862       23.247       67.301       60.652       44.315     4529.383     3678.656     1963.787        2.719        0.509      208.990       32.210        0.024      338.866       11.807      865.578
11/29/2013  14:42:00       94.183       55.554       35.323       52.053       51.363       36.803     2709.480     2638.155     1354.447        0.995        0.335      109.347       29.567        0.073      338.995       12.026      865.568
11/29/2013  14:43:00      112.293       53.711       20.639       51.624       43.449       34.732     2665.058     1887.843     1206.345        1.084        0.288      124.477       22.727        0.033      339.018       12.063      865.565
11/29/2013  14:44:00       93.281       69.491       91.076       70.389       65.499       56.312     4954.628     4290.129     3171.006        1.712        0.621      116.320       51.084        0.193      338.962       11.970      865.545
11/29/2013  14:45:00       83.377       80.470       61.660       68.583       54.016       44.079     4703.620     2917.690     1942.994        1.339        0.478      115.875       31.057        0.072      338.953       11.955      865.537
11/29/2013  14:46:00       23.757       47.325       51.354       44.361       47.212       37.443     1967.871     2228.952     1402.002        0.552        0.280       52.953       32.012        0.365      339.141       12.272      865.531
11/29/2013  14:47:00       57.380       62.905       74.326       60.174       54.068       47.306     3620.933     2923.300     2237.822        1.078        0.439       85.144       41.429        0.237      339.084       12.174      865.524
11/29/2013  14:48:00      103.128       43.686       53.034       65.511       60.235       48.035     4291.729     3628.268     2307.404        1.279        0.511      112.000       39.279        0.123      339.063       12.141      865.519
11/29/2013  14:49:00       94.290       77.608       63.572       90.892       59.606       47.545     8261.322     3552.818     2260.566        1.651        0.704      122.121       53.718        0.193      339.024       12.072      865.516
11/29/2013  14:50:00       95.837       73.933       48.413       56.008       40.833       33.774     3136.904     1667.320     1140.706        1.147        0.297      121.041       27.102        0.050      339.119       12.234      865.516
11/29/2013  14:51:00       36.133       52.187       48.265       42.292       37.865       39.930     1788.606     1433.795     1594.368        0.559        0.241       63.475       28.216        0.198      339.219       12.403      865.517
11/29/2013  14:52:00      120.279       72.018       21.617       54.310       40.310       33.463     2949.597     1624.895     1119.766        1.291        0.285      140.191       23.203        0.027      339.024       12.074      865.516
11/29/2013  14:53:00       92.637       34.032       51.726       58.061       45.776       37.778     3371.066     2095.452     1427.147        0.965        0.345       98.691       39.941        0.164      339.106       12.212      865.514
11/29/2013  14:54:00       46.374       49.279       73.143       52.095       73.402       39.352     2713.921     5387.887     1548.557        0.979        0.483       67.668       38.603        0.325      339.214       12.394      865.514
11/29/2013  14:55:00       34.371       19.397       51.686       44.972       59.775       36.738     2022.457     3573.099     1349.717        0.559        0.347       39.467       28.036        0.505      339.174       12.328      865.505
11/29/2013  14:56:00       16.364      -16.572       35.788       34.757       67.107       28.322     1208.054     4503.366      802.120        0.417        0.326       23.290       35.292        2.296      339.248       12.451      865.499
11/29/2013  14:57:00      131.750       83.815       71.921       92.201       65.635       57.423     8501.046     4308.006     3297.403        2.283        0.805      156.151       35.808        0.053      339.037       12.096      865.503
11/29/2013  14:58:00       96.918       71.992       71.128       76.284       57.256       62.273     5819.198     3278.260     3877.950        1.630        0.649      120.731       46.084        0.146      339.011       12.052      865.495
11/29/2013  14:59:00       33.701       50.229       65.468       63.640       52.428       48.397     4050.018     2748.652     2342.313        0.854        0.457       60.487       45.313        0.561      339.168       12.317      865.504
11/29/2013  15:00:00       57.642       75.120      101.584       87.751       61.491       64.061     7700.193     3781.189     4103.759        1.743        0.779       94.687       58.005        0.375      339.145       12.279      865.521
11/29/2013  15:01:00      114.837       91.747       49.554       69.082       64.555       59.879     4772.301     4167.323     3585.544        1.829        0.626      146.987       43.653        0.088      338.924       11.906      865.526
11/29/2013  15:02:00      180.592      106.551       15.261       55.233       47.619       35.157     3050.722     2267.575     1236.030        2.538        0.328      209.682       14.589        0.005      338.945       11.939      865.515
11/29/2013  15:03:00       41.719       13.900       29.108       81.058      108.723       46.660     6570.460    11820.637     2177.178        1.167        1.028       43.974       54.487        1.535      339.157       12.299      865.516
11/29/2013  15:04:00       36.815      -18.750       32.043       48.506       70.561       41.487     2352.814     4978.799     1721.143        0.589        0.453       41.315       46.779        1.282      339.210       12.388      865.526
11/29/2013  15:05:00       33.161       69.940       85.539       32.515       50.590       34.892     1057.211     2559.313     1217.428        0.907        0.242       77.403       30.654        0.157      339.212       12.390      865.520
11/29/2013  15:06:00      107.774      122.527      105.934       61.723       63.126       59.346     3809.693     3984.877     3521.983        2.458        0.566      163.182       52.538        0.104      338.995       12.024      865.506
11/29/2013  15:07:00       77.725       19.707       12.397       67.382       41.813       39.743     4540.371     1748.335     1579.524        0.722        0.393       80.184       23.872        0.089      338.981       12.002      865.477
11/29/2013  15:08:00       26.159       39.391       36.659       37.878       41.833       30.555     1434.732     1749.991      933.591        0.385        0.206       47.286       21.232        0.202      339.131       12.254      865.447
11/29/2013  15:09:00       51.801      -39.600       37.288       70.501       99.712       47.793     4970.376     9942.512     2284.196        1.142        0.860       65.204       43.597        0.447      339.281       12.507      865.415
11/29/2013  15:10:00       50.465       73.650      107.942       57.719       73.365       45.104     3331.497     5382.436     2034.367        1.518        0.537       89.281       33.091        0.137      339.221       12.405      865.380
11/29/2013  15:11:00       55.066       87.926       98.487       65.199       80.898       50.106     4250.848     6544.468     2510.660        1.688        0.665      103.746       44.490        0.184      339.201       12.372      865.378
11/29/2013  15:12:00      112.087       81.966      104.573       83.422       71.332       51.438     6959.221     5088.239     2645.824        2.245        0.735      138.859       54.480        0.154      339.213       12.391      865.360
11/29/2013  15:13:00       87.800       11.713       76.605       74.029       72.736       51.418     5480.361     5290.460     2643.813        1.356        0.671       88.578       47.115        0.283      339.234       12.427      865.361
11/29/2013  15:14:00       47.556       73.160      118.091       62.486       77.872       44.751     3904.444     6064.124     2002.667        1.676        0.599       87.258       44.543        0.261      339.163       12.308      865.373
11/29/2013  15:15:00      108.096        6.053       60.081       82.400       47.180       39.214     6789.736     2225.908     1537.747        1.294        0.528      108.265       38.972        0.130      339.087       12.181      865.381
11/29/2013  15:16:00       93.249       79.652       58.363       65.530       46.913       44.209     4294.188     2200.857     1954.413        1.345        0.422      122.637       40.119        0.107      339.069       12.150      865.384
11/29/2013  15:17:00       99.894       63.633       45.093       60.004       57.188       51.082     3600.496     3270.450     2609.357        1.277        0.474      118.440       28.275        0.057      339.093       12.190      865.406
11/29/2013  15:18:00      109.852       91.437       83.603       71.643       71.565       54.522     5132.764     5121.575     2972.635        2.032        0.661      142.927       52.671        0.136      339.064       12.140      865.418
11/29/2013  15:19:00       80.236      154.194      174.666       76.912       69.348       41.986     5915.446     4809.189     1762.831        3.660        0.624      173.820       38.065        0.048      339.037       12.094      865.421
11/29/2013  15:20:00      165.318      114.362       92.230      112.163       88.768       75.166    12580.633     7879.676     5649.974        3.751        1.306      201.019       51.937        0.067      338.999       12.030      865.441
11/29/2013  15:21:00      137.994      154.471      141.780       78.282       79.203       66.307     6128.031     6273.085     4396.568        3.990        0.840      207.132       46.986        0.051      338.962       11.966      865.446
11/29/2013  15:22:00      147.215      178.929      142.083       87.853       79.049       77.756     7718.170     6248.786     6045.957        4.694        1.001      231.706       63.528        0.075      338.960       11.963      865.446
11/29/2013  15:23:00      123.531      100.758       99.696       81.928       77.032       50.547     6712.173     5933.961     2554.985        2.527        0.760      159.412       43.760        0.075      338.979       11.995      865.455
11/29/2013  15:24:00      135.327       90.785       65.613       71.659       49.473       52.652     5135.054     2447.602     2772.195        2.061        0.518      162.958       48.002        0.087      338.985       12.009      865.468
11/29/2013  15:25:00       53.397       27.934       38.377       50.848       23.768       28.585     2585.498      564.925      817.089        0.454        0.198       60.263       19.111        0.101      339.062       12.139      865.472
11/29/2013  15:26:00       93.083       60.182       40.260       49.924       31.460       32.228     2492.375      989.744     1038.664        0.921        0.226      110.844       14.521        0.017      339.077       12.162      865.470
11/29/2013  15:27:00       99.492       22.504       45.429       54.528       65.029       43.917     2973.357     4228.712     1928.726        1.080        0.457      102.005       42.774        0.176      339.093       12.190      865.474
11/29/2013  15:28:00       97.273       55.523       53.449       41.615       58.082       41.818     1731.847     3373.512     1748.759        1.113        0.343      112.004       30.352        0.073      339.053       12.123      865.464
11/29/2013  15:29:00      101.058       59.524       41.298       64.821       46.599       40.492     4201.824     2171.495     1639.624        1.174        0.401      117.285       33.237        0.080      339.109       12.215      865.464
11/29/2013  15:30:00      138.134       86.429      103.035       95.663       75.607       67.829     9151.319     5716.431     4600.775        2.831        0.973      162.945       64.412        0.156      339.032       12.086      865.469
11/29/2013  15:31:00       90.103       95.864       74.735       94.284       68.511       66.797     8889.424     4693.693     4461.788        2.047        0.902      131.562       58.424        0.197      339.068       12.147      865.480
11/29/2013  15:32:00       21.438       57.899       70.817       45.225       35.957       38.401     2045.267     1292.922     1474.604        0.682        0.241       61.741        7.242        0.014      339.103       12.206      865.500
11/29/2013  15:33:00      115.109       71.706       40.323       51.682       51.908       40.514     2670.985     2694.421     1641.405        1.351        0.350      135.616       33.345        0.060      339.030       12.084      865.508
11/29/2013  15:34:00       97.394       33.885       13.428       60.569       27.677       32.677     3668.571      766.043     1067.774        0.816        0.275      103.120       18.259        0.031      339.051       12.120      865.511
11/29/2013  15:35:00       76.563       39.434       14.761       78.106       38.753       38.891     6100.533     1501.801     1512.543        0.837        0.456       86.122       24.858        0.083      339.026       12.077      865.521
11/29/2013  15:36:00      100.767       51.436       32.815       56.557       50.562       33.398     3198.703     2556.551     1115.425        1.037        0.344      113.135       16.533        0.021      339.006       12.044      865.527
11/29/2013  15:37:00      136.390       56.303       33.826       78.162       57.043       52.511     6109.277     3253.860     2757.408        1.752        0.606      147.554       34.056        0.053      339.001       12.036      865.532
11/29/2013  15:38:00       69.411      122.255      111.317       62.795       50.462       45.557     3943.199     2546.377     2075.471        2.036        0.428      140.585       28.955        0.042      339.030       12.084      865.546
11/29/2013  15:39:00      105.946      -70.777       25.144       61.064       77.154       43.333     3728.857     5952.744     1877.772        1.421        0.578      127.412       47.125        0.137      339.094       12.192      865.552
11/29/2013  15:40:00       80.568      -95.118       30.807       54.789       83.148       53.728     3001.791     6913.557     2886.657        1.464        0.640      124.654       46.207        0.137      339.091       12.185      865.560
11/29/2013  15:41:00      111.163       14.206       61.155       81.166       75.259       66.787     6587.947     5663.920     4460.445        1.650        0.836      112.067       49.744        0.197      339.086       12.178      865.584
11/29/2013  15:42:00      106.159       43.599       47.792       62.269       47.088       52.178     3877.427     2217.297     2722.521        1.213        0.441      114.763       41.539        0.131      339.061       12.135      865.600
11/29/2013  15:43:00       96.357       29.593       35.667       81.134       43.973       40.252     6582.658     1933.602     1620.202        1.078        0.507      100.799       34.676        0.118      339.041       12.102      865.605
11/29/2013  15:44:00       46.160       71.524       72.347       58.985       38.190       30.243     3479.208     1458.479      914.631        0.917        0.293       85.126       27.023        0.101      339.091       12.187      865.602
11/29/2013  15:45:00       88.372       66.978       70.179       73.607       52.405       46.216     5417.967     2746.299     2135.948        1.376        0.515      110.885       49.115        0.196      339.106       12.211      865.598
11/29/2013  15:46:00      109.537      -35.277       35.127       81.673       72.379       44.527     6670.428     5238.750     1982.686        1.418        0.695      115.077       46.718        0.165      339.080       12.167      865.581
11/29/2013  15:47:00       99.272       58.165       69.613      106.003       73.822       58.944    11236.631     5449.645     3474.351        1.912        1.008      115.057       64.737        0.317      339.022       12.070      865.574
11/29/2013  15:48:00      142.378       59.778       65.282      104.264       59.828       52.741    10870.990     3579.432     2781.605        2.267        0.862      154.418       50.780        0.108      338.994       12.024      865.564
11/29/2013  15:49:00       61.279       71.030       76.526       63.584       77.752       47.453     4042.932     6045.394     2251.769        1.350        0.617       93.810       47.345        0.255      339.046       12.111      865.561
11/29/2013  15:50:00       32.353       23.025       58.906       48.529       55.201       42.239     2355.027     3047.190     1784.151        0.612        0.359       39.710       43.645        1.208      339.067       12.146      865.561
11/29/2013  15:51:00       70.996       56.329       42.964       58.113       41.291       30.096     3377.115     1704.934      905.799        0.802        0.299       90.627       22.115        0.060      339.036       12.094      865.562
11/29/2013  15:52:00       50.186       60.960       56.991       40.302       40.378       29.271     1624.214     1630.420      856.806        0.680        0.206       78.960       20.159        0.065      338.969       11.982      865.563
11/29/2013  15:53:00       60.824       51.582       60.915       52.791       46.358       38.928     2786.899     2149.097     1515.394        0.826        0.323       79.751       23.795        0.089      339.012       12.054      865.565
11/29/2013  15:54:00       33.474       63.571       77.019       40.173       41.260       29.779     1613.864     1702.405      886.787        0.765        0.210       71.846       22.415        0.097      339.060       12.135      865.564
11/29/2013  15:55:00       92.079       14.363       69.883       87.512       62.832       46.804     7658.412     3947.832     2190.643        1.368        0.690       93.193       51.689        0.308      339.040       12.102      865.566
11/29/2013  15:56:00      153.125       20.643       61.749      111.556       57.339       53.379    12444.762     3287.741     2849.311        2.313        0.929      154.510       54.121        0.123      339.034       12.089      865.575
11/29/2013  15:57:00       78.755       80.970       73.587       55.848       60.843       47.028     3118.980     3701.860     2211.597        1.360        0.452      112.953       42.185        0.139      338.986       12.011      865.583
11/29/2013  15:58:00      125.408       70.040       47.991       76.143       52.454       56.607     5797.704     2751.472     3204.398        1.734        0.588      143.641       40.640        0.080      338.925       11.907      865.588
11/29/2013  15:59:00       98.336       56.096       43.973       41.977       49.447       41.968     1762.089     2445.022     1761.281        1.036        0.298      113.211       33.875        0.090      338.932       11.920      865.598
11/29/2013  16:00:00      117.790       48.391       34.538       61.920       48.014       37.559     3834.035     2305.372     1410.694        1.248        0.378      127.343       33.515        0.069      338.915       11.890      865.593
11/29/2013  16:01:00      110.733       51.735       12.111       49.559       35.754       38.638     2456.048     1278.333     1492.898        1.016        0.261      122.222       28.592        0.055      338.916       11.892      865.586
11/29/2013  16:02:00       70.616       37.517       25.894       60.229       35.346       38.397     3627.559     1249.322     1474.356        0.671        0.318       79.964       35.158        0.193      338.872       11.817      865.584
11/29/2013  16:03:00       74.178       13.251       28.034       53.767       35.319       27.440     2890.874     1247.402      752.938        0.568        0.245       75.352       22.105        0.086      338.868       11.813      865.582
11/29/2013  16:04:00       94.765       28.755       43.196       68.722       49.689       50.102     4722.781     2469.033     2510.169        1.069        0.485       99.032       40.617        0.168      338.881       11.834      865.575
11/29/2013  16:05:00       96.752       34.152       54.701       48.709       35.932       39.489     2372.551     1291.127     1559.344        0.937        0.261      102.603       29.585        0.083      338.835       11.755      865.564
11/29/2013  16:06:00       94.282       46.470       56.681       66.531       46.374       36.469     4426.364     2150.594     1329.995        1.108        0.395      105.112       34.556        0.108      338.825       11.740      865.564
11/29/2013  16:07:00       71.606       33.143       34.397       63.610       41.453       42.596     4046.254     1718.332     1814.408        0.749        0.379       78.904       33.001        0.175      338.802       11.701      865.562
11/29/2013  16:08:00       60.122       58.905       65.043       58.442       36.098       38.517     3415.443     1303.044     1483.597        0.876        0.310       84.169       33.630        0.160      338.819       11.730      865.564
11/29/2013  16:09:00       68.347       46.984       64.722       57.803       48.262       42.426     3341.235     2329.183     1799.948        0.927        0.374       82.939       36.340        0.192      338.843       11.770      865.573
11/29/2013  16:10:00       47.774       54.457       66.009       57.994       47.062       42.888     3363.349     2214.878     1839.405        0.851        0.371       72.443       34.956        0.233      338.865       11.806      865.581
11/29/2013  16:11:00       35.402       84.695      117.994       63.158       58.637       35.917     3988.892     3438.269     1290.043        1.553        0.436       91.796       39.204        0.182      338.889       11.847      865.586
11/29/2013  16:12:00       96.201       65.344       42.565       37.109       46.182       30.351     1377.084     2132.804      921.186        0.988        0.222      116.295       20.480        0.031      338.757       11.626      865.608
11/29/2013  16:13:00      106.248       42.843       20.908       38.126       32.770       28.872     1453.606     1073.883      833.569        0.846        0.168      114.561       21.675        0.036      338.739       11.595      865.620
11/29/2013  16:14:00       67.632       62.599       32.421       35.470       24.307       33.050     1258.121      590.832     1092.278        0.624        0.147       92.155       26.336        0.082      338.677       11.491      865.637
11/29/2013  16:15:00       75.146       53.236       15.013       23.971       28.154       28.704      574.588      792.636      823.906        0.545        0.110       92.092       20.980        0.052      338.625       11.405      865.649
11/29/2013  16:16:00       72.815       52.049       14.093       38.292       35.857       21.453     1466.260     1285.739      460.228        0.571        0.161       89.505       17.516        0.038      338.557       11.289      865.666
11/29/2013  16:17:00      128.130       76.780       38.024       64.438       55.239       34.283     4152.311     3051.308     1175.356        1.607        0.419      149.373       31.199        0.044      338.608       11.375      865.695
11/29/2013  16:18:00      158.059       60.324        3.379       59.205       57.320       38.668     3505.233     3285.635     1495.195        1.846        0.414      169.179       22.639        0.018      338.626       11.403      865.716
11/29/2013  16:19:00       88.636       64.810       22.332       67.285       38.473       28.345     4527.208     1480.162      803.453        0.968        0.341      109.803       14.239        0.017      338.548       11.275      865.733
11/29/2013  16:20:00      117.256       58.576       23.252       51.317       33.741       23.790     2633.457     1138.434      565.964        1.103        0.217      131.073       14.200        0.012      338.482       11.163      865.740
11/29/2013  16:21:00       82.609       68.390       15.145       47.412       34.868       26.606     2247.937     1215.787      707.883        0.795        0.209      107.245       11.367        0.011      338.503       11.198      865.740
11/29/2013  16:22:00      172.576       95.873       25.562       70.573       70.366       43.018     4980.528     4951.439     1850.550        2.570        0.589      197.418       37.760        0.037      338.600       11.360      865.736
11/29/2013  16:23:00       73.594       46.859       14.211       38.981       26.277       23.663     1519.481      690.466      559.944        0.529        0.138       87.246       11.513        0.017      338.432       11.080      865.749
11/29/2013  16:24:00       92.454       82.637        9.779       50.093       34.990       32.250     2509.321     1224.277     1040.090        1.012        0.239      124.002       19.132        0.024      338.527       11.239      865.750
11/29/2013  16:25:00       98.991       69.387       13.495       68.156       48.603       41.831     4645.251     2362.242     1749.844        1.177        0.438      120.888       26.624        0.049      338.469       11.142      865.749
11/29/2013  16:26:00      145.190       99.781        8.443       51.886       42.071       45.401     2692.180     1769.954     2061.227        1.881        0.326      176.171       29.899        0.029      338.445       11.101      865.757
11/29/2013  16:27:00       95.393       59.801        9.694       53.305       44.260       34.955     2841.453     1958.939     1221.862        0.939        0.301      112.587       18.761        0.028      338.381       10.994      865.765
11/29/2013  16:28:00       90.038       69.068        6.489       51.636       30.185       27.752     2666.297      911.159      770.182        0.863        0.217      113.478       15.486        0.019      338.387       11.005      865.777
11/29/2013  16:29:00       99.734       72.748       12.408       40.611       35.310       21.808     1649.260     1246.797      475.610        0.938        0.169      123.447       20.350        0.027      338.346       10.935      865.799
11/29/2013  16:30:00       98.907       62.467        7.475       61.268       48.015       30.788     3753.738     2305.435      947.907        1.037        0.350      116.981       30.128        0.066      338.347       10.936      865.805
11/29/2013  16:31:00       95.689       61.190       21.783       39.859       41.830       32.998     1588.776     1749.728     1088.850        0.890        0.221      113.581       19.594        0.030      338.324       10.898      865.820
11/29/2013  16:32:00       97.677       81.282       10.950       47.626       34.559       34.842     2268.228     1194.298     1213.982        1.047        0.234      127.073       22.505        0.031      338.342       10.929      865.826
11/29/2013  16:33:00       70.544       71.755        2.889       37.718       45.888       39.430     1422.639     2105.725     1554.713        0.761        0.254      100.624       35.208        0.122      338.302       10.860      865.832
11/29/2013  16:34:00       64.154       66.372        9.420       44.616       40.528       33.661     1990.604     1642.554     1133.075        0.669        0.238       92.309       24.963        0.073      338.251       10.775      865.841
11/29/2013  16:35:00       92.368      104.057        1.582       75.357       50.902       37.010     5678.614     2590.991     1369.748        1.450        0.482      139.139       29.766        0.046      338.329       10.906      865.851
11/29/2013  16:36:00       72.444       79.372        4.844       57.885       57.041       40.683     3350.619     3253.657     1655.092        0.991        0.413      107.462       31.884        0.088      338.265       10.798      865.865
11/29/2013  16:37:00       93.761       63.379       19.450       43.337       33.034       28.466     1878.138     1091.230      810.318        0.848        0.189      113.173       23.414        0.043      338.218       10.720      865.878
11/29/2013  16:38:00      107.913       82.190       21.935       51.696       39.864       43.982     2672.506     1589.104     1934.443        1.254        0.310      135.648       25.099        0.034      338.238       10.752      865.893
11/29/2013  16:39:00      117.565       79.726       19.930       56.309       38.597       36.033     3170.710     1489.753     1298.383        1.327        0.298      142.049       20.961        0.022      338.219       10.721      865.911
11/29/2013  16:40:00      122.994       96.651       17.363       71.147       36.585       35.842     5061.882     1338.486     1284.618        1.623        0.384      156.426       28.013        0.032      338.228       10.736      865.920
11/29/2013  16:41:00       52.405       43.031       14.282       36.985       23.636       20.858     1367.918      558.665      435.036        0.358        0.118       67.808       10.910        0.026      338.118       10.553      865.939
11/29/2013  16:42:00       57.458       57.598        2.545       49.376       37.897       28.684     2438.012     1436.156      822.774        0.566        0.235       81.357       25.147        0.096      338.109       10.537      865.960
11/29/2013  16:43:00       36.677       93.026       -9.598       48.849       73.696       26.427     2386.184     5431.036      698.401        0.930        0.426       99.995       25.889        0.067      338.130       10.572      865.969
11/29/2013  16:44:00       82.570       87.743        3.726       52.499       40.858       35.211     2756.100     1669.417     1239.829        1.010        0.283      120.485       30.016        0.062      338.117       10.551      865.983
11/29/2013  16:45:00       52.059      103.961      -16.522       51.671       76.051       42.322     2669.853     5783.719     1791.118        1.202        0.512      116.267       43.687        0.141      338.134       10.578      865.985
11/29/2013  16:46:00       61.080       90.488       -5.654       42.529       48.486       30.797     1808.703     2350.878      948.481        0.853        0.255      109.174       24.336        0.050      338.076       10.483      865.987
11/29/2013  16:47:00       44.319       80.098       -2.574       43.248       55.689       36.006     1870.416     3101.299     1296.436        0.733        0.313       91.541       33.253        0.132      338.025       10.398      866.005
11/29/2013  16:48:00       48.730       70.743        7.566       62.070       57.053       41.147     3852.626     3255.078     1693.115        0.812        0.440       85.903       37.783        0.193      337.989       10.335      866.019
11/29/2013  16:49:00       70.914       98.769        2.655       61.131       88.212       59.463     3736.999     7781.312     3535.870        1.492        0.753      121.590       56.115        0.213      338.029       10.402      866.032
11/29/2013  16:50:00       55.431       72.522       -6.808       52.527       52.639       40.872     2759.115     2770.849     1670.561        0.779        0.360       91.281       32.262        0.125      337.953       10.274      866.049
11/29/2013  16:51:00       45.787      102.174       -0.155       46.033       71.543       39.533     2119.047     5118.386     1562.851        1.067        0.440      111.964       39.817        0.126      337.934       10.243      866.053
11/29/2013  16:52:00       56.826       93.844        1.331       64.154       56.512       44.669     4115.729     3193.565     1995.297        1.067        0.465      109.708       31.423        0.082      337.901       10.187      866.051
11/29/2013  16:53:00       73.975       85.310       -3.012       45.489       55.740       36.478     2069.244     3106.941     1330.615        0.963        0.325      112.916       28.728        0.065      337.912       10.208      866.063
11/29/2013  16:54:00       76.221       73.714       -2.515       47.228       39.429       31.599     2230.522     1554.625      998.518        0.802        0.239      106.034       23.104        0.047      337.853       10.106      866.072
11/29/2013  16:55:00       58.569       66.490       -0.571       45.301       40.524       35.015     2052.159     1642.162     1226.041        0.638        0.246       88.607       25.851        0.085      337.848       10.101      866.080
11/29/2013  16:56:00       26.729       46.453       -0.327       35.194       41.182       28.806     1238.644     1695.925      829.808        0.332        0.188       53.594       26.713        0.248      337.776        9.977      866.091
11/29/2013  16:57:00       30.117       42.234        0.520       27.730       29.444       19.895      768.971      866.978      395.829        0.236        0.102       51.873       17.169        0.110      337.704        9.859      866.090
11/29/2013  16:58:00       30.249       75.420       -5.838       33.261       43.148       25.837     1106.301     1861.714      667.540        0.514        0.182       81.260       26.512        0.106      337.724        9.891      866.091
11/29/2013  16:59:00       53.114      105.238      -15.276       31.752       75.206       28.870     1008.174     5655.968      833.491        1.081        0.375      117.882       37.346        0.100      337.711        9.870      866.096
11/29/2013  17:00:00       39.212      104.307      -10.720       39.551       49.044       34.894     1564.252     2405.361     1217.583        0.886        0.259      111.434       30.767        0.076      337.671        9.801      866.110
11/29/2013  17:01:00       35.193      105.685       -4.231       44.799       75.492       47.261     2006.979     5699.003     2233.581        1.118        0.497      111.391       47.828        0.184      337.660        9.784      866.119
11/29/2013  17:02:00       33.852       96.223      -12.443       38.765       79.376       35.523     1502.730     6300.523     1261.854        0.981        0.453      102.004       43.349        0.181      337.627        9.729      866.132
11/29/2013  17:03:00       40.666      119.462       -3.846       43.705       45.675       36.555     1910.142     2086.208     1336.297        1.064        0.267      126.194       29.911        0.056      337.596        9.677      866.138
11/29/2013  17:04:00       35.607       65.594        1.505       45.355       54.869       33.413     2057.075     3010.610     1116.442        0.588        0.309       74.635       35.250        0.223      337.562        9.620      866.147
11/29/2013  17:05:00       36.365       50.721        8.466       45.239       47.695       29.161     2046.558     2274.846      850.383        0.457        0.259       62.410       30.312        0.236      337.521        9.550      866.148
11/29/2013  17:06:00       57.694       65.276        0.361       48.559       41.911       37.702     2357.934     1756.530     1421.451        0.656        0.277       87.117       27.883        0.102      337.559        9.615      866.146
11/29/2013  17:07:00       65.967       59.151       20.771       56.875       38.314       37.533     3234.731     1467.943     1408.736        0.720        0.306       88.603       20.091        0.051      337.580        9.649      866.140
11/29/2013  17:08:00       59.737       75.824        7.611       48.014       29.017       33.710     2305.384      841.962     1136.338        0.683        0.214       96.529       19.917        0.043      337.581        9.653      866.139
11/29/2013  17:09:00       77.932       65.830        3.094       47.843       35.170       31.833     2288.940     1236.942     1013.348        0.748        0.227      102.015       21.364        0.044      337.564        9.623      866.140
11/29/2013  17:10:00      138.509       95.877       27.736       73.972       46.985       37.279     5471.867     2207.580     1389.719        1.911        0.453      168.455       18.619        0.012      337.638        9.745      866.148
11/29/2013  17:11:00      140.287      101.672       29.144       56.385       42.580       36.732     3179.239     1813.078     1349.226        1.860        0.317      173.256       25.858        0.022      337.637        9.745      866.167
11/29/2013  17:12:00      141.834       87.671        6.230       39.909       41.782       33.226     1592.738     1745.767     1103.976        1.614        0.222      166.743       27.551        0.027      337.645        9.758      866.187
11/29/2013  17:13:00       82.999       66.066       16.321       48.981       32.305       28.226     2399.167     1043.612      796.680        0.788        0.212      106.083       20.845        0.039      337.588        9.663      866.214
11/29/2013  17:14:00       87.598       75.625       20.771       53.264       34.195       27.386     2837.057     1169.302      749.989        0.929        0.238      115.726        8.937        0.006      337.569        9.631      866.243
11/29/2013  17:15:00       62.925       61.459       16.172       42.381       39.740       36.221     1796.120     1579.249     1311.992        0.634        0.234       87.959       24.911        0.080      337.669        9.799      866.263
11/29/2013  17:16:00       22.182       92.638       -6.070       35.359       45.893       31.405     1250.240     2106.154      986.259        0.673        0.217       95.257       28.061        0.087      337.670        9.801      866.278
11/29/2013  17:17:00       36.118       79.688      -10.020       30.603       40.069       26.205      936.572     1605.509      686.689        0.549        0.161       87.491       18.730        0.046      337.605        9.692      866.310
11/29/2013  17:18:00       38.393       67.683       -0.111       32.104       37.455       29.441     1030.671     1402.905      866.764        0.468        0.165       77.814       26.889        0.119      337.579        9.648      866.323
11/29/2013  17:19:00       36.055       72.241      -11.623       34.312       44.299       22.869     1177.327     1962.382      523.011        0.516        0.183       80.739       23.722        0.086      337.615        9.710      866.348
11/29/2013  17:20:00       21.536       77.789       -6.946       30.075       48.411       23.107      904.486     2343.594      533.947        0.517        0.189       80.715       23.320        0.083      337.588        9.663      866.362
11/29/2013  17:21:00       50.132       76.452       -3.368       37.887       61.413       40.963     1435.450     3771.573     1677.928        0.763        0.344       91.423       36.791        0.162      337.628        9.729      866.373
11/29/2013  17:22:00       20.919      117.094      -17.338       39.293       53.291       21.700     1543.903     2839.895      470.904        0.965        0.243      118.948       21.061        0.031      337.594        9.674      866.382
11/29/2013  17:23:00       16.570      127.990      -18.517       32.859       37.093       24.560     1079.711     1375.899      603.207        1.003        0.153      129.058       19.744        0.023      337.596        9.677      866.386
11/29/2013  17:24:00       47.558       92.312      -12.704       29.607       52.662       26.788      876.566     2773.249      717.579        0.766        0.218      103.843       29.281        0.080      337.566        9.629      866.400
11/29/2013  17:25:00       33.786       94.240      -12.007       27.147       55.626       20.849      736.941     3094.230      434.685        0.722        0.213      100.114       24.871        0.062      337.543        9.589      866.406
11/29/2013  17:26:00       24.165       86.709      -11.980       22.248       38.846       20.962      494.957     1508.985      439.398        0.534        0.122       90.013       22.917        0.065      337.556        9.609      866.418
11/29/2013  17:27:00       11.887      106.954      -16.800       43.826       30.276       22.241     1920.688      916.646      494.643        0.760        0.167      107.613       13.544        0.016      337.619        9.715      866.419
11/29/2013  17:28:00        1.717      148.293      -25.518       37.223       55.709       18.974     1385.535     3103.469      360.015        1.375        0.242      148.303       19.207        0.017      337.639        9.750      866.436
11/29/2013  17:29:00       33.447      135.192      -26.769       37.824       44.497       21.247     1430.668     1979.990      451.445        1.199        0.193      139.268       19.688        0.020      337.540        9.583      866.443
11/29/2013  17:30:00       21.591      109.523       -8.742       36.537       41.777       22.557     1334.942     1745.337      508.797        0.806        0.179      111.630       18.070        0.026      337.557        9.611      866.455
11/29/2013  17:31:00       -0.438       95.804       -7.541       31.128       41.660       19.979      968.934     1735.517      399.157        0.617        0.155       95.805       22.993        0.058      337.545        9.591      866.471
11/29/2013  17:32:00       10.616       14.443       11.340       43.275       17.799       17.350     1872.719      316.805      301.038        0.147        0.125       17.925       20.580        1.318      337.409        9.364      866.498
11/29/2013  17:33:00       27.022       89.016      -23.275       34.863       18.458       14.671     1215.450      340.698      215.245        0.548        0.089       93.027       15.530        0.028      337.568        9.629      866.510
11/29/2013  17:34:00      -51.717        0.615      -10.661       29.819       18.315       13.157      889.182      335.422      173.117        0.209        0.070       51.720        9.311        0.032      337.046        8.755      866.525
11/29/2013  17:35:00      -84.378        9.260       -3.967       23.708       21.826       17.315      562.090      476.381      299.820        0.428        0.067       84.884       11.245        0.018      336.896        8.503      866.533
11/29/2013  17:36:00      -69.977       -8.360      -12.384       36.613       12.422       12.768     1340.477      154.309      163.014        0.339        0.083       70.475        9.391        0.018      336.877        8.474      866.535
11/29/2013  17:37:00     -115.916       -2.777      -15.528       24.941       24.966       17.517      622.051      623.284      306.837        0.762        0.078      115.949       12.985        0.013      336.774        8.302      866.533
11/29/2013  17:38:00      -25.108       -3.856        3.037       37.491       18.803       24.267     1405.564      353.537      588.901        0.150        0.117       25.402       19.501        0.589      336.743        8.250      866.551
11/29/2013  17:39:00      -84.621       12.789       -7.913       41.826       25.258       20.078     1749.433      637.952      403.139        0.509        0.140       85.582       20.945        0.060      336.827        8.390      866.551
11/29/2013  17:40:00      -26.128        2.631       -9.549       32.354       27.006       20.851     1046.756      729.302      434.775        0.150        0.111       26.260       19.388        0.545      336.775        8.305      866.573
11/29/2013  17:41:00      -30.566      -18.182       -2.070       54.139       30.370       25.537     2931.034      922.348      652.141        0.289        0.225       35.565       30.630        0.742      336.708        8.192      866.590
11/29/2013  17:42:00      -15.226       -0.727        0.367       32.230       35.301       27.815     1038.779     1246.154      773.655        0.164        0.153       15.244       21.722        2.030      336.672        8.131      866.603
11/29/2013  17:43:00      -58.983      -10.965      -13.203       27.927       22.754       19.655      779.909      517.732      386.328        0.273        0.084       59.993       18.765        0.098      336.699        8.178      866.608
11/29/2013  17:44:00      -74.433      -18.344      -13.987       22.098       20.591       17.783      488.307      423.974      316.253        0.365        0.061       76.660       15.664        0.042      336.677        8.141      866.622
11/29/2013  17:45:00      -82.975        2.700       -9.423       30.188       27.617       18.396      911.309      762.718      338.428        0.450        0.101       83.019       16.830        0.041      336.591        7.995      866.623
11/29/2013  17:46:00      -33.730       -9.299       -4.695       26.458       31.590       18.882      700.051      997.900      356.522        0.165        0.103       34.989       14.608        0.174      336.470        7.793      866.632
11/29/2013  17:47:00      -67.921       -7.032      -15.419       29.575       19.554       14.281      874.707      382.367      203.957        0.318        0.073       68.284       10.663        0.024      336.556        7.936      866.646
11/29/2013  17:48:00      -53.610      -20.390      -11.692       19.520       23.332       17.476      381.038      544.394      305.410        0.233        0.062       57.356       13.817        0.058      336.557        7.940      866.652
11/29/2013  17:49:00      -73.908      -12.182      -10.040       29.863       25.084       16.722      891.819      629.204      279.632        0.376        0.090       74.905       17.153        0.052      336.475        7.801      866.654
11/29/2013  17:50:00      -50.933      -15.630      -10.599       27.412       21.443       16.705      751.407      459.786      279.042        0.222        0.075       53.277       13.016        0.060      336.431        7.728      866.655
11/29/2013  17:51:00      -62.263      -19.203      -12.417       27.257       23.548       12.833      742.971      554.528      164.691        0.293        0.073       65.157        7.956        0.015      336.368        7.621      866.667
11/29/2013  17:52:00      -59.255       -1.983      -12.927       21.883       20.049       15.115      478.869      401.960      228.461        0.240        0.055       59.288       13.476        0.052      336.380        7.643      866.665
11/29/2013  17:53:00      -50.658       -0.986       -7.841       23.854       23.761       14.559      569.029      564.577      211.968        0.199        0.067       50.668       13.054        0.066      336.425        7.719      866.675
11/29/2013  17:54:00      -70.899      -14.487      -16.431       14.535       23.384       10.187      211.252      546.829      103.773        0.318        0.043       72.364        8.248        0.013      336.435        7.735      866.677
11/29/2013  17:55:00      -61.651      -10.806       -8.372       24.314       17.449       15.825      591.169      304.478      250.429        0.257        0.057       62.591       15.322        0.060      336.355        7.601      866.683
11/29/2013  17:56:00      -64.699      -17.143      -13.168       25.116       19.326       11.367      630.809      373.488      129.198        0.289        0.057       66.932        7.638        0.013      336.390        7.659      866.681
11/29/2013  17:57:00      -38.311      -30.890        1.747       22.591       19.220       10.450      510.370      369.395      109.207        0.171        0.049       49.213       10.047        0.042      336.403        7.681      866.695
11/29/2013  17:58:00      -37.050      -29.290       -5.682       15.684       16.858       14.833      246.001      284.188      220.015        0.151        0.038       47.229        9.149        0.038      336.451        7.762      866.713
11/29/2013  17:59:00      -61.040      -30.922       -9.192       12.422       16.469       10.168      154.299      271.228      103.384        0.265        0.026       68.425        8.273        0.015      336.385        7.652      866.727
11/29/2013  18:00:00      -43.267      -22.771       -5.049       26.052       14.134       10.662      678.692      199.765      113.682        0.170        0.050       48.894       11.813        0.058      336.327        7.555      866.748
11/29/2013  18:01:00      -71.454       -5.342      -11.901       21.171       23.696       15.886      448.195      561.493      252.381        0.327        0.063       71.653       14.732        0.042      336.362        7.612      866.762
11/29/2013  18:02:00      -65.286       -8.601      -14.144       30.114       25.784       16.032      906.862      664.824      257.025        0.318        0.091       65.850       10.769        0.027      336.460        7.777      866.788
11/29/2013  18:03:00      -75.092      -13.189       -6.278       51.222       40.475       22.127     2623.656     1638.225      489.614        0.530        0.238       76.241       20.666        0.073      336.437        7.739      866.801
11/29/2013  18:04:00     -119.319        0.913       -8.511       41.886       34.814       22.443     1754.475     1212.037      503.668        0.889        0.174      119.322       10.483        0.008      336.376        7.636      866.822
11/29/2013  18:05:00      -90.723       -4.524      -10.563       35.237       25.573       16.830     1241.666      653.991      283.236        0.527        0.109       90.836       14.808        0.027      336.199        7.340      866.844
11/29/2013  18:06:00      -84.867      -21.121      -10.241       26.460       40.147       19.687      700.158     1611.742      387.594        0.523        0.135       87.456       18.420        0.044      336.122        7.212      866.857
11/29/2013  18:07:00      -41.164       -6.953       -7.503       28.096       27.020       23.494      789.372      730.085      551.957        0.193        0.104       41.747       14.857        0.127      336.217        7.372      866.877
11/29/2013  18:08:00      -97.415      -16.232      -16.054       36.063       25.974       16.337     1300.546      674.651      266.905        0.613        0.112       98.758       16.992        0.030      336.211        7.361      866.890
11/29/2013  18:09:00      -91.828       -6.142      -16.582       25.944       13.728       14.606      673.071      188.462      213.345        0.491        0.054       92.033       12.979        0.020      336.101        7.177      866.902
11/29/2013  18:10:00      -81.480      -22.949      -12.778       24.491       24.275       15.218      599.813      589.264      231.595        0.437        0.071       84.650        9.619        0.013      336.114        7.197      866.913
11/29/2013  18:11:00     -100.957      -20.097      -13.475       27.514       30.389       17.209      757.015      923.515      296.155        0.638        0.099      102.938        7.770        0.006      336.174        7.298      866.918
11/29/2013  18:12:00      -72.611      -35.236      -14.991       23.911       20.608       16.288      571.729      424.693      265.302        0.400        0.063       80.709       10.563        0.017      336.061        7.108      866.934
11/29/2013  18:13:00      -79.763      -31.386       -8.649       23.919       26.598       18.397      572.102      707.468      338.433        0.452        0.081       85.716        9.259        0.012      336.002        7.010      866.946
11/29/2013  18:14:00      -77.653      -15.897       -7.065       26.990       21.074       17.734      728.440      444.112      314.486        0.391        0.074       79.264       13.665        0.030      335.962        6.945      866.972
11/29/2013  18:15:00      -74.864      -13.795      -16.091       16.087       15.842       10.430      258.805      250.974      108.783        0.334        0.031       76.124        6.623        0.008      335.938        6.905      866.983
11/29/2013  18:16:00      -76.208      -16.933      -15.577       30.766       22.211       17.183      946.558      493.334      295.264        0.404        0.087       78.066       14.411        0.034      336.010        7.024      866.991
11/29/2013  18:17:00      -99.883      -36.145      -16.732       37.871       20.584       13.016     1434.221      423.693      169.429        0.679        0.101      106.222        8.862        0.007      335.930        6.891      866.999
11/29/2013  18:18:00     -114.383      -15.858      -21.747       27.413       19.217       15.137      751.467      369.299      229.117        0.758        0.067      115.477        7.670        0.004      335.809        6.690      866.995
11/29/2013  18:19:00      -94.238      -11.730      -15.390       19.233       23.781       15.800      369.897      565.513      249.642        0.522        0.059       94.966       13.115        0.019      335.711        6.527      867.000
11/29/2013  18:20:00     -124.246        7.247      -18.261       21.833       16.758       14.780      476.683      280.837      218.437        0.840        0.049      124.457        8.064        0.004      335.689        6.491      867.002
11/29/2013  18:21:00      -78.864      -30.787      -12.452       22.159       25.359       10.385      491.027      643.063      107.856        0.428        0.062       84.661        5.489        0.004      335.675        6.467      867.012
11/29/2013  18:22:00      -68.182      -22.229      -12.235       12.574       12.254       10.602      158.111      150.162      112.397        0.286        0.021       71.714        6.225        0.008      335.784        6.649      867.029
11/29/2013  18:23:00      -62.343      -26.722      -15.512       14.326       16.786        9.072      205.230      281.766       82.298        0.271        0.028       67.829        7.680        0.013      335.798        6.672      867.022
11/29/2013  18:24:00      -57.411       -5.964      -10.398       13.792       20.150        8.375      190.209      406.036       70.144        0.205        0.033       57.720        8.159        0.020      336.043        7.080      867.015
11/29/2013  18:25:00      -36.932       10.254       -7.654       13.269       15.605       11.357      176.075      243.502      128.975        0.104        0.027       38.329       10.207        0.071      336.392        7.663      867.022
11/29/2013  18:26:00      -40.411       -7.751       -7.598       10.082       10.392        8.797      101.638      107.999       77.387        0.102        0.014       41.147        4.708        0.013      336.218        7.371      867.026
11/29/2013  18:27:00      -55.171      -16.158       -8.334       20.974       23.858        9.459      439.890      569.182       89.468        0.224        0.055       57.488        9.283        0.026      336.318        7.538      867.055
11/29/2013  18:28:00      -96.144      -10.554      -20.765       11.380       11.373       11.811      129.509      129.345      139.488        0.509        0.020       96.722        4.409        0.002      335.855        6.767      867.066
11/29/2013  18:29:00      -80.026      -21.954      -13.986       15.705       16.967       17.760      246.647      287.885      315.433        0.397        0.042       82.983        9.630        0.013      335.682        6.479      867.088
11/29/2013  18:30:00      -75.544       -4.078      -17.487       20.597       17.709       12.890      424.230      313.607      166.151        0.347        0.045       75.654        5.221        0.005      335.694        6.498      867.098
11/29/2013  18:31:00      -85.922        2.114      -14.237       18.800       21.595       13.170      353.439      466.361      173.443        0.429        0.050       85.948        9.323        0.012      335.810        6.693      867.102
11/29/2013  18:32:00      -73.714      -18.377      -11.578       23.237       24.789       13.667      539.953      614.478      186.776        0.362        0.067       75.970       11.631        0.023      335.770        6.627      867.120
11/29/2013  18:33:00      -77.660      -20.309      -13.356       26.660       17.938       13.539      710.776      321.758      183.306        0.392        0.061       80.272       12.191        0.023      335.759        6.607      867.124
11/29/2013  18:34:00      -68.275      -55.847      -14.220       21.331       26.188       13.357      455.012      685.794      178.398        0.465        0.066       88.207        5.064        0.003      335.687        6.488      867.134
11/29/2013  18:35:00      -90.920      -37.091      -20.591       18.119       13.065       11.195      328.282      170.690      125.338        0.535        0.031       98.195        8.056        0.007      335.706        6.519      867.155
11/29/2013  18:36:00      -69.541      -36.169       -6.439       25.085       26.514       20.614      629.258      703.016      424.938        0.397        0.088       78.385       16.791        0.046      335.607        6.354      867.170
11/29/2013  18:37:00      -72.897      -36.114      -13.823       16.324       13.508        9.172      266.466      182.468       84.117        0.367        0.027       81.352        6.470        0.006      335.638        6.406      867.191
11/29/2013  18:38:00      -75.901      -47.455       -7.643       21.317       18.673       15.218      454.425      348.675      231.595        0.455        0.052       89.515       13.319        0.022      335.629        6.390      867.218
11/29/2013  18:39:00     -128.502      -34.073      -16.959       20.364       17.277       10.378      414.697      298.497      107.701        0.939        0.041      132.943        8.600        0.004      335.716        6.535      867.235
11/29/2013  18:40:00     -129.657      -51.929      -13.588       19.647       18.411       11.262      386.018      338.965      126.827        1.027        0.043      139.669        9.629        0.005      335.667        6.453      867.252
11/29/2013  18:41:00      -92.875      -35.909       -5.518       17.543       17.474       12.235      307.761      305.347      149.692        0.535        0.038       99.575        9.810        0.010      335.621        6.377      867.277
11/29/2013  18:42:00     -107.822      -31.699       -5.867       32.903       17.619       11.726     1082.584      310.441      137.488        0.710        0.077      112.385       11.743        0.011      335.634        6.398      867.284
11/29/2013  18:43:00     -129.298      -46.117      -14.343       21.770       18.844       15.879      473.917      355.106      252.157        1.007        0.054      137.277       11.237        0.007      335.594        6.330      867.298
11/29/2013  18:44:00     -142.328      -68.152      -11.849       17.977       18.644       12.861      323.164      347.581      165.394        1.294        0.042      157.804        9.720        0.004      335.490        6.159      867.297
11/29/2013  18:45:00     -127.146      -54.900      -11.203       17.608       19.216       15.493      310.055      369.256      240.047        1.011        0.046      138.493        9.104        0.004      335.413        6.030      867.297
11/29/2013  18:46:00     -110.459      -51.961       -1.534       31.040       27.871       19.972      963.507      776.811      398.893        0.852        0.107      122.070       15.677        0.016      335.515        6.200      867.291
11/29/2013  18:47:00     -128.936      -34.598       -1.179       29.058       25.461       14.518      844.379      648.254      210.762        0.976        0.085      133.498       13.031        0.010      335.461        6.110      867.292
11/29/2013  18:48:00      -83.762      -49.345        3.661       41.798       29.021       17.189     1747.056      842.207      295.464        0.617        0.144       97.216       23.047        0.056      335.415        6.034      867.302
11/29/2013  18:49:00      -56.026      -46.239        5.884       43.827       31.777       20.436     1920.796     1009.798      417.612        0.433        0.167       72.643       20.718        0.081      335.507        6.186      867.312
11/29/2013  18:50:00      -51.762      -30.129        4.162       34.636       21.201       16.800     1199.677      449.469      282.227        0.277        0.097       59.892       19.874        0.110      335.558        6.273      867.310
11/29/2013  18:51:00      -88.663      -55.268      -12.260       22.048       15.054       13.515      486.127      226.626      182.649        0.598        0.045      104.478       10.918        0.011      335.604        6.348      867.320
11/29/2013  18:52:00     -114.320      -48.377      -13.573       12.174       19.703       11.740      148.207      388.212      137.834        0.813        0.034      124.134        6.780        0.003      335.647        6.421      867.305
11/29/2013  18:53:00     -111.542      -53.459      -15.414       12.153       15.009       11.574      147.706      225.265      133.969        0.802        0.025      123.691        5.977        0.002      335.616        6.369      867.308
11/29/2013  18:54:00      -67.706      -50.509       -2.818       30.212       20.857       15.475      912.793      435.035      239.466        0.436        0.079       84.471       14.497        0.029      335.606        6.351      867.305
11/29/2013  18:55:00     -109.193      -63.313       -8.894       25.325       18.659       15.699      641.331      348.145      246.457        0.862        0.062      126.221       13.229        0.011      335.578        6.306      867.305
11/29/2013  18:56:00     -120.933      -66.909      -11.533       15.655       14.750       11.987      245.069      217.571      143.695        0.992        0.030      138.209        6.260        0.002      335.518        6.207      867.312
11/29/2013  18:57:00     -116.421      -66.175      -10.848       19.792       19.995       12.817      391.740      399.804      164.276        0.950        0.048      133.914        8.541        0.004      335.440        6.075      867.300
11/29/2013  18:58:00     -111.320      -54.654      -11.363       13.912       16.278       12.849      193.533      264.983      165.092        0.807        0.031      124.013        8.274        0.004      335.406        6.019      867.302
11/29/2013  18:59:00     -141.592      -17.104      -17.303       17.831       16.153       11.826      317.933      260.905      139.853        1.068        0.036      142.621        6.671        0.002      335.372        5.962      867.310
11/29/2013  19:00:00     -179.175      -47.175      -29.198       14.417       17.788       12.496      207.855      316.410      156.145        1.793        0.034      185.281        7.445        0.002      335.273        5.797      867.305
11/29/2013  19:01:00     -164.848      -55.042      -21.735       21.223       20.492       12.015      450.433      419.927      144.368        1.585        0.051      173.794        3.989        0.001      335.122        5.548      867.302
11/29/2013  19:02:00     -135.758      -65.513      -16.358       36.904       17.167       14.227     1361.903      294.699      202.397        1.242        0.093      150.739        7.900        0.003      335.110        5.525      867.301
11/29/2013  19:03:00     -107.485      -51.372      -16.314       23.548       20.752       13.787      554.513      430.632      190.082        0.782        0.059      119.130        7.000        0.003      334.976        5.304      867.293
11/29/2013  19:04:00     -124.788      -55.215      -13.058       35.500       33.454       21.947     1260.265     1119.137      481.665        1.083        0.143      136.458       20.019        0.022      335.018        5.374      867.282
11/29/2013  19:05:00     -111.454      -64.175       -4.254       43.945       29.709       20.979     1931.135      882.601      440.120        0.991        0.163      128.610       23.713        0.034      335.056        5.437      867.275
11/29/2013  19:06:00     -137.405      -52.709      -19.154       20.468       13.307       11.190      418.947      177.065      125.223        1.137        0.036      147.167        9.495        0.004      334.972        5.299      867.276
11/29/2013  19:07:00     -151.879      -55.567      -19.131       31.508       33.205       19.011      992.724     1102.542      361.419        1.449        0.123      161.724       11.985        0.005      334.937        5.240      867.285
11/29/2013  19:08:00     -151.111      -43.604        2.926       53.751       44.861       34.144     2889.209     2012.551     1165.815        1.540        0.303      157.277       33.566        0.046      334.872        5.132      867.307
11/29/2013  19:09:00     -163.865      -36.756       -7.311       62.329       34.839       25.849     3884.961     1213.757      668.147        1.701        0.288      167.936       33.551        0.040      334.923        5.215      867.316
11/29/2013  19:10:00     -123.892      -38.624       -4.229       52.092       29.903       21.993     2713.548      894.178      483.681        1.047        0.205      129.774       25.499        0.039      334.910        5.194      867.323
11/29/2013  19:11:00     -178.796      -24.889       -8.209       39.954       29.363       22.441     1596.328      862.206      503.621        1.781        0.148      180.520       22.028        0.015      334.976        5.305      867.343
11/29/2013  19:12:00     -126.867      -34.108       -5.846       50.648       27.309       21.698     2565.269      745.760      470.823        1.054        0.189      131.372       24.293        0.034      334.970        5.295      867.359
11/29/2013  19:13:00     -132.398      -28.815       -6.249       42.327       30.769       18.310     1791.612      946.746      335.258        1.074        0.154      135.497       19.454        0.021      334.871        5.129      867.379
11/29/2013  19:14:00     -154.100      -30.995       -4.801       59.662       32.043       25.497     3559.585     1026.754      650.093        1.498        0.262      157.186       30.254        0.037      334.824        5.051      867.395
11/29/2013  19:15:00     -155.775      -32.358       -3.121       53.450       38.843       27.349     2856.872     1508.775      747.955        1.522        0.256      159.100       22.636        0.020      334.853        5.098      867.411
11/29/2013  19:16:00     -128.234      -32.973       -3.316       55.401       33.754       26.330     3069.296     1139.338      693.252        1.122        0.245      132.405       30.892        0.054      334.872        5.131      867.426
11/29/2013  19:17:00     -143.866      -22.327       -9.404       42.743       30.113       20.957     1826.934      906.813      439.191        1.223        0.159      145.589       18.280        0.016      334.905        5.185      867.449
11/29/2013  19:18:00     -154.917      -18.431      -18.063       65.592       29.527       19.811     4302.250      871.856      392.487        1.511        0.278      156.009       23.343        0.022      335.010        5.360      867.462
11/29/2013  19:19:00     -142.092      -25.522       -7.193       46.934       40.104       26.447     2202.771     1608.296      699.453        1.270        0.226      144.366       23.461        0.026      334.964        5.285      867.471
11/29/2013  19:20:00     -184.504      -18.843      -26.237       31.278       33.773       18.156      978.299     1140.605      329.642        1.877        0.122      185.464       16.217        0.008      334.972        5.297      867.483
11/29/2013  19:21:00     -141.957      -33.564      -13.455       41.390       28.935       24.231     1713.116      837.246      587.153        1.230        0.157      145.871       22.815        0.024      334.966        5.287      867.480
11/29/2013  19:22:00     -132.639      -21.471      -17.750       32.987       32.093       17.181     1088.157     1029.952      295.176        1.039        0.121      134.365        9.795        0.005      334.946        5.254      867.475
11/29/2013  19:23:00     -108.857      -11.439       -7.868       32.574       37.010       18.635     1061.036     1369.759      347.280        0.741        0.139      109.456       13.099        0.014      334.982        5.314      867.482
11/29/2013  19:24:00     -186.575       37.677      -14.914       29.265       24.633       16.147      856.446      606.788      260.732        1.909        0.086      190.341        8.478        0.002      335.078        5.474      867.495
11/29/2013  19:25:00     -206.780       32.828      -13.056       23.500       19.591       17.524      552.266      383.820      307.079        2.262        0.062      209.370       14.427        0.005      335.143        5.580      867.501
11/29/2013  19:26:00     -206.958       26.674      -17.542       19.231       25.386       14.468      369.830      644.442      209.312        2.254        0.061      208.670       11.859        0.003      335.093        5.497      867.509
11/29/2013  19:27:00     -202.231       20.832      -18.421       43.176       34.034       19.793     1864.169     1158.312      391.782        2.254        0.171      203.301       19.383        0.009      335.008        5.357      867.515
11/29/2013  19:28:00     -207.361       22.804      -20.197       36.474       28.835       19.379     1330.329      831.438      375.564        2.323        0.127      208.611       14.979        0.005      335.023        5.381      867.521
11/29/2013  19:29:00     -169.950       39.733      -19.783       51.321       40.777       19.649     2633.815     1662.800      386.069        1.777        0.234      174.533       11.852        0.005      335.117        5.538      867.525
11/29/2013  19:30:00     -150.691       19.516      -21.854       49.205       46.375       23.641     2421.136     2150.630      558.920        1.435        0.257      151.950       13.171        0.008      335.081        5.479      867.538
11/29/2013  19:31:00     -176.602        6.400      -14.624       56.268       39.094       32.055     3166.143     1528.359     1027.548        1.858        0.286      176.718       29.797        0.028      334.979        5.308      867.546
11/29/2013  19:32:00     -209.928       35.678      -17.275       42.557       40.254       23.336     1811.111     1620.351      544.579        2.481        0.199      212.938       13.299        0.004      335.159        5.606      867.554
11/29/2013  19:33:00     -131.986       14.167       -6.794       42.104       33.699       27.296     1772.742     1135.621      745.076        1.066        0.183      132.744       19.005        0.020      335.082        5.481      867.574
11/29/2013  19:34:00     -179.755        7.197      -15.235       38.289       37.438       25.299     1466.034     1401.596      640.052        1.805        0.175      179.899       22.065        0.015      334.995        5.336      867.581
11/29/2013  19:35:00     -184.864       -6.012      -15.464       51.868       31.569       25.329     2690.278      996.595      641.541        1.939        0.216      184.962       26.258        0.020      334.968        5.291      867.593
11/29/2013  19:36:00     -148.483       -9.940      -10.916       45.685       47.241       23.214     2087.161     2231.714      538.900        1.356        0.243      148.816       20.277        0.019      334.886        5.155      867.615
11/29/2013  19:37:00     -182.226       35.232      -16.475       29.981       26.268       16.935      898.871      690.003      286.790        1.830        0.094      185.600       12.488        0.005      334.967        5.289      867.640
11/29/2013  19:38:00     -157.077       29.274      -12.629       26.535       35.636       23.786      704.129     1269.911      565.778        1.411        0.127      159.781       17.033        0.011      334.884        5.152      867.647
11/29/2013  19:39:00     -177.776       23.737      -19.538       26.330       23.706       15.422      693.293      561.979      237.830        1.702        0.075      179.354       10.264        0.003      334.859        5.110      867.669
11/29/2013  19:40:00     -168.771        6.862      -19.572       27.418       22.445       22.828      751.755      503.770      521.119        1.534        0.089      168.911       19.621        0.013      334.778        4.974      867.670
11/29/2013  19:41:00     -157.890        5.416      -16.527       38.247       33.987       18.285     1462.834     1155.143      334.333        1.409        0.148      157.983       14.509        0.008      334.741        4.912      867.676
11/29/2013  19:42:00     -149.776       -8.695      -15.699       22.594       29.629       17.476      510.500      877.877      305.422        1.222        0.085      150.028       13.641        0.008      334.753        4.934      867.689
11/29/2013  19:43:00      -86.451      -29.868        3.788       38.476       24.818       21.009     1480.388      615.916      441.379        0.546        0.127       91.465       21.430        0.055      334.715        4.871      867.703
11/29/2013  19:44:00      -64.209      -22.521        5.398       35.547       23.491       17.514     1263.567      551.838      306.743        0.339        0.106       68.044       19.575        0.083      334.788        4.992      867.712
11/29/2013  19:45:00      -98.228      -53.126       -6.874       23.410       27.688       13.142      548.036      766.629      172.722        0.700        0.074      111.674       11.753        0.011      334.905        5.187      867.726
11/29/2013  19:46:00      -56.590      -29.524       -0.658       38.394       20.793       14.255     1474.126      432.369      203.208        0.309        0.105       63.829       10.057        0.025      334.900        5.178      867.736
11/29/2013  19:47:00      -86.716      -47.686       -2.672       24.762       16.219       19.402      613.169      263.069      376.440        0.553        0.063       98.963       13.679        0.019      334.843        5.083      867.747
11/29/2013  19:48:00     -101.570      -42.734       -8.294       14.792       15.036       12.288      218.790      226.090      151.005        0.640        0.030      110.193        6.161        0.003      334.907        5.191      867.760
11/29/2013  19:49:00     -113.253      -40.888       -9.917       10.670       13.005        9.583      113.845      169.139       91.836        0.749        0.019      120.408        3.419        0.001      334.919        5.210      867.765
11/29/2013  19:50:00     -124.276      -43.568      -13.635       14.462       14.539        9.268      209.136      211.397       85.893        0.902        0.025      131.692        7.615        0.003      334.851        5.094      867.762
11/29/2013  19:51:00     -129.150      -33.902      -10.591       19.377       14.678       15.417      375.487      215.457      237.690        0.938        0.041      133.525       11.523        0.007      334.774        4.967      867.759
11/29/2013  19:52:00     -131.351      -38.210       -6.133       22.725       19.524       13.397      516.422      381.187      179.486        0.991        0.054      136.795       11.322        0.007      334.760        4.945      867.758
11/29/2013  19:53:00     -137.853      -44.067      -10.244       25.788       17.824       12.681      665.036      317.684      160.801        1.110        0.057      144.725       11.333        0.006      334.761        4.946      867.767
11/29/2013  19:54:00     -141.508      -40.041       -5.538       34.071       21.482       16.721     1160.821      461.490      279.585        1.178        0.095      147.064       15.776        0.012      334.792        4.999      867.764
11/29/2013  19:55:00     -139.211      -41.606       -7.023       23.993       18.443       14.768      575.680      340.156      218.105        1.115        0.057      145.296       13.216        0.008      334.795        5.003      867.760
11/29/2013  19:56:00      -98.872      -21.644       -4.089       31.529       22.376       15.747      994.058      500.679      247.953        0.600        0.087      101.214       16.424        0.026      334.745        4.921      867.766
11/29/2013  19:57:00      -48.419      -23.131        4.818       37.671       17.863       14.454     1419.126      319.079      208.917        0.242        0.097       53.661       20.610        0.148      334.714        4.870      867.785
11/29/2013  19:58:00      -70.609      -22.852       -5.792       18.096       21.437       11.574      327.453      459.553      133.964        0.323        0.046       74.214        6.504        0.008      334.781        4.980      867.791
11/29/2013  19:59:00      -81.554      -33.592       -1.202       20.405       18.127       10.841      416.379      328.604      117.526        0.432        0.043       88.201       10.574        0.014      334.677        4.808      867.788
11/29/2013  20:00:00      -83.371      -31.951       -4.674       19.987       14.977       12.070      399.488      224.302      145.685        0.438        0.038       89.284        8.751        0.010      334.693        4.833      867.785
11/29/2013  20:01:00      -70.709      -28.234       -6.756       18.682       19.210        9.769      349.027      369.033       95.439        0.333        0.041       76.137        9.280        0.015      334.645        4.756      867.793
11/29/2013  20:02:00      -73.566      -29.719       -1.988       14.726       13.883       10.857      216.856      192.729      117.877        0.341        0.026       79.342        8.209        0.011      334.680        4.812      867.802
11/29/2013  20:03:00      -90.252      -41.526       -6.040       23.862       18.473       13.808      569.390      341.241      190.661        0.550        0.055       99.347       12.192        0.015      334.708        4.857      867.800
11/29/2013  20:04:00     -100.632      -36.240       -3.165       30.188       21.039       15.018      911.342      442.629      225.549        0.651        0.079      106.959       15.034        0.020      334.635        4.736      867.794
11/29/2013  20:05:00     -121.187      -37.718       -3.557       26.398       21.693       16.162      696.869      470.591      261.198        0.877        0.071      126.921       14.696        0.013      334.644        4.751      867.785
11/29/2013  20:06:00     -123.279      -67.884      -13.238       18.292       25.223       16.068      334.584      636.202      258.174        1.060        0.061      140.734        8.065        0.003      334.631        4.732      867.797
11/29/2013  20:07:00     -104.039      -44.516       -3.217       36.493       26.873       21.159     1331.723      722.155      447.694        0.766        0.125      113.163       18.909        0.028      334.563        4.618      867.807
11/29/2013  20:08:00      -94.545      -45.122       -4.541       37.006       26.516       24.201     1369.457      703.089      585.674        0.683        0.133      104.760       20.957        0.040      334.491        4.498      867.805
11/29/2013  20:09:00      -97.815      -31.078       -1.036       25.025       23.631       13.917      626.247      558.406      193.681        0.596        0.069      102.633       13.862        0.018      334.553        4.601      867.807
11/29/2013  20:10:00      -81.296      -34.429       -1.466       16.376       16.106       10.292      268.182      259.401      105.934        0.421        0.032       88.286        5.187        0.003      334.600        4.680      867.816
11/29/2013  20:11:00      -70.700      -35.515       -2.312       13.955       15.963        9.780      194.742      254.817       95.641        0.341        0.027       79.119        6.482        0.007      334.689        4.828      867.817
11/29/2013  20:12:00      -50.892      -39.042       -3.042       19.353       15.090       13.522      374.529      227.710      182.854        0.245        0.039       64.143        7.009        0.012      334.658        4.778      867.836
11/29/2013  20:13:00      -73.626      -47.127        1.491       33.987       23.003       15.391     1155.134      529.134      236.882        0.478        0.096       87.418       14.223        0.026      334.708        4.860      867.844
11/29/2013  20:14:00      -70.732      -40.922        5.615       45.550       21.641       19.377     2074.836      468.325      375.481        0.481        0.146       81.717       16.660        0.042      334.640        4.746      867.848
11/29/2013  20:15:00      -55.267      -53.979        1.401       33.757       31.650       17.210     1139.548     1001.731      296.199        0.420        0.122       77.254       12.349        0.026      334.574        4.637      867.864
11/29/2013  20:16:00      -63.521      -58.095        1.944       30.594       26.268       20.153      936.011      690.014      406.140        0.472        0.102       86.081       15.668        0.033      334.519        4.544      867.871
11/29/2013  20:17:00      -92.305      -62.194       -2.795       18.934       16.382       16.959      358.495      268.371      287.623        0.666        0.046      111.303       14.498        0.017      334.520        4.546      867.876
11/29/2013  20:18:00      -78.777      -58.462       -0.046       28.374       24.319       16.857      805.058      591.433      284.173        0.565        0.084       98.100       16.217        0.027      334.520        4.548      867.892
11/29/2013  20:19:00      -57.600      -41.156        0.810       33.841       25.652       18.064     1145.206      658.008      326.292        0.357        0.106       70.793       16.651        0.055      334.524        4.553      867.901
11/29/2013  20:20:00      -61.066      -43.945        4.104       30.036       20.518       17.787      902.164      420.988      316.380        0.366        0.082       75.235       18.147        0.058      334.516        4.541      867.912
11/29/2013  20:21:00      -33.020      -37.174        6.985       36.162       30.394       14.633     1307.658      923.798      214.136        0.248        0.122       49.721       16.670        0.112      334.520        4.547      867.920
11/29/2013  20:22:00      -74.597      -46.862        1.367       32.796       20.442       15.287     1075.586      417.886      233.695        0.474        0.086       88.096       15.809        0.032      334.558        4.609      867.919
11/29/2013  20:23:00      -85.210      -52.495       -9.558       26.148       16.968       15.473      683.711      287.906      239.408        0.566        0.061      100.082        8.166        0.007      334.497        4.509      867.938
11/29/2013  20:24:00      -85.991      -52.270       -4.314       21.696       18.144       14.516      470.737      329.208      210.714        0.558        0.051      100.631       10.547        0.011      334.469        4.462      867.933
11/29/2013  20:25:00      -98.785      -44.699       -9.378        9.330       14.764       11.984       87.041      217.989      143.617        0.615        0.022      108.427        8.687        0.006      334.346        4.259      867.929
11/29/2013  20:26:00      -97.082      -42.693       -5.585       22.175       16.603       12.919      491.710      275.644      166.908        0.611        0.047      106.055       11.158        0.011      334.353        4.271      867.929
11/29/2013  20:27:00      -84.357      -37.031        0.217       30.215       22.921       14.094      912.917      525.360      198.637        0.506        0.082       92.127       17.045        0.034      334.327        4.226      867.921
11/29/2013  20:28:00      -85.235      -41.291       -2.781       20.970       17.286       10.902      439.759      298.810      118.843        0.492        0.043       94.710        7.157        0.006      334.320        4.215      867.928
11/29/2013  20:29:00     -116.085      -36.271       -4.538       18.574       13.753       10.053      344.987      189.152      101.069        0.772        0.032      121.619        8.811        0.005      334.312        4.203      867.918
11/29/2013  20:30:00     -103.658      -32.465       -1.624       24.245       16.589       15.137      587.837      275.181      229.131        0.645        0.055      108.624       15.696        0.021      334.260        4.115      867.923
11/29/2013  20:31:00      -40.567      -32.858        4.843       42.500       19.792       13.800     1806.265      391.705      190.437        0.257        0.119       52.205       15.426        0.087      334.222        4.052      867.924
11/29/2013  20:32:00      -32.048      -38.173        3.289       22.527       22.004       13.763      507.470      484.185      189.417        0.184        0.059       49.842       15.314        0.094      334.271        4.135      867.931
11/29/2013  20:33:00      -70.642      -53.498       -1.078       12.385       11.256       12.143      153.385      126.689      147.451        0.414        0.021       88.613        8.714        0.010      334.467        4.460      867.945
11/29/2013  20:34:00      -86.008      -21.430      -10.871       13.909       14.455       11.382      193.466      208.953      129.543        0.425        0.027       88.638        7.297        0.007      334.421        4.383      867.945
11/29/2013  20:35:00      -42.768      -25.467        3.352       32.856       19.311       18.098     1079.494      372.928      327.555        0.213        0.089       49.776       16.886        0.115      334.385        4.324      867.964
11/29/2013  20:36:00      -21.978      -20.703        2.581       22.506       14.850       12.030      506.522      220.533      144.709        0.089        0.044       30.193        8.536        0.080      334.409        4.365      867.966
11/29/2013  20:37:00      -82.541      -45.910       -3.209       18.827       14.202       12.939      354.441      201.706      167.423        0.483        0.036       94.450       10.662        0.013      334.393        4.337      867.988
11/29/2013  20:38:00      -81.321      -49.094       -0.832       28.695       18.359       17.324      823.404      337.069      300.116        0.524        0.073       94.992       14.915        0.025      334.371        4.301      867.998
11/29/2013  20:39:00      -64.124      -43.481        4.570       37.631       26.694       15.113     1416.073      712.557      228.404        0.419        0.118       77.476       18.292        0.056      334.303        4.186      868.006
11/29/2013  20:40:00      -89.135      -54.902       -0.362       31.510       24.092       15.142      992.852      580.414      229.288        0.638        0.090      104.687       16.040        0.023      334.397        4.343      868.022
11/29/2013  20:41:00      -89.566      -49.941       -0.564       29.070       21.755       15.540      845.038      473.292      241.492        0.604        0.078      102.548       17.053        0.028      334.385        4.323      868.027
11/29/2013  20:42:00      -93.452      -45.646       -5.593       16.696       19.076       12.238      278.746      363.877      149.774        0.582        0.040      104.004       10.319        0.010      334.361        4.285      868.036
11/29/2013  20:43:00     -102.863      -20.962       -4.062       29.012       18.847       14.644      841.681      355.202      214.449        0.622        0.071      104.977       12.325        0.014      334.310        4.199      868.032
11/29/2013  20:44:00     -129.716      -37.463       -3.669       22.394       17.864       16.435      501.492      319.109      270.119        0.967        0.055      135.018       13.631        0.010      334.229        4.063      868.043
11/29/2013  20:45:00     -123.881      -35.041       -5.683       20.542       20.643       14.791      421.956      426.129      218.774        0.884        0.053      128.742       12.058        0.009      334.246        4.092      868.046
11/29/2013  20:46:00     -105.766      -35.423       -9.201       14.910       13.537       13.240      222.305      183.249      175.299        0.655        0.029      111.540        8.792        0.006      334.238        4.078      868.059
11/29/2013  20:47:00     -101.541      -39.877       -7.569       12.562       16.987       13.244      157.811      288.542      175.406        0.629        0.031      109.091       10.480        0.009      334.237        4.078      868.071
11/29/2013  20:48:00      -89.312      -43.722       -7.039        6.174       10.848        6.918       38.114      117.671       47.856        0.507        0.010       99.440        2.765        0.001      334.246        4.092      868.078
11/29/2013  20:49:00      -83.613      -30.544      -12.301        9.350        9.752        5.970       87.430       95.106       35.638        0.415        0.011       89.017        5.583        0.004      334.229        4.063      868.097
11/29/2013  20:50:00      -76.290      -38.880      -11.328        9.218        9.384        7.029       84.979       88.052       49.405        0.384        0.011       85.626        5.707        0.004      334.256        4.109      868.106
11/29/2013  20:51:00      -67.122      -38.214       -9.038        7.188        5.175        6.149       51.665       26.783       37.807        0.308        0.006       77.237        2.343        0.001      334.361        4.286      868.108
11/29/2013  20:52:00      -66.572      -33.201      -13.395        4.757        5.012        6.347       22.632       25.120       40.288        0.290        0.004       74.392        4.161        0.003      334.354        4.271      868.124
11/29/2013  20:53:00      -63.554      -31.701      -10.931        6.623        8.653        5.985       43.858       74.879       35.819        0.266        0.008       71.022        2.568        0.001      334.349        4.262      868.124
11/29/2013  20:54:00      -75.499      -33.092      -11.858        9.915        6.959        6.070       98.307       48.428       36.847        0.356        0.009       82.433        5.412        0.004      334.284        4.156      868.130
11/29/2013  20:55:00      -92.371      -32.569      -11.605        8.901        8.116        5.708       79.223       65.876       32.577        0.495        0.009       97.944        3.713        0.001      334.236        4.076      868.133
11/29/2013  20:56:00      -99.281      -27.637      -10.861        7.054        8.131        5.813       49.755       66.110       33.789        0.544        0.007      103.056        3.029        0.001      334.235        4.074      868.144
11/29/2013  20:57:00     -102.182      -42.071       -8.960        8.843        9.624        7.787       78.199       92.625       60.644        0.626        0.012      110.504        4.704        0.002      334.176        3.976      868.158
11/29/2013  20:58:00     -108.907      -33.490      -16.453       15.416       11.739        9.690      237.653      137.815       93.890        0.686        0.023      113.940        2.848        0.001      334.183        3.986      868.154
11/29/2013  20:59:00     -112.060      -47.138      -18.266       12.823       15.074       10.814      164.440      227.233      116.935        0.781        0.025      121.571        5.436        0.002      334.138        3.912      868.169
11/29/2013  21:00:00     -116.483      -31.948      -15.020       10.197       13.708       10.338      103.988      187.914      106.869        0.761        0.020      120.785        6.162        0.003      334.129        3.900      868.170
11/29/2013  21:01:00     -107.626      -26.955       -8.585       14.241       18.638       11.932      202.799      347.385      142.380        0.654        0.035      110.951        8.069        0.005      334.083        3.820      868.157
11/29/2013  21:02:00     -103.212      -28.641       -6.970       16.870       13.190       11.005      284.609      173.967      121.115        0.605        0.029      107.113        8.938        0.007      334.040        3.751      868.159
11/29/2013  21:03:00      -90.118      -17.921       -6.939       19.331       20.458       13.485      373.696      418.529      181.858        0.473        0.049       91.882       11.766        0.016      334.028        3.731      868.163
11/29/2013  21:04:00      -83.103      -17.081       -7.342       15.223       14.389       10.673      231.732      207.035      113.916        0.390        0.028       84.840        8.526        0.010      334.078        3.812      868.160
11/29/2013  21:05:00      -92.020      -11.566      -12.310       16.038       11.167        8.693      257.218      124.696       75.563        0.461        0.023       92.744        5.087        0.003      334.089        3.831      868.163
11/29/2013  21:06:00     -109.011      -14.626      -14.956        9.046       11.264        7.978       81.822      126.869       63.642        0.630        0.014      109.988        4.868        0.002      334.098        3.848      868.169
11/29/2013  21:07:00     -121.015      -29.976      -21.328        8.719        7.294        7.928       76.022       53.203       62.860        0.810        0.010      124.673        4.715        0.001      334.130        3.900      868.166
11/29/2013  21:08:00     -109.599      -15.724      -21.034       12.479        7.826        7.185      155.721       61.245       51.624        0.649        0.013      110.721        4.640        0.002      334.074        3.808      868.182
11/29/2013  21:09:00      -92.409      -27.533      -13.927       14.726       19.176       13.222      216.851      367.713      174.834        0.513        0.038       96.424        6.882        0.005      333.980        3.653      868.183
11/29/2013  21:10:00      -53.712      -37.829       -3.040       30.908       22.115       19.346      955.292      489.063      374.275        0.307        0.091       65.696       17.464        0.071      333.947        3.597      868.190
11/29/2013  21:11:00      -58.437      -45.920       -0.135       32.672       21.710       19.915     1067.466      471.306      396.626        0.373        0.097       74.320       17.507        0.055      333.860        3.452      868.202
11/29/2013  21:12:00      -96.068      -43.079      -15.936       33.187       20.422       16.805     1101.350      417.070      282.399        0.657        0.090      105.285       10.270        0.010      333.763        3.290      868.210
11/29/2013  21:13:00      -94.990      -29.241       -7.284       49.003       35.038       19.078     2401.274     1227.673      363.982        0.696        0.200       99.389       19.855        0.040      333.679        3.151      868.220
11/29/2013  21:14:00     -101.683        8.871       -3.098       59.305       33.392       29.282     3517.140     1115.048      857.421        0.796        0.274      102.069       28.771        0.079      333.747        3.264      868.239
11/29/2013  21:15:00      -83.743       -4.666       -1.736       58.460       37.079       33.386     3417.626     1374.840     1114.631        0.647        0.295       83.873       34.038        0.165      333.708        3.200      868.239
11/29/2013  21:16:00      -82.770       18.488       -4.680       54.695       36.350       23.547     2991.526     1321.352      554.477        0.604        0.243       84.810       27.061        0.102      333.675        3.146      868.245
11/29/2013  21:17:00      -48.250       22.081       -4.688       45.779       46.771       32.992     2095.728     2187.563     1088.478        0.410        0.269       53.063       28.893        0.296      333.760        3.286      868.256
11/29/2013  21:18:00      -92.494       11.690      -11.583       48.775       39.526       23.521     2379.047     1562.278      553.261        0.666        0.225       93.230       19.002        0.042      333.811        3.371      868.253
11/29/2013  21:19:00     -101.865      -34.101      -13.650       35.409       40.690       23.703     1253.799     1655.695      561.831        0.760        0.174      107.421       11.850        0.012      333.809        3.366      868.251
11/29/2013  21:20:00      -71.516      -33.723        3.241       31.658       35.232       22.152     1002.255     1241.286      490.697        0.450        0.137       79.068       13.506        0.029      333.765        3.295      868.251
11/29/2013  21:21:00      -82.530      -10.114      -12.080       28.058       25.960       15.843      787.271      673.936      250.997        0.439        0.086       83.148       12.501        0.023      333.717        3.214      868.265
11/29/2013  21:22:00      -90.273      -14.533      -21.551       21.432       15.258       14.684      459.349      232.802      215.630        0.487        0.045       91.435       11.543        0.016      333.857        3.447      868.265
11/29/2013  21:23:00      -79.694      -14.710      -19.522       12.098       20.367       14.355      146.357      414.805      206.076        0.386        0.038       81.040        6.947        0.007      333.830        3.401      868.260
11/29/2013  21:24:00      -57.904      -21.597       -9.999       18.693       17.487       14.849      349.435      305.809      220.480        0.240        0.044       61.801       10.955        0.031      333.889        3.501      868.270
11/29/2013  21:25:00      -52.323      -23.044      -13.232       14.516       14.802       13.826      210.711      219.103      191.171        0.203        0.031       57.172        6.548        0.013      333.924        3.559      868.269
11/29/2013  21:26:00      -70.300      -13.488      -12.496        7.461        8.067        9.403       55.669       65.072       88.412        0.274        0.010       71.582        3.627        0.003      333.891        3.505      868.253
11/29/2013  21:27:00      -67.171      -21.690      -13.395       14.729       16.109        9.856      216.939      259.493       97.149        0.287        0.029       70.586        7.684        0.012      333.763        3.292      868.255
11/29/2013  21:28:00      -84.576      -14.952      -14.807       17.364       15.774       13.351      301.501      248.831      178.243        0.416        0.036       85.887        7.429        0.007      333.712        3.206      868.262
11/29/2013  21:29:00      -70.931      -15.241      -15.872        9.938       12.035        8.834       98.766      144.836       78.045        0.292        0.016       72.550        5.051        0.005      333.703        3.191      868.260
11/29/2013  21:30:00      -81.138      -29.863      -11.998       16.907       22.006       11.557      285.849      484.248      133.566        0.426        0.045       86.459        7.436        0.007      333.704        3.194      868.257
11/29/2013  21:31:00      -88.636      -35.968      -10.486       20.406       16.431       14.703      416.396      269.963      216.183        0.508        0.045       95.656        8.109        0.007      333.691        3.172      868.272
11/29/2013  21:32:00      -89.689      -42.083      -18.034       24.435       23.014       13.475      597.074      529.662      181.586        0.572        0.065       99.071       12.924        0.017      333.606        3.032      868.274
11/29/2013  21:33:00      -97.381      -27.499       -7.124       25.601       32.021       16.839      655.403     1025.357      283.541        0.613        0.098      101.189       12.955        0.016      333.627        3.066      868.278
11/29/2013  21:34:00      -98.065      -56.819      -16.752       25.149       24.776       15.258      632.470      613.868      232.820        0.730        0.074      113.336        9.754        0.007      333.573        2.977      868.289
11/29/2013  21:35:00     -122.062      -59.051      -12.424       29.504       29.241       18.026      870.467      855.031      324.921        1.029        0.103      135.595       11.350        0.007      333.549        2.937      868.302
11/29/2013  21:36:00     -122.742      -39.855       -7.234       40.471       17.860       15.305     1637.926      318.969      234.248        0.945        0.110      129.051       11.892        0.008      333.513        2.877      868.311
11/29/2013  21:37:00     -109.570      -53.937      -11.768       25.539       17.938       13.347      652.242      321.762      178.145        0.810        0.058      122.126        8.107        0.004      333.540        2.923      868.313
11/29/2013  21:38:00      -89.986      -61.779       -3.236       44.115       24.336       18.229     1946.140      592.256      332.302        0.740        0.144      109.152        8.727        0.006      333.530        2.904      868.316
11/29/2013  21:39:00     -107.362      -76.594       -6.952       43.304       27.415       25.800     1875.271      751.579      665.655        1.037        0.165      131.883       23.250        0.031      333.552        2.940      868.322
11/29/2013  21:40:00     -133.062      -56.457      -15.050       19.917       22.334       16.006      396.683      498.808      256.200        1.114        0.058      144.544       11.536        0.006      333.546        2.931      868.321
11/29/2013  21:41:00     -157.182      -50.803       -4.942       27.779       20.844       17.942      771.681      434.477      321.903        1.442        0.076      165.188       16.415        0.010      333.557        2.948      868.327
11/29/2013  21:42:00     -149.295      -58.134        5.501       30.580       25.962       19.923      935.117      674.041      396.918        1.385        0.100      160.214       18.911        0.014      333.515        2.880      868.332
11/29/2013  21:43:00     -144.858      -68.390        0.121       35.180       26.094       21.545     1237.618      680.886      464.198        1.402        0.119      160.191       18.869        0.014      333.530        2.905      868.331
11/29/2013  21:44:00     -133.918      -59.078        4.987       34.742       38.276       19.490     1207.011     1465.076      379.875        1.225        0.153      146.370       16.059        0.012      333.588        3.001      868.344
11/29/2013  21:45:00     -133.733      -70.817       -3.898       26.394       33.036       19.459      696.667     1091.387      378.634        1.254        0.108      151.326       15.783        0.011      333.619        3.052      868.342
11/29/2013  21:46:00     -119.838      -54.279       -0.083       39.984       31.119       16.326     1598.704      968.384      266.526        1.007        0.142      131.557       12.857        0.010      333.560        2.954      868.341
11/29/2013  21:47:00     -102.272      -45.921        4.020       35.603       26.947       19.598     1267.564      726.141      384.091        0.748        0.119      112.109       20.224        0.033      333.529        2.903      868.336
11/29/2013  21:48:00     -115.907      -53.100        0.997       39.886       26.886       18.977     1590.915      722.868      360.116        0.946        0.134      127.491       20.551        0.026      333.511        2.872      868.333
11/29/2013  21:49:00     -100.854      -56.302       -4.771       33.827       28.801       19.078     1144.240      829.499      363.975        0.785        0.117      115.505       17.675        0.023      333.537        2.915      868.334
11/29/2013  21:50:00     -113.219      -65.931       -5.883       29.399       22.249       18.770      864.311      495.026      352.305        0.946        0.086      131.017       13.118        0.010      333.558        2.951      868.336
11/29/2013  21:51:00     -110.494      -51.808       -6.600       28.008       13.355       11.668      784.439      178.344      136.147        0.802        0.055      122.037        6.253        0.003      333.545        2.930      868.331
11/29/2013  21:52:00     -115.980      -44.561       -7.661       15.996       17.514       12.634      255.869      306.738      159.613        0.811        0.036      124.246        9.907        0.006      333.520        2.886      868.337
11/29/2013  21:53:00     -104.319      -39.191       -4.969       21.540       22.260       12.826      463.989      495.525      164.515        0.678        0.056      111.438       11.320        0.010      333.489        2.836      868.339
11/29/2013  21:54:00     -105.495      -57.947       -7.460       27.758       20.796       15.815      770.509      432.492      250.113        0.800        0.073      120.362       17.128        0.020      333.511        2.873      868.336
11/29/2013  21:55:00      -73.525      -34.202        1.327       24.691       22.340       15.725      609.655      499.075      247.274        0.397        0.068       81.090       10.860        0.018      333.494        2.844      868.331
11/29/2013  21:56:00      -69.468      -44.727        1.103       25.582       18.208       17.921      654.429      331.541      321.155        0.407        0.065       82.622       15.328        0.034      333.506        2.864      868.327
11/29/2013  21:57:00      -84.277      -50.131       -1.866       23.304       17.777       14.730      543.072      316.011      216.968        0.535        0.054       98.060       13.351        0.019      333.436        2.748      868.319
11/29/2013  21:58:00      -76.787      -48.568        1.035       23.511       17.886       14.390      552.751      319.896      207.064        0.467        0.054       90.858       12.150        0.018      333.444        2.762      868.324
11/29/2013  21:59:00      -83.582      -40.006        1.451       30.101       21.343       15.015      906.080      455.531      225.449        0.509        0.079       92.663        9.592        0.011      333.370        2.640      868.313
11/29/2013  22:00:00      -83.292      -45.178        1.575       31.026       21.752       20.706      962.634      473.154      428.738        0.542        0.093       94.756       15.012        0.025      333.402        2.693      868.314
11/29/2013  22:01:00     -128.456      -71.373       -0.709       30.696       22.389       23.523      942.217      501.278      553.308        1.180        0.100      146.953       17.657        0.014      333.440        2.755      868.319
11/29/2013  22:02:00     -125.324      -71.832       -3.960       29.680       23.093       19.452      880.883      533.274      378.394        1.134        0.090      144.450       13.601        0.009      333.377        2.652      868.320
11/29/2013  22:03:00     -104.477      -59.043       -5.087       34.221       28.004       18.220     1171.101      784.243      331.978        0.836        0.114      120.006       13.940        0.013      333.370        2.640      868.321
11/29/2013  22:04:00     -115.022      -46.674       -8.625       15.188       16.808        9.274      230.677      282.503       86.000        0.804        0.030      124.131        3.396        0.001      333.312        2.546      868.325
11/29/2013  22:05:00      -96.969      -34.037      -10.219       23.739       14.554       14.887      563.527      211.819      221.629        0.583        0.050      102.769       11.766        0.013      333.301        2.526      868.317
11/29/2013  22:06:00     -104.676      -45.721       -2.351       27.591       16.154       18.542      761.240      260.942      343.790        0.721        0.068      114.225       18.418        0.026      333.373        2.645      868.307
11/29/2013  22:07:00      -98.393      -46.507       -4.317       20.037       15.921       10.711      401.500      253.487      114.724        0.632        0.038      108.831       10.428        0.009      333.383        2.662      868.309
11/29/2013  22:08:00      -84.181      -34.735       -4.219       16.143       14.691       12.151      260.583      215.840      147.647        0.447        0.031       91.065       10.845        0.014      333.292        2.511      868.293
11/29/2013  22:09:00      -56.989      -31.463        7.261       20.395       25.118       14.806      415.972      630.913      219.222        0.278        0.063       65.097       12.628        0.038      333.255        2.450      868.287
11/29/2013  22:10:00      -56.187      -38.556        6.143       31.615       20.244       17.860      999.510      409.812      318.972        0.320        0.086       68.143       15.884        0.054      333.234        2.414      868.298
11/29/2013  22:11:00      -60.779      -43.987        2.013       50.867       34.536       19.969     2587.439     1192.752      398.773        0.491        0.209       75.026       19.899        0.070      333.271        2.476      868.292
11/29/2013  22:12:00     -111.050      -88.136      -11.776       38.755       38.558       22.049     1501.974     1486.738      486.155        1.186        0.174      141.775       14.592        0.011      333.327        2.569      868.296
11/29/2013  22:13:00     -110.417      -61.254       -1.050       40.994       50.625       26.223     1680.474     2562.933      687.668        1.044        0.247      126.269       22.209        0.031      333.377        2.651      868.311
11/29/2013  22:14:00     -118.822      -68.717        1.488       54.917       47.810       29.392     3015.833     2285.825      863.887        1.250        0.308      137.261       30.032        0.048      333.373        2.644      868.310
11/29/2013  22:15:00     -119.658      -75.723        2.680       44.401       30.648       24.386     1971.438      939.286      594.694        1.178        0.175      141.605       16.056        0.013      333.247        2.436      868.311
11/29/2013  22:16:00      -96.096      -53.402       -0.369       52.278       35.528       28.489     2733.032     1262.253      811.631        0.845        0.240      109.937       22.189        0.041      333.200        2.358      868.313
11/29/2013  22:17:00     -116.190      -48.839       -5.137       34.961       27.266       16.225     1222.275      743.424      263.258        0.907        0.111      126.037       15.763        0.016      333.206        2.368      868.327
11/29/2013  22:18:00     -118.420      -32.690       -9.550       26.914       21.972       11.460      724.388      482.784      131.320        0.826        0.067      122.850        9.345        0.006      333.180        2.324      868.322
11/29/2013  22:19:00     -120.701      -24.623       -3.572       27.315       22.688       14.911      746.091      514.744      222.349        0.834        0.074      123.187       13.004        0.011      333.128        2.240      868.305
11/29/2013  22:20:00     -113.909      -28.136       -2.180       34.037       23.773       21.285     1158.484      565.145      453.050        0.797        0.109      117.332       20.799        0.031      333.121        2.229      868.295
11/29/2013  22:21:00     -123.920      -26.247       -3.648       23.213       20.633       16.399      538.846      425.737      268.943        0.865        0.062      126.669       13.162        0.011      333.131        2.243      868.282
11/29/2013  22:22:00     -116.486      -29.133       -9.311       18.312       17.791       13.615      335.325      316.530      185.358        0.767        0.042      120.074        6.179        0.003      333.170        2.309      868.284
11/29/2013  22:23:00     -113.679      -17.185       -9.694       19.659       16.522       14.897      386.475      272.974      221.924        0.710        0.044      114.970       12.476        0.012      333.135        2.251      868.272
11/29/2013  22:24:00     -123.869      -19.893      -10.558       17.938       15.948       12.568      321.781      254.330      157.966        0.829        0.037      125.457        7.591        0.004      333.119        2.225      868.264
11/29/2013  22:25:00     -110.842      -31.299       -8.902       20.247       15.065       11.438      409.928      226.964      130.817        0.706        0.038      115.176       10.377        0.008      333.104        2.200      868.263
11/29/2013  22:26:00      -88.772      -40.062       -7.218       20.571       17.784        9.937      423.175      316.273       98.747        0.519        0.042       97.393        7.542        0.006      333.132        2.246      868.272
11/29/2013  22:27:00      -91.826      -64.207      -14.304       14.760       13.961       12.707      217.872      194.919      161.467        0.667        0.029      112.047        8.186        0.005      333.085        2.171      868.288
11/29/2013  22:28:00      -92.629      -44.735      -12.737       20.020       18.148       15.350      400.799      329.356      235.635        0.585        0.048      102.866       11.478        0.012      333.073        2.151      868.302
11/29/2013  22:29:00     -118.668      -37.242      -18.385       16.100       12.526       11.509      259.195      156.897      132.465        0.818        0.027      124.374        8.720        0.005      333.061        2.130      868.307
11/29/2013  22:30:00     -112.803      -27.534      -16.369       14.840       17.877       13.657      220.240      319.599      186.515        0.724        0.036      116.115        9.288        0.006      332.999        2.025      868.311
11/29/2013  22:31:00      -99.725      -26.807      -19.945       19.979       18.835       14.364      399.150      354.775      206.321        0.601        0.048      103.265       12.352        0.014      332.967        1.972      868.321
11/29/2013  22:32:00     -107.610      -10.324      -12.924       32.649       22.466       16.508     1065.988      504.703      272.501        0.685        0.092      108.104       16.617        0.024      332.927        1.907      868.327
11/29/2013  22:33:00      -85.469      -11.710       -7.189       44.011       26.479       23.748     1937.011      701.120      563.968        0.535        0.160       86.268       24.397        0.080      332.891        1.850      868.338
11/29/2013  22:34:00     -107.811      -22.139       -9.127       29.373       25.857       17.359      862.762      668.592      301.320        0.701        0.092      110.060       13.204        0.014      332.841        1.767      868.346
11/29/2013  22:35:00      -92.121      -16.173      -11.613       37.291       22.773       16.318     1390.653      518.596      266.288        0.553        0.109       93.530       14.745        0.025      332.863        1.804      868.353
11/29/2013  22:36:00     -106.325       -9.621      -11.873       30.797       20.186       21.702      948.471      407.488      470.985        0.668        0.091      106.760       21.480        0.040      332.841        1.766      868.375
11/29/2013  22:37:00     -110.891      -19.904      -15.557       24.563       18.676       12.594      603.341      348.796      158.606        0.702        0.056      112.663        7.628        0.005      332.859        1.798      868.375
11/29/2013  22:38:00     -102.949      -24.524       -8.703       21.985       21.059       15.344      483.342      443.496      235.433        0.622        0.058      105.829        9.803        0.009      332.880        1.831      868.371
11/29/2013  22:39:00     -101.835      -17.629      -12.296       17.400       20.430       17.903      302.776      417.369      320.502        0.594        0.052      103.350       10.142        0.010      332.932        1.916      868.363
11/29/2013  22:40:00      -92.426      -25.126      -14.041       22.503       20.659       12.898      506.377      426.813      166.355        0.524        0.055       95.780       10.461        0.012      332.964        1.968      868.365
11/29/2013  22:41:00     -101.317      -15.670      -19.776       23.350       17.470       16.548      545.223      305.197      273.825        0.601        0.056      102.522       12.431        0.015      332.890        1.847      868.365
11/29/2013  22:42:00      -79.613      -31.221      -17.374       19.692       21.724       15.081      387.789      471.942      227.447        0.435        0.054       85.516       10.075        0.014      332.938        1.927      868.355
11/29/2013  22:43:00      -84.002      -32.339      -10.508       25.197       18.171       17.104      634.894      330.186      292.541        0.473        0.063       90.011       15.650        0.030      332.911        1.882      868.348
11/29/2013  22:44:00      -92.851      -27.255      -18.038       19.513       20.238       11.855      380.760      409.591      140.552        0.531        0.047       96.768       10.376        0.011      332.931        1.916      868.344
11/29/2013  22:45:00      -83.652      -33.905      -27.798       19.655       20.740       15.211      386.310      430.164      231.380        0.498        0.052       90.262        8.098        0.008      333.008        2.040      868.332
11/29/2013  22:46:00      -63.132      -48.092      -10.522       20.802       15.462       14.369      432.703      239.085      206.466        0.364        0.044       79.363       11.781        0.022      333.021        2.064      868.319
11/29/2013  22:47:00      -67.784      -32.643      -13.015       11.363       14.723        8.519      129.108      216.759       72.567        0.312        0.021       75.235        5.550        0.005      332.998        2.026      868.310
11/29/2013  22:48:00      -66.828      -21.388       -7.502       11.492       14.738        8.871      132.069      217.196       78.695        0.270        0.021       70.167        2.219        0.001      333.014        2.050      868.312
11/29/2013  22:49:00      -77.762      -25.032       -8.390       13.152       11.568        9.273      172.975      133.830       85.988        0.357        0.020       81.692        5.031        0.004      332.944        1.936      868.307
11/29/2013  22:50:00      -65.298      -25.741       -9.364       23.898       17.359       12.037      571.137      301.332      144.888        0.302        0.051       70.189       13.565        0.037      332.945        1.938      868.301
11/29/2013  22:51:00      -73.213      -38.883       -9.276       15.092       18.778       10.830      227.781      352.626      117.296        0.383        0.035       82.898        8.340        0.010      333.077        2.157      868.300
11/29/2013  22:52:00      -92.503      -46.282       -9.157       12.956       13.935       11.879      167.857      194.198      141.120        0.564        0.025      103.435        6.976        0.005      333.081        2.161      868.302
11/29/2013  22:53:00      -91.382      -30.317      -15.024       10.400       11.008       10.842      108.168      121.166      117.543        0.492        0.017       96.279        7.957        0.007      333.060        2.129      868.306
11/29/2013  22:54:00      -93.964      -19.580      -12.309       15.833       12.155       12.093      250.670      147.734      146.241        0.495        0.027       95.982       10.559        0.012      333.094        2.186      868.308
11/29/2013  22:55:00      -83.592      -14.181      -12.832       11.305       13.141       11.303      127.813      172.675      127.764        0.389        0.021       84.786        7.115        0.007      333.048        2.109      868.328
11/29/2013  22:56:00      -90.350      -23.510      -13.232       15.127       13.308       10.603      228.834      177.108      112.417        0.470        0.026       93.359        3.174        0.001      333.009        2.043      868.335
11/29/2013  22:57:00      -86.174      -42.557      -11.242       15.142       17.359       13.830      229.294      301.336      191.257        0.504        0.036       96.109        5.914        0.004      333.006        2.038      868.336
11/29/2013  22:58:00      -76.549      -30.701      -14.150       17.014       17.531       10.649      289.475      307.335      113.401        0.386        0.036       82.476        4.846        0.003      332.912        1.883      868.339
11/29/2013  22:59:00      -74.140      -43.918      -13.330       22.163       18.377       13.595      491.179      337.728      184.819        0.431        0.051       86.171        9.399        0.012      332.896        1.856      868.355
11/29/2013  23:00:00      -93.599      -48.212      -17.127       15.619       19.874        9.796      243.956      394.976       95.969        0.606        0.037      105.286        7.274        0.005      332.888        1.845      868.370
11/29/2013  23:01:00      -85.605      -59.091       -7.343       17.899       18.891       13.000      320.375      356.871      168.994        0.586        0.042      104.019        8.124        0.006      332.872        1.819      868.376
11/29/2013  23:02:00      -79.101      -42.266       -9.963       15.186       12.187       10.723      230.622      148.512      114.982        0.432        0.025       89.685        7.942        0.008      332.818        1.730      868.389
11/29/2013  23:03:00      -63.140      -32.119      -10.069       11.741       11.644       10.948      137.856      135.587      119.868        0.276        0.020       70.840        5.823        0.007      332.830        1.749      868.408
11/29/2013  23:04:00      -60.936      -30.388      -11.675       12.612       12.327        8.472      159.070      151.960       71.780        0.258        0.019       68.093        4.976        0.005      332.889        1.847      868.429
11/29/2013  23:05:00      -67.628      -27.973      -13.579       10.953       11.486        7.481      119.957      131.919       55.971        0.292        0.015       73.185        3.406        0.002      332.904        1.871      868.434
11/29/2013  23:06:00      -65.180      -17.938      -17.015       18.357       14.411        9.868      336.980      207.691       97.384        0.275        0.032       67.603        4.762        0.005      332.895        1.856      868.436
11/29/2013  23:07:00      -64.522      -21.455      -12.185       15.256       15.574        9.641      232.758      242.538       92.954        0.267        0.028       67.996        5.517        0.007      332.949        1.944      868.452
11/29/2013  23:08:00      -77.142      -16.666      -12.334       10.449       12.570        8.772      109.181      157.996       76.955        0.336        0.017       78.921        6.001        0.006      332.937        1.924      868.467
11/29/2013  23:09:00      -84.121      -19.690      -14.842       12.057       12.878        9.287      145.373      165.854       86.256        0.404        0.020       86.394        6.237        0.005      332.901        1.866      868.465
11/29/2013  23:10:00      -80.935       -7.080      -15.123       12.823       12.704        8.948      164.426      161.385       80.060        0.362        0.020       81.244        5.327        0.004      332.938        1.926      868.463
11/29/2013  23:11:00      -61.988       -6.587      -10.287       21.185       11.714       10.581      448.785      137.226      111.968        0.234        0.035       62.337       12.339        0.039      332.975        1.986      868.471
11/29/2013  23:12:00      -52.165      -21.706      -10.099        9.854       12.205        8.697       97.093      148.954       75.633        0.181        0.016       56.501        5.056        0.008      333.013        2.051      868.484
11/29/2013  23:13:00      -59.497       -9.576      -11.943       14.492       13.792        8.069      210.021      190.206       65.110        0.212        0.023       60.262        6.630        0.012      333.049        2.110      868.496
11/29/2013  23:14:00      -76.503      -13.436       -8.915       14.635       10.782       10.612      214.180      116.256      112.605        0.328        0.022       77.674        4.908        0.004      333.011        2.046      868.497
11/29/2013  23:15:00      -63.484       -5.789      -11.382       13.892       15.092       10.945      192.975      227.770      119.804        0.237        0.027       63.748        8.691        0.019      332.979        1.993      868.496
11/29/2013  23:16:00      -83.426       -2.946      -14.498       10.015        9.619        8.232      100.310       92.525       67.766        0.372        0.013       83.478        6.044        0.005      332.918        1.894      868.495
11/29/2013  23:17:00      -68.890       -4.855      -11.978       13.138        9.291        6.961      172.596       86.314       48.449        0.261        0.015       69.061        6.718        0.009      333.042        2.098      868.497
11/29/2013  23:18:00      -59.594      -11.080      -11.011        9.614        9.178        6.982       92.431       84.230       48.755        0.201        0.011       60.616        5.191        0.007      332.986        2.006      868.499
11/29/2013  23:19:00      -64.302      -15.122      -13.943        8.781       10.878        8.130       77.097      118.337       66.104        0.241        0.013       66.056        4.365        0.004      332.985        2.005      868.502
11/29/2013  23:20:00      -74.208      -21.607      -13.033       12.522       16.743        8.440      156.803      280.344       71.241        0.333        0.025       77.290        5.168        0.004      332.900        1.863      868.505
11/29/2013  23:21:00      -76.655      -34.068      -14.292        7.792        8.450        7.178       60.712       71.402       51.518        0.371        0.009       83.884        0.832        0.000      332.877        1.827      868.507
11/29/2013  23:22:00      -96.741      -25.182      -15.400       20.314        9.126        9.554      412.649       83.279       91.279        0.541        0.029       99.965        4.124        0.002      332.840        1.765      868.521
11/29/2013  23:23:00      -99.904      -35.738      -19.919       13.559       10.649       10.929      183.841      113.407      119.433        0.604        0.021      106.104        2.624        0.001      332.812        1.720      868.531
11/29/2013  23:24:00     -106.474      -34.529       -3.958       20.005       15.311       13.760      400.214      234.426      189.348        0.668        0.041      111.933       13.331        0.014      332.808        1.712      868.542
11/29/2013  23:25:00     -120.879      -41.667      -19.203       15.891       10.997       12.062      252.517      120.931      145.495        0.862        0.026      127.859       10.343        0.007      332.806        1.709      868.557
11/29/2013  23:26:00     -135.281      -46.200      -13.841       14.025       14.230       11.991      196.690      202.501      143.788        1.058        0.027      142.952       10.004        0.005      332.782        1.669      868.562
11/29/2013  23:27:00     -134.386      -48.841      -11.791       10.257       11.946        9.592      105.213      142.697       92.009        1.046        0.017      142.986        4.239        0.001      332.793        1.687      868.568
11/29/2013  23:28:00     -127.971      -44.367       -9.039       10.751        8.353        9.807      115.588       69.778       96.180        0.935        0.014      135.443        5.897        0.002      332.786        1.677      868.574
11/29/2013  23:29:00     -133.407      -44.037      -15.203        8.760        7.937        5.392       76.738       62.996       29.078        1.007        0.008      140.488        3.193        0.001      332.757        1.627      868.574
11/29/2013  23:30:00     -108.068      -40.064      -12.344       29.304       22.025       17.243      858.706      485.081      297.319        0.754        0.082      115.255       18.505        0.026      332.656        1.461      868.581
11/29/2013  23:31:00      -65.419       -7.150       -5.430       41.014       32.627       18.542     1682.172     1064.528      343.819        0.372        0.155       65.809       17.465        0.070      332.792        1.685      868.592
11/29/2013  23:32:00      -94.176       31.544      -18.759       44.082       38.917       20.953     1943.209     1514.499      439.030        0.706        0.195       99.319       14.358        0.021      333.066        2.138      868.599
11/29/2013  23:33:00     -133.136       50.567       -5.540       58.778       27.228       27.083     3454.828      741.378      733.489        1.262        0.246      142.416       28.423        0.040      333.120        2.227      868.601
11/29/2013  23:34:00      -64.667       35.861       -7.790       46.408       30.334       21.856     2153.747      920.130      477.692        0.454        0.178       73.945       20.773        0.079      333.110        2.210      868.595
11/29/2013  23:35:00      -39.638        4.229      -10.709       35.008       22.794       12.084     1225.531      519.587      146.030        0.180        0.095       39.863       12.804        0.103      333.161        2.294      868.579
11/29/2013  23:36:00      -25.249      -21.557       -4.888       16.526       22.039        9.493      273.124      485.696       90.113        0.099        0.042       33.200        9.060        0.074      333.168        2.306      868.557
11/29/2013  23:37:00      -32.884      -37.996       -4.294       13.614       10.914       10.184      185.352      119.114      103.717        0.148        0.020       50.250        4.010        0.006      333.194        2.348      868.541
11/29/2013  23:38:00      -30.062      -18.510       -4.393       17.690       17.449       14.261      312.939      304.481      203.386        0.104        0.041       35.304        9.438        0.071      333.257        2.453      868.537
11/29/2013  23:39:00      -20.385      -26.539       -3.416       14.586       17.047       16.018      212.750      290.593      256.592        0.095        0.038       33.465        9.657        0.083      333.052        2.115      868.536
11/29/2013  23:40:00      -26.738      -26.789        1.591       25.866       18.644       17.669      669.054      347.614      312.194        0.138        0.066       37.850       13.886        0.135      332.930        1.913      868.531
11/29/2013  23:41:00      -65.521      -55.392       -1.416       31.935       25.785       17.132     1019.875      664.889      293.521        0.467        0.099       85.798       16.375        0.036      332.985        2.003      868.533
11/29/2013  23:42:00      -67.942      -34.350       -2.255       20.593       18.672       13.870      424.062      348.643      192.370        0.338        0.048       76.132       11.177        0.022      333.094        2.183      868.535
11/29/2013  23:43:00      -55.742      -25.525       -0.457       34.060       21.050       13.736     1160.106      443.107      188.667        0.278        0.090       61.308       10.268        0.028      333.105        2.202      868.547
11/29/2013  23:44:00      -80.025      -68.658       -4.416       29.477       20.457       13.836      868.918      418.476      191.440        0.631        0.074      105.442        4.833        0.002      333.074        2.150      868.572
11/29/2013  23:45:00     -107.150      -56.655       -5.727       44.310       30.289       24.829     1963.419      917.402      616.485        0.911        0.175      121.206       27.198        0.050      333.007        2.041      868.587
11/29/2013  23:46:00      -88.079      -55.725        5.814       56.955       37.671       26.154     3243.927     1419.138      684.016        0.812        0.267      104.226       32.184        0.095      332.866        1.809      868.594
11/29/2013  23:47:00     -118.552      -72.986       -4.393       37.999       28.863       21.792     1443.929      833.059      474.871        1.108        0.138      139.217       16.788        0.015      332.822        1.736      868.594
11/29/2013  23:48:00      -93.948      -69.936        3.536       38.334       28.434       21.874     1469.501      808.485      478.472        0.824        0.138      117.121       23.274        0.039      332.756        1.625      868.585
11/29/2013  23:49:00     -124.466      -57.731       -1.029       31.275       22.326       19.764      978.132      498.439      390.605        1.035        0.093      137.203       17.090        0.016      332.754        1.622      868.575
11/29/2013  23:50:00     -116.460      -50.645        0.552       30.309       23.528       20.288      918.607      553.587      411.597        0.901        0.094      126.996       17.138        0.018      332.780        1.666      868.573
11/29/2013  23:51:00     -121.949      -63.488       -8.450       23.265       29.794       16.823      541.243      887.657      283.019        1.034        0.086      137.486       12.797        0.009      332.797        1.693      868.559
11/29/2013  23:52:00      -97.604      -41.716        0.602       49.350       28.814       21.052     2435.441      830.272      443.172        0.749        0.185      106.145       22.758        0.046      332.749        1.616      868.554
11/29/2013  23:53:00      -57.631      -40.081        3.263       43.102       31.453       25.305     1857.783      989.280      640.353        0.421        0.174       70.198       21.435        0.093      332.792        1.686      868.547
11/29/2013  23:54:00      -65.520      -40.001       -0.898       45.457       35.671       25.268     2066.296     1272.446      638.487        0.493        0.199       76.766       23.423        0.093      332.859        1.796      868.550
11/29/2013  23:55:00      -83.052      -62.741       -1.386       33.294       30.889       22.109     1108.480      954.107      488.822        0.669        0.128      104.087       17.360        0.028      332.920        1.898      868.557
11/29/2013  23:56:00      -62.521      -32.962        3.131       32.174       23.245       17.034     1035.177      540.314      290.155        0.344        0.093       70.678        8.855        0.016      332.868        1.813      868.549
11/29/2013  23:57:00      -57.328      -65.682        6.087       34.497       37.429       19.128     1190.062     1400.946      365.879        0.530        0.148       87.182       16.691        0.037      332.930        1.914      868.539
11/29/2013  23:58:00      -88.706      -71.735       -6.229       19.990       17.942       12.616      399.613      321.927      159.164        0.697        0.044      114.082       11.589        0.010      333.055        2.121      868.522
11/29/2013  23:59:00      -64.294      -44.406        2.868       29.029       21.133       17.219      842.655      446.584      296.485        0.385        0.079       78.139       14.837        0.036      333.026        2.071      868.519
